<?xml version="1.0" encoding="UTF-8" standalone="no" ?>
<gpx xmlns="http://www.topografix.com/GPX/1/1" xmlns:xsi="http://www.w3.org/2001/XMLSchema-instance" xsi:schemaLocation="http://www.topografix.com/GPX/1/1 http://www.topografix.com/GPX/1/1/gpx.xsd" version="1.1" creator="VisuGPX - https://www.visugpx.com">
  <metadata>
    <name>Joyeux Randonneurs à St Sulpice de Roumagnac</name>
    <desc><![CDATA[Randonnée accessible à tous. Il existe pratiquement toujours des possibilités  pour raccourcir le circuit à environ  6km. ]]></desc>
  </metadata>
  <trk>
    <name><![CDATA[Tracé 26 janv. 2016 14:07:00 St Sulpice de Roumagnac]]></name>
    <trkseg>
      <trkpt lat="45.20563" lon="0.39419">
        <ele>176</ele>
        <time>2016-01-26T13:07:00Z</time>
      </trkpt>
      <trkpt lat="45.20563" lon="0.39414">
        <ele>175</ele>
        <time>2016-01-26T13:07:29Z</time>
      </trkpt>
      <trkpt lat="45.20564" lon="0.39408">
        <ele>174</ele>
        <time>2016-01-26T13:07:34Z</time>
      </trkpt>
      <trkpt lat="45.20561" lon="0.394">
        <ele>173</ele>
        <time>2016-01-26T13:07:38Z</time>
      </trkpt>
      <trkpt lat="45.20557" lon="0.39392">
        <ele>170</ele>
        <time>2016-01-26T13:07:43Z</time>
      </trkpt>
      <trkpt lat="45.20554" lon="0.39385">
        <ele>169</ele>
        <time>2016-01-26T13:07:47Z</time>
      </trkpt>
      <trkpt lat="45.20552" lon="0.39376">
        <ele>169</ele>
        <time>2016-01-26T13:07:52Z</time>
      </trkpt>
      <trkpt lat="45.20548" lon="0.39366">
        <ele>168</ele>
        <time>2016-01-26T13:07:57Z</time>
      </trkpt>
      <trkpt lat="45.20544" lon="0.39358">
        <ele>165</ele>
        <time>2016-01-26T13:08:01Z</time>
      </trkpt>
      <trkpt lat="45.20538" lon="0.39348">
        <ele>166</ele>
        <time>2016-01-26T13:08:06Z</time>
      </trkpt>
      <trkpt lat="45.20534" lon="0.39341">
        <ele>166</ele>
        <time>2016-01-26T13:08:10Z</time>
      </trkpt>
      <trkpt lat="45.20529" lon="0.39333">
        <ele>167</ele>
        <time>2016-01-26T13:08:15Z</time>
      </trkpt>
      <trkpt lat="45.20524" lon="0.39329">
        <ele>169</ele>
        <time>2016-01-26T13:08:19Z</time>
      </trkpt>
      <trkpt lat="45.20519" lon="0.39326">
        <ele>168</ele>
        <time>2016-01-26T13:08:23Z</time>
      </trkpt>
      <trkpt lat="45.20513" lon="0.39326">
        <ele>169</ele>
        <time>2016-01-26T13:08:27Z</time>
      </trkpt>
      <trkpt lat="45.20505" lon="0.39327">
        <ele>168</ele>
        <time>2016-01-26T13:08:32Z</time>
      </trkpt>
      <trkpt lat="45.205" lon="0.39326">
        <ele>168</ele>
        <time>2016-01-26T13:08:37Z</time>
      </trkpt>
      <trkpt lat="45.20494" lon="0.39326">
        <ele>167</ele>
        <time>2016-01-26T13:08:41Z</time>
      </trkpt>
      <trkpt lat="45.20487" lon="0.39324">
        <ele>167</ele>
        <time>2016-01-26T13:08:46Z</time>
      </trkpt>
      <trkpt lat="45.20483" lon="0.39319">
        <ele>166</ele>
        <time>2016-01-26T13:08:50Z</time>
      </trkpt>
      <trkpt lat="45.20479" lon="0.39316">
        <ele>167</ele>
        <time>2016-01-26T13:08:55Z</time>
      </trkpt>
      <trkpt lat="45.20475" lon="0.3931">
        <ele>167</ele>
        <time>2016-01-26T13:08:59Z</time>
      </trkpt>
      <trkpt lat="45.20475" lon="0.39301">
        <ele>169</ele>
        <time>2016-01-26T13:09:04Z</time>
      </trkpt>
      <trkpt lat="45.20478" lon="0.39295">
        <ele>169</ele>
        <time>2016-01-26T13:09:08Z</time>
      </trkpt>
      <trkpt lat="45.2048" lon="0.39289">
        <ele>169</ele>
        <time>2016-01-26T13:09:13Z</time>
      </trkpt>
      <trkpt lat="45.2048" lon="0.39283">
        <ele>167</ele>
        <time>2016-01-26T13:09:17Z</time>
      </trkpt>
      <trkpt lat="45.20483" lon="0.39276">
        <ele>168</ele>
        <time>2016-01-26T13:09:22Z</time>
      </trkpt>
      <trkpt lat="45.20486" lon="0.3927">
        <ele>166</ele>
        <time>2016-01-26T13:09:26Z</time>
      </trkpt>
      <trkpt lat="45.20488" lon="0.39264">
        <ele>167</ele>
        <time>2016-01-26T13:09:30Z</time>
      </trkpt>
      <trkpt lat="45.2049" lon="0.39257">
        <ele>167</ele>
        <time>2016-01-26T13:09:34Z</time>
      </trkpt>
      <trkpt lat="45.20492" lon="0.3925">
        <ele>165</ele>
        <time>2016-01-26T13:09:39Z</time>
      </trkpt>
      <trkpt lat="45.20494" lon="0.39244">
        <ele>164</ele>
        <time>2016-01-26T13:09:43Z</time>
      </trkpt>
      <trkpt lat="45.20498" lon="0.39238">
        <ele>163</ele>
        <time>2016-01-26T13:09:48Z</time>
      </trkpt>
      <trkpt lat="45.20503" lon="0.39233">
        <ele>165</ele>
        <time>2016-01-26T13:09:52Z</time>
      </trkpt>
      <trkpt lat="45.20506" lon="0.39227">
        <ele>163</ele>
        <time>2016-01-26T13:09:56Z</time>
      </trkpt>
      <trkpt lat="45.20511" lon="0.39222">
        <ele>163</ele>
        <time>2016-01-26T13:10:01Z</time>
      </trkpt>
      <trkpt lat="45.20516" lon="0.39219">
        <ele>162</ele>
        <time>2016-01-26T13:10:05Z</time>
      </trkpt>
      <trkpt lat="45.20518" lon="0.39214">
        <ele>157</ele>
        <time>2016-01-26T13:10:09Z</time>
      </trkpt>
      <trkpt lat="45.20522" lon="0.3921">
        <ele>155</ele>
        <time>2016-01-26T13:10:13Z</time>
      </trkpt>
      <trkpt lat="45.20525" lon="0.39207">
        <ele>155</ele>
        <time>2016-01-26T13:10:17Z</time>
      </trkpt>
      <trkpt lat="45.2053" lon="0.39207">
        <ele>154</ele>
        <time>2016-01-26T13:10:21Z</time>
      </trkpt>
      <trkpt lat="45.20537" lon="0.39202">
        <ele>153</ele>
        <time>2016-01-26T13:10:26Z</time>
      </trkpt>
      <trkpt lat="45.20541" lon="0.39197">
        <ele>153</ele>
        <time>2016-01-26T13:10:30Z</time>
      </trkpt>
      <trkpt lat="45.20545" lon="0.39193">
        <ele>152</ele>
        <time>2016-01-26T13:10:34Z</time>
      </trkpt>
      <trkpt lat="45.20551" lon="0.39191">
        <ele>151</ele>
        <time>2016-01-26T13:10:38Z</time>
      </trkpt>
      <trkpt lat="45.20557" lon="0.39185">
        <ele>151</ele>
        <time>2016-01-26T13:10:43Z</time>
      </trkpt>
      <trkpt lat="45.20563" lon="0.39181">
        <ele>151</ele>
        <time>2016-01-26T13:10:48Z</time>
      </trkpt>
      <trkpt lat="45.20568" lon="0.39179">
        <ele>150</ele>
        <time>2016-01-26T13:10:52Z</time>
      </trkpt>
      <trkpt lat="45.20574" lon="0.39178">
        <ele>152</ele>
        <time>2016-01-26T13:10:56Z</time>
      </trkpt>
      <trkpt lat="45.20579" lon="0.39172">
        <ele>151</ele>
        <time>2016-01-26T13:11:01Z</time>
      </trkpt>
      <trkpt lat="45.20584" lon="0.3917">
        <ele>152</ele>
        <time>2016-01-26T13:11:05Z</time>
      </trkpt>
      <trkpt lat="45.20589" lon="0.39165">
        <ele>152</ele>
        <time>2016-01-26T13:11:09Z</time>
      </trkpt>
      <trkpt lat="45.20592" lon="0.39159">
        <ele>152</ele>
        <time>2016-01-26T13:11:14Z</time>
      </trkpt>
      <trkpt lat="45.20597" lon="0.39154">
        <ele>154</ele>
        <time>2016-01-26T13:11:18Z</time>
      </trkpt>
      <trkpt lat="45.20601" lon="0.39145">
        <ele>152</ele>
        <time>2016-01-26T13:11:23Z</time>
      </trkpt>
      <trkpt lat="45.20604" lon="0.39137">
        <ele>150</ele>
        <time>2016-01-26T13:11:28Z</time>
      </trkpt>
      <trkpt lat="45.20607" lon="0.39129">
        <ele>151</ele>
        <time>2016-01-26T13:11:33Z</time>
      </trkpt>
      <trkpt lat="45.20609" lon="0.3912">
        <ele>150</ele>
        <time>2016-01-26T13:11:38Z</time>
      </trkpt>
      <trkpt lat="45.20611" lon="0.39112">
        <ele>150</ele>
        <time>2016-01-26T13:11:42Z</time>
      </trkpt>
      <trkpt lat="45.20612" lon="0.39105">
        <ele>150</ele>
        <time>2016-01-26T13:11:46Z</time>
      </trkpt>
      <trkpt lat="45.20612" lon="0.39098">
        <ele>149</ele>
        <time>2016-01-26T13:11:50Z</time>
      </trkpt>
      <trkpt lat="45.20612" lon="0.39092">
        <ele>149</ele>
        <time>2016-01-26T13:11:54Z</time>
      </trkpt>
      <trkpt lat="45.20612" lon="0.39085">
        <ele>149</ele>
        <time>2016-01-26T13:11:58Z</time>
      </trkpt>
      <trkpt lat="45.20612" lon="0.39079">
        <ele>149</ele>
        <time>2016-01-26T13:12:03Z</time>
      </trkpt>
      <trkpt lat="45.20614" lon="0.39072">
        <ele>149</ele>
        <time>2016-01-26T13:12:08Z</time>
      </trkpt>
      <trkpt lat="45.20616" lon="0.39067">
        <ele>148</ele>
        <time>2016-01-26T13:12:12Z</time>
      </trkpt>
      <trkpt lat="45.20619" lon="0.39063">
        <ele>149</ele>
        <time>2016-01-26T13:12:17Z</time>
      </trkpt>
      <trkpt lat="45.20621" lon="0.39057">
        <ele>148</ele>
        <time>2016-01-26T13:12:22Z</time>
      </trkpt>
      <trkpt lat="45.20622" lon="0.39051">
        <ele>147</ele>
        <time>2016-01-26T13:12:27Z</time>
      </trkpt>
      <trkpt lat="45.20623" lon="0.39044">
        <ele>147</ele>
        <time>2016-01-26T13:12:32Z</time>
      </trkpt>
      <trkpt lat="45.20624" lon="0.39037">
        <ele>147</ele>
        <time>2016-01-26T13:12:37Z</time>
      </trkpt>
      <trkpt lat="45.20625" lon="0.39031">
        <ele>147</ele>
        <time>2016-01-26T13:12:41Z</time>
      </trkpt>
      <trkpt lat="45.20626" lon="0.39025">
        <ele>146</ele>
        <time>2016-01-26T13:12:46Z</time>
      </trkpt>
      <trkpt lat="45.20627" lon="0.39019">
        <ele>145</ele>
        <time>2016-01-26T13:12:51Z</time>
      </trkpt>
      <trkpt lat="45.20628" lon="0.39014">
        <ele>145</ele>
        <time>2016-01-26T13:12:55Z</time>
      </trkpt>
      <trkpt lat="45.2063" lon="0.39006">
        <ele>144</ele>
        <time>2016-01-26T13:13:00Z</time>
      </trkpt>
      <trkpt lat="45.2063" lon="0.39">
        <ele>142</ele>
        <time>2016-01-26T13:13:05Z</time>
      </trkpt>
      <trkpt lat="45.20631" lon="0.38993">
        <ele>142</ele>
        <time>2016-01-26T13:13:10Z</time>
      </trkpt>
      <trkpt lat="45.20631" lon="0.38987">
        <ele>140</ele>
        <time>2016-01-26T13:13:14Z</time>
      </trkpt>
      <trkpt lat="45.20633" lon="0.38981">
        <ele>141</ele>
        <time>2016-01-26T13:13:18Z</time>
      </trkpt>
      <trkpt lat="45.20635" lon="0.38973">
        <ele>142</ele>
        <time>2016-01-26T13:13:23Z</time>
      </trkpt>
      <trkpt lat="45.20637" lon="0.38966">
        <ele>140</ele>
        <time>2016-01-26T13:13:27Z</time>
      </trkpt>
      <trkpt lat="45.20638" lon="0.3896">
        <ele>140</ele>
        <time>2016-01-26T13:13:31Z</time>
      </trkpt>
      <trkpt lat="45.2064" lon="0.38956">
        <ele>139</ele>
        <time>2016-01-26T13:13:35Z</time>
      </trkpt>
      <trkpt lat="45.20642" lon="0.3895">
        <ele>138</ele>
        <time>2016-01-26T13:13:39Z</time>
      </trkpt>
      <trkpt lat="45.20644" lon="0.38942">
        <ele>138</ele>
        <time>2016-01-26T13:13:44Z</time>
      </trkpt>
      <trkpt lat="45.20647" lon="0.38935">
        <ele>137</ele>
        <time>2016-01-26T13:13:48Z</time>
      </trkpt>
      <trkpt lat="45.2065" lon="0.38928">
        <ele>138</ele>
        <time>2016-01-26T13:13:53Z</time>
      </trkpt>
      <trkpt lat="45.20651" lon="0.38922">
        <ele>137</ele>
        <time>2016-01-26T13:13:57Z</time>
      </trkpt>
      <trkpt lat="45.20654" lon="0.38916">
        <ele>138</ele>
        <time>2016-01-26T13:14:02Z</time>
      </trkpt>
      <trkpt lat="45.20657" lon="0.38908">
        <ele>137</ele>
        <time>2016-01-26T13:14:07Z</time>
      </trkpt>
      <trkpt lat="45.2066" lon="0.38903">
        <ele>137</ele>
        <time>2016-01-26T13:14:11Z</time>
      </trkpt>
      <trkpt lat="45.20663" lon="0.38901">
        <ele>139</ele>
        <time>2016-01-26T13:14:15Z</time>
      </trkpt>
      <trkpt lat="45.20666" lon="0.38894">
        <ele>139</ele>
        <time>2016-01-26T13:14:20Z</time>
      </trkpt>
      <trkpt lat="45.2067" lon="0.38888">
        <ele>139</ele>
        <time>2016-01-26T13:14:25Z</time>
      </trkpt>
      <trkpt lat="45.20674" lon="0.38881">
        <ele>139</ele>
        <time>2016-01-26T13:14:29Z</time>
      </trkpt>
      <trkpt lat="45.20677" lon="0.38874">
        <ele>138</ele>
        <time>2016-01-26T13:14:34Z</time>
      </trkpt>
      <trkpt lat="45.20677" lon="0.38868">
        <ele>137</ele>
        <time>2016-01-26T13:14:38Z</time>
      </trkpt>
      <trkpt lat="45.20679" lon="0.38862">
        <ele>136</ele>
        <time>2016-01-26T13:14:43Z</time>
      </trkpt>
      <trkpt lat="45.20681" lon="0.38857">
        <ele>135</ele>
        <time>2016-01-26T13:14:47Z</time>
      </trkpt>
      <trkpt lat="45.20682" lon="0.38852">
        <ele>134</ele>
        <time>2016-01-26T13:14:51Z</time>
      </trkpt>
      <trkpt lat="45.20684" lon="0.38845">
        <ele>136</ele>
        <time>2016-01-26T13:14:56Z</time>
      </trkpt>
      <trkpt lat="45.20686" lon="0.38839">
        <ele>135</ele>
        <time>2016-01-26T13:15:00Z</time>
      </trkpt>
      <trkpt lat="45.20687" lon="0.38833">
        <ele>135</ele>
        <time>2016-01-26T13:15:05Z</time>
      </trkpt>
      <trkpt lat="45.20688" lon="0.38828">
        <ele>135</ele>
        <time>2016-01-26T13:15:09Z</time>
      </trkpt>
      <trkpt lat="45.20689" lon="0.38821">
        <ele>134</ele>
        <time>2016-01-26T13:15:14Z</time>
      </trkpt>
      <trkpt lat="45.2069" lon="0.38816">
        <ele>133</ele>
        <time>2016-01-26T13:15:19Z</time>
      </trkpt>
      <trkpt lat="45.20691" lon="0.3881">
        <ele>132</ele>
        <time>2016-01-26T13:15:23Z</time>
      </trkpt>
      <trkpt lat="45.20692" lon="0.38804">
        <ele>133</ele>
        <time>2016-01-26T13:15:28Z</time>
      </trkpt>
      <trkpt lat="45.20694" lon="0.38796">
        <ele>132</ele>
        <time>2016-01-26T13:15:32Z</time>
      </trkpt>
      <trkpt lat="45.20695" lon="0.38791">
        <ele>131</ele>
        <time>2016-01-26T13:15:36Z</time>
      </trkpt>
      <trkpt lat="45.20697" lon="0.38784">
        <ele>132</ele>
        <time>2016-01-26T13:15:41Z</time>
      </trkpt>
      <trkpt lat="45.207" lon="0.38777">
        <ele>132</ele>
        <time>2016-01-26T13:15:46Z</time>
      </trkpt>
      <trkpt lat="45.20702" lon="0.38772">
        <ele>130</ele>
        <time>2016-01-26T13:15:50Z</time>
      </trkpt>
      <trkpt lat="45.20704" lon="0.38768">
        <ele>130</ele>
        <time>2016-01-26T13:15:54Z</time>
      </trkpt>
      <trkpt lat="45.20707" lon="0.38763">
        <ele>130</ele>
        <time>2016-01-26T13:15:58Z</time>
      </trkpt>
      <trkpt lat="45.20709" lon="0.38757">
        <ele>129</ele>
        <time>2016-01-26T13:16:03Z</time>
      </trkpt>
      <trkpt lat="45.20711" lon="0.38752">
        <ele>127</ele>
        <time>2016-01-26T13:16:07Z</time>
      </trkpt>
      <trkpt lat="45.20714" lon="0.38748">
        <ele>126</ele>
        <time>2016-01-26T13:16:11Z</time>
      </trkpt>
      <trkpt lat="45.20718" lon="0.38742">
        <ele>125</ele>
        <time>2016-01-26T13:16:16Z</time>
      </trkpt>
      <trkpt lat="45.20721" lon="0.38737">
        <ele>124</ele>
        <time>2016-01-26T13:16:20Z</time>
      </trkpt>
      <trkpt lat="45.20725" lon="0.38732">
        <ele>124</ele>
        <time>2016-01-26T13:16:25Z</time>
      </trkpt>
      <trkpt lat="45.20728" lon="0.38728">
        <ele>122</ele>
        <time>2016-01-26T13:16:30Z</time>
      </trkpt>
      <trkpt lat="45.20731" lon="0.38724">
        <ele>123</ele>
        <time>2016-01-26T13:16:35Z</time>
      </trkpt>
      <trkpt lat="45.20734" lon="0.38719">
        <ele>124</ele>
        <time>2016-01-26T13:16:40Z</time>
      </trkpt>
      <trkpt lat="45.20737" lon="0.38714">
        <ele>123</ele>
        <time>2016-01-26T13:16:44Z</time>
      </trkpt>
      <trkpt lat="45.20741" lon="0.38708">
        <ele>122</ele>
        <time>2016-01-26T13:16:49Z</time>
      </trkpt>
      <trkpt lat="45.20744" lon="0.38703">
        <ele>121</ele>
        <time>2016-01-26T13:16:54Z</time>
      </trkpt>
      <trkpt lat="45.20747" lon="0.387">
        <ele>122</ele>
        <time>2016-01-26T13:16:58Z</time>
      </trkpt>
      <trkpt lat="45.2075" lon="0.38697">
        <ele>123</ele>
        <time>2016-01-26T13:17:03Z</time>
      </trkpt>
      <trkpt lat="45.20755" lon="0.38693">
        <ele>122</ele>
        <time>2016-01-26T13:17:08Z</time>
      </trkpt>
      <trkpt lat="45.20759" lon="0.38692">
        <ele>121</ele>
        <time>2016-01-26T13:17:13Z</time>
      </trkpt>
      <trkpt lat="45.20764" lon="0.38691">
        <ele>121</ele>
        <time>2016-01-26T13:17:18Z</time>
      </trkpt>
      <trkpt lat="45.20771" lon="0.38689">
        <ele>122</ele>
        <time>2016-01-26T13:17:23Z</time>
      </trkpt>
      <trkpt lat="45.20774" lon="0.38684">
        <ele>123</ele>
        <time>2016-01-26T13:17:27Z</time>
      </trkpt>
      <trkpt lat="45.20777" lon="0.38676">
        <ele>124</ele>
        <time>2016-01-26T13:17:32Z</time>
      </trkpt>
      <trkpt lat="45.20778" lon="0.3867">
        <ele>126</ele>
        <time>2016-01-26T13:17:37Z</time>
      </trkpt>
      <trkpt lat="45.20782" lon="0.38666">
        <ele>127</ele>
        <time>2016-01-26T13:17:42Z</time>
      </trkpt>
      <trkpt lat="45.20785" lon="0.38662">
        <ele>129</ele>
        <time>2016-01-26T13:17:46Z</time>
      </trkpt>
      <trkpt lat="45.20787" lon="0.38657">
        <ele>131</ele>
        <time>2016-01-26T13:17:50Z</time>
      </trkpt>
      <trkpt lat="45.20789" lon="0.38652">
        <ele>131</ele>
        <time>2016-01-26T13:17:56Z</time>
      </trkpt>
      <trkpt lat="45.20792" lon="0.38646">
        <ele>131</ele>
        <time>2016-01-26T13:18:01Z</time>
      </trkpt>
      <trkpt lat="45.20793" lon="0.3864">
        <ele>131</ele>
        <time>2016-01-26T13:18:05Z</time>
      </trkpt>
      <trkpt lat="45.20795" lon="0.38635">
        <ele>132</ele>
        <time>2016-01-26T13:18:10Z</time>
      </trkpt>
      <trkpt lat="45.20798" lon="0.38629">
        <ele>133</ele>
        <time>2016-01-26T13:18:15Z</time>
      </trkpt>
      <trkpt lat="45.20799" lon="0.38624">
        <ele>134</ele>
        <time>2016-01-26T13:18:19Z</time>
      </trkpt>
      <trkpt lat="45.20803" lon="0.38618">
        <ele>134</ele>
        <time>2016-01-26T13:18:24Z</time>
      </trkpt>
      <trkpt lat="45.20805" lon="0.38613">
        <ele>135</ele>
        <time>2016-01-26T13:18:30Z</time>
      </trkpt>
      <trkpt lat="45.20807" lon="0.38608">
        <ele>135</ele>
        <time>2016-01-26T13:18:35Z</time>
      </trkpt>
      <trkpt lat="45.20809" lon="0.38603">
        <ele>136</ele>
        <time>2016-01-26T13:18:40Z</time>
      </trkpt>
      <trkpt lat="45.20811" lon="0.38597">
        <ele>135</ele>
        <time>2016-01-26T13:18:45Z</time>
      </trkpt>
      <trkpt lat="45.20814" lon="0.38592">
        <ele>136</ele>
        <time>2016-01-26T13:18:51Z</time>
      </trkpt>
      <trkpt lat="45.20816" lon="0.38587">
        <ele>136</ele>
        <time>2016-01-26T13:18:56Z</time>
      </trkpt>
      <trkpt lat="45.20818" lon="0.38583">
        <ele>137</ele>
        <time>2016-01-26T13:19:01Z</time>
      </trkpt>
      <trkpt lat="45.20821" lon="0.38579">
        <ele>137</ele>
        <time>2016-01-26T13:19:08Z</time>
      </trkpt>
      <trkpt lat="45.20824" lon="0.38574">
        <ele>137</ele>
        <time>2016-01-26T13:19:14Z</time>
      </trkpt>
      <trkpt lat="45.20826" lon="0.38568">
        <ele>138</ele>
        <time>2016-01-26T13:19:19Z</time>
      </trkpt>
      <trkpt lat="45.20828" lon="0.38564">
        <ele>140</ele>
        <time>2016-01-26T13:19:26Z</time>
      </trkpt>
      <trkpt lat="45.2083" lon="0.38559">
        <ele>141</ele>
        <time>2016-01-26T13:19:31Z</time>
      </trkpt>
      <trkpt lat="45.20832" lon="0.38553">
        <ele>142</ele>
        <time>2016-01-26T13:19:36Z</time>
      </trkpt>
      <trkpt lat="45.20833" lon="0.38548">
        <ele>145</ele>
        <time>2016-01-26T13:19:44Z</time>
      </trkpt>
      <trkpt lat="45.20836" lon="0.38543">
        <ele>143</ele>
        <time>2016-01-26T13:19:50Z</time>
      </trkpt>
      <trkpt lat="45.20838" lon="0.38538">
        <ele>144</ele>
        <time>2016-01-26T13:19:57Z</time>
      </trkpt>
      <trkpt lat="45.20841" lon="0.38534">
        <ele>145</ele>
        <time>2016-01-26T13:20:08Z</time>
      </trkpt>
      <trkpt lat="45.20841" lon="0.38528">
        <ele>144</ele>
        <time>2016-01-26T13:20:38Z</time>
      </trkpt>
      <trkpt lat="45.20844" lon="0.38524">
        <ele>142</ele>
        <time>2016-01-26T13:20:42Z</time>
      </trkpt>
      <trkpt lat="45.20848" lon="0.38525">
        <ele>143</ele>
        <time>2016-01-26T13:20:57Z</time>
      </trkpt>
      <trkpt lat="45.20852" lon="0.38526">
        <ele>142</ele>
        <time>2016-01-26T13:21:04Z</time>
      </trkpt>
      <trkpt lat="45.20855" lon="0.38527">
        <ele>142</ele>
        <time>2016-01-26T13:21:09Z</time>
      </trkpt>
      <trkpt lat="45.20859" lon="0.38529">
        <ele>141</ele>
        <time>2016-01-26T13:21:13Z</time>
      </trkpt>
      <trkpt lat="45.20863" lon="0.38534">
        <ele>140</ele>
        <time>2016-01-26T13:21:17Z</time>
      </trkpt>
      <trkpt lat="45.20867" lon="0.3854">
        <ele>140</ele>
        <time>2016-01-26T13:21:21Z</time>
      </trkpt>
      <trkpt lat="45.20871" lon="0.38544">
        <ele>139</ele>
        <time>2016-01-26T13:21:25Z</time>
      </trkpt>
      <trkpt lat="45.20876" lon="0.3855">
        <ele>138</ele>
        <time>2016-01-26T13:21:29Z</time>
      </trkpt>
      <trkpt lat="45.20879" lon="0.38554">
        <ele>140</ele>
        <time>2016-01-26T13:21:34Z</time>
      </trkpt>
      <trkpt lat="45.20883" lon="0.38558">
        <ele>140</ele>
        <time>2016-01-26T13:21:38Z</time>
      </trkpt>
      <trkpt lat="45.20885" lon="0.38563">
        <ele>140</ele>
        <time>2016-01-26T13:21:42Z</time>
      </trkpt>
      <trkpt lat="45.20889" lon="0.38566">
        <ele>140</ele>
        <time>2016-01-26T13:21:46Z</time>
      </trkpt>
      <trkpt lat="45.20892" lon="0.3857">
        <ele>140</ele>
        <time>2016-01-26T13:21:50Z</time>
      </trkpt>
      <trkpt lat="45.20896" lon="0.38574">
        <ele>140</ele>
        <time>2016-01-26T13:21:54Z</time>
      </trkpt>
      <trkpt lat="45.209" lon="0.38578">
        <ele>139</ele>
        <time>2016-01-26T13:21:58Z</time>
      </trkpt>
      <trkpt lat="45.20903" lon="0.38582">
        <ele>140</ele>
        <time>2016-01-26T13:22:02Z</time>
      </trkpt>
      <trkpt lat="45.20907" lon="0.38585">
        <ele>140</ele>
        <time>2016-01-26T13:22:06Z</time>
      </trkpt>
      <trkpt lat="45.2091" lon="0.38588">
        <ele>139</ele>
        <time>2016-01-26T13:22:10Z</time>
      </trkpt>
      <trkpt lat="45.20913" lon="0.38592">
        <ele>140</ele>
        <time>2016-01-26T13:22:14Z</time>
      </trkpt>
      <trkpt lat="45.20917" lon="0.38595">
        <ele>139</ele>
        <time>2016-01-26T13:22:18Z</time>
      </trkpt>
      <trkpt lat="45.20921" lon="0.38599">
        <ele>138</ele>
        <time>2016-01-26T13:22:22Z</time>
      </trkpt>
      <trkpt lat="45.20925" lon="0.38603">
        <ele>139</ele>
        <time>2016-01-26T13:22:27Z</time>
      </trkpt>
      <trkpt lat="45.20929" lon="0.38607">
        <ele>138</ele>
        <time>2016-01-26T13:22:31Z</time>
      </trkpt>
      <trkpt lat="45.20933" lon="0.38612">
        <ele>138</ele>
        <time>2016-01-26T13:22:36Z</time>
      </trkpt>
      <trkpt lat="45.20937" lon="0.38616">
        <ele>139</ele>
        <time>2016-01-26T13:22:41Z</time>
      </trkpt>
      <trkpt lat="45.20942" lon="0.38621">
        <ele>137</ele>
        <time>2016-01-26T13:22:46Z</time>
      </trkpt>
      <trkpt lat="45.20946" lon="0.38624">
        <ele>136</ele>
        <time>2016-01-26T13:22:50Z</time>
      </trkpt>
      <trkpt lat="45.2095" lon="0.38628">
        <ele>136</ele>
        <time>2016-01-26T13:22:55Z</time>
      </trkpt>
      <trkpt lat="45.20954" lon="0.38632">
        <ele>135</ele>
        <time>2016-01-26T13:22:59Z</time>
      </trkpt>
      <trkpt lat="45.20959" lon="0.38636">
        <ele>133</ele>
        <time>2016-01-26T13:23:04Z</time>
      </trkpt>
      <trkpt lat="45.20963" lon="0.38641">
        <ele>133</ele>
        <time>2016-01-26T13:23:08Z</time>
      </trkpt>
      <trkpt lat="45.20968" lon="0.38646">
        <ele>134</ele>
        <time>2016-01-26T13:23:13Z</time>
      </trkpt>
      <trkpt lat="45.20971" lon="0.38652">
        <ele>133</ele>
        <time>2016-01-26T13:23:17Z</time>
      </trkpt>
      <trkpt lat="45.20974" lon="0.38657">
        <ele>133</ele>
        <time>2016-01-26T13:23:21Z</time>
      </trkpt>
      <trkpt lat="45.20978" lon="0.38664">
        <ele>132</ele>
        <time>2016-01-26T13:23:26Z</time>
      </trkpt>
      <trkpt lat="45.20982" lon="0.3867">
        <ele>132</ele>
        <time>2016-01-26T13:23:30Z</time>
      </trkpt>
      <trkpt lat="45.20987" lon="0.38676">
        <ele>130</ele>
        <time>2016-01-26T13:23:35Z</time>
      </trkpt>
      <trkpt lat="45.20991" lon="0.38681">
        <ele>130</ele>
        <time>2016-01-26T13:23:39Z</time>
      </trkpt>
      <trkpt lat="45.20996" lon="0.38688">
        <ele>132</ele>
        <time>2016-01-26T13:23:44Z</time>
      </trkpt>
      <trkpt lat="45.21003" lon="0.3869">
        <ele>131</ele>
        <time>2016-01-26T13:23:49Z</time>
      </trkpt>
      <trkpt lat="45.21007" lon="0.38693">
        <ele>131</ele>
        <time>2016-01-26T13:23:53Z</time>
      </trkpt>
      <trkpt lat="45.21011" lon="0.38698">
        <ele>130</ele>
        <time>2016-01-26T13:23:57Z</time>
      </trkpt>
      <trkpt lat="45.21014" lon="0.38703">
        <ele>130</ele>
        <time>2016-01-26T13:24:01Z</time>
      </trkpt>
      <trkpt lat="45.21016" lon="0.38708">
        <ele>130</ele>
        <time>2016-01-26T13:24:05Z</time>
      </trkpt>
      <trkpt lat="45.21019" lon="0.38714">
        <ele>131</ele>
        <time>2016-01-26T13:24:10Z</time>
      </trkpt>
      <trkpt lat="45.21023" lon="0.3872">
        <ele>130</ele>
        <time>2016-01-26T13:24:14Z</time>
      </trkpt>
      <trkpt lat="45.21025" lon="0.38726">
        <ele>130</ele>
        <time>2016-01-26T13:24:18Z</time>
      </trkpt>
      <trkpt lat="45.21028" lon="0.38731">
        <ele>128</ele>
        <time>2016-01-26T13:24:23Z</time>
      </trkpt>
      <trkpt lat="45.21032" lon="0.38736">
        <ele>127</ele>
        <time>2016-01-26T13:24:27Z</time>
      </trkpt>
      <trkpt lat="45.21036" lon="0.38743">
        <ele>127</ele>
        <time>2016-01-26T13:24:32Z</time>
      </trkpt>
      <trkpt lat="45.21039" lon="0.38751">
        <ele>127</ele>
        <time>2016-01-26T13:24:37Z</time>
      </trkpt>
      <trkpt lat="45.21043" lon="0.38755">
        <ele>125</ele>
        <time>2016-01-26T13:24:41Z</time>
      </trkpt>
      <trkpt lat="45.21046" lon="0.38762">
        <ele>125</ele>
        <time>2016-01-26T13:24:46Z</time>
      </trkpt>
      <trkpt lat="45.21049" lon="0.38767">
        <ele>126</ele>
        <time>2016-01-26T13:24:50Z</time>
      </trkpt>
      <trkpt lat="45.21052" lon="0.38772">
        <ele>126</ele>
        <time>2016-01-26T13:24:54Z</time>
      </trkpt>
      <trkpt lat="45.21055" lon="0.38778">
        <ele>125</ele>
        <time>2016-01-26T13:24:58Z</time>
      </trkpt>
      <trkpt lat="45.21058" lon="0.38784">
        <ele>124</ele>
        <time>2016-01-26T13:25:02Z</time>
      </trkpt>
      <trkpt lat="45.21063" lon="0.38791">
        <ele>122</ele>
        <time>2016-01-26T13:25:07Z</time>
      </trkpt>
      <trkpt lat="45.21066" lon="0.38796">
        <ele>122</ele>
        <time>2016-01-26T13:25:11Z</time>
      </trkpt>
      <trkpt lat="45.21069" lon="0.38803">
        <ele>121</ele>
        <time>2016-01-26T13:25:15Z</time>
      </trkpt>
      <trkpt lat="45.21071" lon="0.38811">
        <ele>122</ele>
        <time>2016-01-26T13:25:20Z</time>
      </trkpt>
      <trkpt lat="45.21074" lon="0.38819">
        <ele>123</ele>
        <time>2016-01-26T13:25:25Z</time>
      </trkpt>
      <trkpt lat="45.21077" lon="0.38824">
        <ele>122</ele>
        <time>2016-01-26T13:25:29Z</time>
      </trkpt>
      <trkpt lat="45.2108" lon="0.3883">
        <ele>122</ele>
        <time>2016-01-26T13:25:33Z</time>
      </trkpt>
      <trkpt lat="45.21083" lon="0.38837">
        <ele>122</ele>
        <time>2016-01-26T13:25:38Z</time>
      </trkpt>
      <trkpt lat="45.21087" lon="0.38842">
        <ele>123</ele>
        <time>2016-01-26T13:25:42Z</time>
      </trkpt>
      <trkpt lat="45.21092" lon="0.38847">
        <ele>122</ele>
        <time>2016-01-26T13:25:47Z</time>
      </trkpt>
      <trkpt lat="45.21097" lon="0.38847">
        <ele>122</ele>
        <time>2016-01-26T13:25:51Z</time>
      </trkpt>
      <trkpt lat="45.211" lon="0.38841">
        <ele>123</ele>
        <time>2016-01-26T13:25:56Z</time>
      </trkpt>
      <trkpt lat="45.21104" lon="0.38833">
        <ele>122</ele>
        <time>2016-01-26T13:26:01Z</time>
      </trkpt>
      <trkpt lat="45.21106" lon="0.38827">
        <ele>122</ele>
        <time>2016-01-26T13:26:05Z</time>
      </trkpt>
      <trkpt lat="45.2111" lon="0.38822">
        <ele>123</ele>
        <time>2016-01-26T13:26:09Z</time>
      </trkpt>
      <trkpt lat="45.21112" lon="0.3882">
        <ele>125</ele>
        <time>2016-01-26T13:26:14Z</time>
      </trkpt>
      <trkpt lat="45.2111" lon="0.38809">
        <ele>118</ele>
        <time>2016-01-26T13:26:18Z</time>
      </trkpt>
      <trkpt lat="45.21114" lon="0.388">
        <ele>118</ele>
        <time>2016-01-26T13:26:22Z</time>
      </trkpt>
      <trkpt lat="45.21115" lon="0.38793">
        <ele>116</ele>
        <time>2016-01-26T13:26:26Z</time>
      </trkpt>
      <trkpt lat="45.21116" lon="0.38787">
        <ele>116</ele>
        <time>2016-01-26T13:26:30Z</time>
      </trkpt>
      <trkpt lat="45.21118" lon="0.38782">
        <ele>116</ele>
        <time>2016-01-26T13:26:35Z</time>
      </trkpt>
      <trkpt lat="45.21124" lon="0.38779">
        <ele>118</ele>
        <time>2016-01-26T13:26:39Z</time>
      </trkpt>
      <trkpt lat="45.21127" lon="0.38774">
        <ele>119</ele>
        <time>2016-01-26T13:26:43Z</time>
      </trkpt>
      <trkpt lat="45.21132" lon="0.38772">
        <ele>120</ele>
        <time>2016-01-26T13:26:47Z</time>
      </trkpt>
      <trkpt lat="45.21134" lon="0.38762">
        <ele>118</ele>
        <time>2016-01-26T13:26:51Z</time>
      </trkpt>
      <trkpt lat="45.2114" lon="0.38756">
        <ele>116</ele>
        <time>2016-01-26T13:26:56Z</time>
      </trkpt>
      <trkpt lat="45.21143" lon="0.3875">
        <ele>114</ele>
        <time>2016-01-26T13:27:01Z</time>
      </trkpt>
      <trkpt lat="45.21146" lon="0.38742">
        <ele>116</ele>
        <time>2016-01-26T13:27:06Z</time>
      </trkpt>
      <trkpt lat="45.2115" lon="0.38737">
        <ele>118</ele>
        <time>2016-01-26T13:27:10Z</time>
      </trkpt>
      <trkpt lat="45.21154" lon="0.38736">
        <ele>120</ele>
        <time>2016-01-26T13:27:15Z</time>
      </trkpt>
      <trkpt lat="45.21159" lon="0.38731">
        <ele>121</ele>
        <time>2016-01-26T13:27:20Z</time>
      </trkpt>
      <trkpt lat="45.21163" lon="0.38729">
        <ele>122</ele>
        <time>2016-01-26T13:27:24Z</time>
      </trkpt>
      <trkpt lat="45.21167" lon="0.38728">
        <ele>125</ele>
        <time>2016-01-26T13:27:30Z</time>
      </trkpt>
      <trkpt lat="45.21171" lon="0.38723">
        <ele>125</ele>
        <time>2016-01-26T13:27:35Z</time>
      </trkpt>
      <trkpt lat="45.21175" lon="0.3872">
        <ele>127</ele>
        <time>2016-01-26T13:27:41Z</time>
      </trkpt>
      <trkpt lat="45.21178" lon="0.38717">
        <ele>130</ele>
        <time>2016-01-26T13:27:47Z</time>
      </trkpt>
      <trkpt lat="45.21182" lon="0.38712">
        <ele>129</ele>
        <time>2016-01-26T13:27:52Z</time>
      </trkpt>
      <trkpt lat="45.21187" lon="0.38711">
        <ele>130</ele>
        <time>2016-01-26T13:27:57Z</time>
      </trkpt>
      <trkpt lat="45.2119" lon="0.38708">
        <ele>130</ele>
        <time>2016-01-26T13:28:01Z</time>
      </trkpt>
      <trkpt lat="45.21193" lon="0.38705">
        <ele>130</ele>
        <time>2016-01-26T13:28:06Z</time>
      </trkpt>
      <trkpt lat="45.21198" lon="0.38702">
        <ele>132</ele>
        <time>2016-01-26T13:28:10Z</time>
      </trkpt>
      <trkpt lat="45.21202" lon="0.387">
        <ele>133</ele>
        <time>2016-01-26T13:28:15Z</time>
      </trkpt>
      <trkpt lat="45.21205" lon="0.38697">
        <ele>135</ele>
        <time>2016-01-26T13:28:21Z</time>
      </trkpt>
      <trkpt lat="45.2121" lon="0.38692">
        <ele>132</ele>
        <time>2016-01-26T13:28:26Z</time>
      </trkpt>
      <trkpt lat="45.21213" lon="0.38688">
        <ele>132</ele>
        <time>2016-01-26T13:28:35Z</time>
      </trkpt>
      <trkpt lat="45.21218" lon="0.38682">
        <ele>133</ele>
        <time>2016-01-26T13:28:39Z</time>
      </trkpt>
      <trkpt lat="45.21221" lon="0.38678">
        <ele>137</ele>
        <time>2016-01-26T13:28:45Z</time>
      </trkpt>
      <trkpt lat="45.21225" lon="0.38676">
        <ele>138</ele>
        <time>2016-01-26T13:28:51Z</time>
      </trkpt>
      <trkpt lat="45.21229" lon="0.38673">
        <ele>139</ele>
        <time>2016-01-26T13:28:58Z</time>
      </trkpt>
      <trkpt lat="45.2123" lon="0.38672">
        <ele>142</ele>
        <time>2016-01-26T13:29:04Z</time>
      </trkpt>
      <trkpt lat="45.21234" lon="0.38667">
        <ele>142</ele>
        <time>2016-01-26T13:29:08Z</time>
      </trkpt>
      <trkpt lat="45.21237" lon="0.38664">
        <ele>143</ele>
        <time>2016-01-26T13:29:13Z</time>
      </trkpt>
      <trkpt lat="45.2124" lon="0.38661">
        <ele>144</ele>
        <time>2016-01-26T13:29:17Z</time>
      </trkpt>
      <trkpt lat="45.21243" lon="0.38658">
        <ele>145</ele>
        <time>2016-01-26T13:29:21Z</time>
      </trkpt>
      <trkpt lat="45.21247" lon="0.38653">
        <ele>146</ele>
        <time>2016-01-26T13:29:25Z</time>
      </trkpt>
      <trkpt lat="45.21251" lon="0.38651">
        <ele>147</ele>
        <time>2016-01-26T13:29:33Z</time>
      </trkpt>
      <trkpt lat="45.21254" lon="0.38648">
        <ele>147</ele>
        <time>2016-01-26T13:29:38Z</time>
      </trkpt>
      <trkpt lat="45.21258" lon="0.38645">
        <ele>147</ele>
        <time>2016-01-26T13:29:44Z</time>
      </trkpt>
      <trkpt lat="45.21263" lon="0.38642">
        <ele>148</ele>
        <time>2016-01-26T13:29:49Z</time>
      </trkpt>
      <trkpt lat="45.21266" lon="0.38638">
        <ele>148</ele>
        <time>2016-01-26T13:29:56Z</time>
      </trkpt>
      <trkpt lat="45.21269" lon="0.38636">
        <ele>150</ele>
        <time>2016-01-26T13:30:06Z</time>
      </trkpt>
      <trkpt lat="45.21272" lon="0.38631">
        <ele>152</ele>
        <time>2016-01-26T13:30:11Z</time>
      </trkpt>
      <trkpt lat="45.21277" lon="0.38627">
        <ele>153</ele>
        <time>2016-01-26T13:30:16Z</time>
      </trkpt>
      <trkpt lat="45.21281" lon="0.38625">
        <ele>157</ele>
        <time>2016-01-26T13:30:24Z</time>
      </trkpt>
      <trkpt lat="45.21284" lon="0.3862">
        <ele>157</ele>
        <time>2016-01-26T13:30:29Z</time>
      </trkpt>
      <trkpt lat="45.21287" lon="0.38617">
        <ele>159</ele>
        <time>2016-01-26T13:30:35Z</time>
      </trkpt>
      <trkpt lat="45.2129" lon="0.38613">
        <ele>162</ele>
        <time>2016-01-26T13:30:40Z</time>
      </trkpt>
      <trkpt lat="45.21294" lon="0.3861">
        <ele>163</ele>
        <time>2016-01-26T13:30:45Z</time>
      </trkpt>
      <trkpt lat="45.21297" lon="0.38609">
        <ele>162</ele>
        <time>2016-01-26T13:30:49Z</time>
      </trkpt>
      <trkpt lat="45.213" lon="0.38606">
        <ele>165</ele>
        <time>2016-01-26T13:30:55Z</time>
      </trkpt>
      <trkpt lat="45.21304" lon="0.38603">
        <ele>163</ele>
        <time>2016-01-26T13:31:00Z</time>
      </trkpt>
      <trkpt lat="45.21308" lon="0.38601">
        <ele>163</ele>
        <time>2016-01-26T13:31:05Z</time>
      </trkpt>
      <trkpt lat="45.21312" lon="0.38597">
        <ele>163</ele>
        <time>2016-01-26T13:31:11Z</time>
      </trkpt>
      <trkpt lat="45.21314" lon="0.38588">
        <ele>160</ele>
        <time>2016-01-26T13:31:15Z</time>
      </trkpt>
      <trkpt lat="45.21317" lon="0.38585">
        <ele>160</ele>
        <time>2016-01-26T13:31:21Z</time>
      </trkpt>
      <trkpt lat="45.2132" lon="0.38576">
        <ele>157</ele>
        <time>2016-01-26T13:31:25Z</time>
      </trkpt>
      <trkpt lat="45.21324" lon="0.38575">
        <ele>158</ele>
        <time>2016-01-26T13:32:40Z</time>
      </trkpt>
      <trkpt lat="45.2132" lon="0.38578">
        <ele>159</ele>
        <time>2016-01-26T13:33:01Z</time>
      </trkpt>
      <trkpt lat="45.21322" lon="0.38573">
        <ele>163</ele>
        <time>2016-01-26T13:33:32Z</time>
      </trkpt>
      <trkpt lat="45.21326" lon="0.3857">
        <ele>162</ele>
        <time>2016-01-26T13:33:38Z</time>
      </trkpt>
      <trkpt lat="45.21329" lon="0.38567">
        <ele>165</ele>
        <time>2016-01-26T13:33:46Z</time>
      </trkpt>
      <trkpt lat="45.21332" lon="0.38564">
        <ele>166</ele>
        <time>2016-01-26T13:33:54Z</time>
      </trkpt>
      <trkpt lat="45.21336" lon="0.38561">
        <ele>165</ele>
        <time>2016-01-26T13:33:58Z</time>
      </trkpt>
      <trkpt lat="45.2134" lon="0.38558">
        <ele>165</ele>
        <time>2016-01-26T13:34:02Z</time>
      </trkpt>
      <trkpt lat="45.21342" lon="0.38554">
        <ele>166</ele>
        <time>2016-01-26T13:34:13Z</time>
      </trkpt>
      <trkpt lat="45.21345" lon="0.3855">
        <ele>164</ele>
        <time>2016-01-26T13:34:18Z</time>
      </trkpt>
      <trkpt lat="45.21349" lon="0.38547">
        <ele>162</ele>
        <time>2016-01-26T13:34:24Z</time>
      </trkpt>
      <trkpt lat="45.21353" lon="0.38544">
        <ele>162</ele>
        <time>2016-01-26T13:34:32Z</time>
      </trkpt>
      <trkpt lat="45.21357" lon="0.38544">
        <ele>159</ele>
        <time>2016-01-26T13:34:43Z</time>
      </trkpt>
      <trkpt lat="45.21361" lon="0.38543">
        <ele>157</ele>
        <time>2016-01-26T13:34:47Z</time>
      </trkpt>
      <trkpt lat="45.21365" lon="0.3854">
        <ele>156</ele>
        <time>2016-01-26T13:34:52Z</time>
      </trkpt>
      <trkpt lat="45.21368" lon="0.38538">
        <ele>157</ele>
        <time>2016-01-26T13:34:57Z</time>
      </trkpt>
      <trkpt lat="45.21373" lon="0.38535">
        <ele>156</ele>
        <time>2016-01-26T13:35:02Z</time>
      </trkpt>
      <trkpt lat="45.21377" lon="0.38535">
        <ele>157</ele>
        <time>2016-01-26T13:35:06Z</time>
      </trkpt>
      <trkpt lat="45.2138" lon="0.38534">
        <ele>155</ele>
        <time>2016-01-26T13:35:11Z</time>
      </trkpt>
      <trkpt lat="45.21383" lon="0.38532">
        <ele>155</ele>
        <time>2016-01-26T13:35:18Z</time>
      </trkpt>
      <trkpt lat="45.21386" lon="0.38529">
        <ele>155</ele>
        <time>2016-01-26T13:35:25Z</time>
      </trkpt>
      <trkpt lat="45.2139" lon="0.38529">
        <ele>154</ele>
        <time>2016-01-26T13:35:30Z</time>
      </trkpt>
      <trkpt lat="45.21393" lon="0.38527">
        <ele>154</ele>
        <time>2016-01-26T13:35:35Z</time>
      </trkpt>
      <trkpt lat="45.21397" lon="0.38529">
        <ele>155</ele>
        <time>2016-01-26T13:35:39Z</time>
      </trkpt>
      <trkpt lat="45.21402" lon="0.38529">
        <ele>155</ele>
        <time>2016-01-26T13:35:44Z</time>
      </trkpt>
      <trkpt lat="45.21407" lon="0.38528">
        <ele>154</ele>
        <time>2016-01-26T13:35:48Z</time>
      </trkpt>
      <trkpt lat="45.21411" lon="0.38526">
        <ele>153</ele>
        <time>2016-01-26T13:35:54Z</time>
      </trkpt>
      <trkpt lat="45.21415" lon="0.38525">
        <ele>153</ele>
        <time>2016-01-26T13:36:01Z</time>
      </trkpt>
      <trkpt lat="45.21419" lon="0.38524">
        <ele>153</ele>
        <time>2016-01-26T13:36:07Z</time>
      </trkpt>
      <trkpt lat="45.21423" lon="0.38523">
        <ele>150</ele>
        <time>2016-01-26T13:36:11Z</time>
      </trkpt>
      <trkpt lat="45.21428" lon="0.38519">
        <ele>151</ele>
        <time>2016-01-26T13:36:16Z</time>
      </trkpt>
      <trkpt lat="45.21432" lon="0.38516">
        <ele>152</ele>
        <time>2016-01-26T13:36:20Z</time>
      </trkpt>
      <trkpt lat="45.21439" lon="0.38514">
        <ele>153</ele>
        <time>2016-01-26T13:36:25Z</time>
      </trkpt>
      <trkpt lat="45.21447" lon="0.3851">
        <ele>152</ele>
        <time>2016-01-26T13:36:30Z</time>
      </trkpt>
      <trkpt lat="45.21452" lon="0.38504">
        <ele>148</ele>
        <time>2016-01-26T13:36:34Z</time>
      </trkpt>
      <trkpt lat="45.21454" lon="0.38501">
        <ele>147</ele>
        <time>2016-01-26T13:36:39Z</time>
      </trkpt>
      <trkpt lat="45.21463" lon="0.38497">
        <ele>146</ele>
        <time>2016-01-26T13:36:43Z</time>
      </trkpt>
      <trkpt lat="45.21467" lon="0.38494">
        <ele>146</ele>
        <time>2016-01-26T13:36:47Z</time>
      </trkpt>
      <trkpt lat="45.21473" lon="0.38489">
        <ele>144</ele>
        <time>2016-01-26T13:36:51Z</time>
      </trkpt>
      <trkpt lat="45.21476" lon="0.38488">
        <ele>144</ele>
        <time>2016-01-26T13:36:55Z</time>
      </trkpt>
      <trkpt lat="45.21481" lon="0.38485">
        <ele>141</ele>
        <time>2016-01-26T13:36:59Z</time>
      </trkpt>
      <trkpt lat="45.21485" lon="0.38482">
        <ele>141</ele>
        <time>2016-01-26T13:37:04Z</time>
      </trkpt>
      <trkpt lat="45.21491" lon="0.38479">
        <ele>141</ele>
        <time>2016-01-26T13:37:09Z</time>
      </trkpt>
      <trkpt lat="45.21496" lon="0.38476">
        <ele>140</ele>
        <time>2016-01-26T13:37:14Z</time>
      </trkpt>
      <trkpt lat="45.215" lon="0.38475">
        <ele>140</ele>
        <time>2016-01-26T13:37:18Z</time>
      </trkpt>
      <trkpt lat="45.21504" lon="0.38474">
        <ele>138</ele>
        <time>2016-01-26T13:37:23Z</time>
      </trkpt>
      <trkpt lat="45.21507" lon="0.38471">
        <ele>139</ele>
        <time>2016-01-26T13:37:28Z</time>
      </trkpt>
      <trkpt lat="45.21513" lon="0.38468">
        <ele>136</ele>
        <time>2016-01-26T13:37:32Z</time>
      </trkpt>
      <trkpt lat="45.21516" lon="0.38468">
        <ele>136</ele>
        <time>2016-01-26T13:37:37Z</time>
      </trkpt>
      <trkpt lat="45.21521" lon="0.38466">
        <ele>135</ele>
        <time>2016-01-26T13:37:42Z</time>
      </trkpt>
      <trkpt lat="45.21525" lon="0.38464">
        <ele>135</ele>
        <time>2016-01-26T13:37:47Z</time>
      </trkpt>
      <trkpt lat="45.2153" lon="0.38461">
        <ele>135</ele>
        <time>2016-01-26T13:37:52Z</time>
      </trkpt>
      <trkpt lat="45.21533" lon="0.38459">
        <ele>135</ele>
        <time>2016-01-26T13:37:56Z</time>
      </trkpt>
      <trkpt lat="45.21536" lon="0.38456">
        <ele>136</ele>
        <time>2016-01-26T13:38:01Z</time>
      </trkpt>
      <trkpt lat="45.2154" lon="0.38452">
        <ele>137</ele>
        <time>2016-01-26T13:38:05Z</time>
      </trkpt>
      <trkpt lat="45.21544" lon="0.3845">
        <ele>138</ele>
        <time>2016-01-26T13:38:09Z</time>
      </trkpt>
      <trkpt lat="45.21549" lon="0.38449">
        <ele>137</ele>
        <time>2016-01-26T13:38:14Z</time>
      </trkpt>
      <trkpt lat="45.21553" lon="0.38447">
        <ele>138</ele>
        <time>2016-01-26T13:38:21Z</time>
      </trkpt>
      <trkpt lat="45.21556" lon="0.38443">
        <ele>137</ele>
        <time>2016-01-26T13:38:25Z</time>
      </trkpt>
      <trkpt lat="45.2156" lon="0.38441">
        <ele>136</ele>
        <time>2016-01-26T13:38:30Z</time>
      </trkpt>
      <trkpt lat="45.21563" lon="0.38438">
        <ele>135</ele>
        <time>2016-01-26T13:38:35Z</time>
      </trkpt>
      <trkpt lat="45.21567" lon="0.38436">
        <ele>135</ele>
        <time>2016-01-26T13:38:39Z</time>
      </trkpt>
      <trkpt lat="45.21572" lon="0.38434">
        <ele>135</ele>
        <time>2016-01-26T13:38:43Z</time>
      </trkpt>
      <trkpt lat="45.21575" lon="0.3843">
        <ele>134</ele>
        <time>2016-01-26T13:38:48Z</time>
      </trkpt>
      <trkpt lat="45.2158" lon="0.38426">
        <ele>132</ele>
        <time>2016-01-26T13:38:52Z</time>
      </trkpt>
      <trkpt lat="45.21586" lon="0.38425">
        <ele>132</ele>
        <time>2016-01-26T13:38:57Z</time>
      </trkpt>
      <trkpt lat="45.21588" lon="0.38419">
        <ele>131</ele>
        <time>2016-01-26T13:39:01Z</time>
      </trkpt>
      <trkpt lat="45.21588" lon="0.38413">
        <ele>132</ele>
        <time>2016-01-26T13:39:07Z</time>
      </trkpt>
      <trkpt lat="45.21592" lon="0.38409">
        <ele>132</ele>
        <time>2016-01-26T13:39:12Z</time>
      </trkpt>
      <trkpt lat="45.21596" lon="0.38407">
        <ele>132</ele>
        <time>2016-01-26T13:39:17Z</time>
      </trkpt>
      <trkpt lat="45.21601" lon="0.38402">
        <ele>132</ele>
        <time>2016-01-26T13:39:21Z</time>
      </trkpt>
      <trkpt lat="45.21602" lon="0.38399">
        <ele>132</ele>
        <time>2016-01-26T13:39:26Z</time>
      </trkpt>
      <trkpt lat="45.21607" lon="0.384">
        <ele>136</ele>
        <time>2016-01-26T13:39:30Z</time>
      </trkpt>
      <trkpt lat="45.21611" lon="0.38402">
        <ele>134</ele>
        <time>2016-01-26T13:39:34Z</time>
      </trkpt>
      <trkpt lat="45.21615" lon="0.38401">
        <ele>136</ele>
        <time>2016-01-26T13:39:38Z</time>
      </trkpt>
      <trkpt lat="45.21619" lon="0.38401">
        <ele>136</ele>
        <time>2016-01-26T13:39:42Z</time>
      </trkpt>
      <trkpt lat="45.21623" lon="0.38403">
        <ele>137</ele>
        <time>2016-01-26T13:39:46Z</time>
      </trkpt>
      <trkpt lat="45.21627" lon="0.38405">
        <ele>140</ele>
        <time>2016-01-26T13:39:52Z</time>
      </trkpt>
      <trkpt lat="45.21631" lon="0.38402">
        <ele>140</ele>
        <time>2016-01-26T13:39:57Z</time>
      </trkpt>
      <trkpt lat="45.21636" lon="0.38402">
        <ele>141</ele>
        <time>2016-01-26T13:40:01Z</time>
      </trkpt>
      <trkpt lat="45.21641" lon="0.38398">
        <ele>139</ele>
        <time>2016-01-26T13:40:05Z</time>
      </trkpt>
      <trkpt lat="45.21644" lon="0.38399">
        <ele>141</ele>
        <time>2016-01-26T13:40:10Z</time>
      </trkpt>
      <trkpt lat="45.2165" lon="0.38398">
        <ele>142</ele>
        <time>2016-01-26T13:40:15Z</time>
      </trkpt>
      <trkpt lat="45.21654" lon="0.38397">
        <ele>142</ele>
        <time>2016-01-26T13:40:22Z</time>
      </trkpt>
      <trkpt lat="45.21658" lon="0.38396">
        <ele>141</ele>
        <time>2016-01-26T13:40:27Z</time>
      </trkpt>
      <trkpt lat="45.21662" lon="0.38393">
        <ele>141</ele>
        <time>2016-01-26T13:40:32Z</time>
      </trkpt>
      <trkpt lat="45.21666" lon="0.38392">
        <ele>142</ele>
        <time>2016-01-26T13:40:39Z</time>
      </trkpt>
      <trkpt lat="45.2167" lon="0.3839">
        <ele>140</ele>
        <time>2016-01-26T13:40:43Z</time>
      </trkpt>
      <trkpt lat="45.21673" lon="0.38393">
        <ele>142</ele>
        <time>2016-01-26T13:40:48Z</time>
      </trkpt>
      <trkpt lat="45.21677" lon="0.38391">
        <ele>146</ele>
        <time>2016-01-26T13:40:59Z</time>
      </trkpt>
      <trkpt lat="45.21681" lon="0.3839">
        <ele>148</ele>
        <time>2016-01-26T13:41:07Z</time>
      </trkpt>
      <trkpt lat="45.21684" lon="0.38387">
        <ele>145</ele>
        <time>2016-01-26T13:41:12Z</time>
      </trkpt>
      <trkpt lat="45.21689" lon="0.38387">
        <ele>145</ele>
        <time>2016-01-26T13:41:24Z</time>
      </trkpt>
      <trkpt lat="45.21693" lon="0.38386">
        <ele>144</ele>
        <time>2016-01-26T13:41:29Z</time>
      </trkpt>
      <trkpt lat="45.21695" lon="0.38383">
        <ele>145</ele>
        <time>2016-01-26T13:41:35Z</time>
      </trkpt>
      <trkpt lat="45.21699" lon="0.38381">
        <ele>147</ele>
        <time>2016-01-26T13:41:41Z</time>
      </trkpt>
      <trkpt lat="45.21701" lon="0.3837">
        <ele>144</ele>
        <time>2016-01-26T13:41:46Z</time>
      </trkpt>
      <trkpt lat="45.21705" lon="0.38372">
        <ele>143</ele>
        <time>2016-01-26T13:41:51Z</time>
      </trkpt>
      <trkpt lat="45.21709" lon="0.38369">
        <ele>144</ele>
        <time>2016-01-26T13:41:57Z</time>
      </trkpt>
      <trkpt lat="45.21713" lon="0.38369">
        <ele>147</ele>
        <time>2016-01-26T13:42:05Z</time>
      </trkpt>
      <trkpt lat="45.21717" lon="0.38369">
        <ele>148</ele>
        <time>2016-01-26T13:42:15Z</time>
      </trkpt>
      <trkpt lat="45.2172" lon="0.38369">
        <ele>148</ele>
        <time>2016-01-26T13:42:19Z</time>
      </trkpt>
      <trkpt lat="45.21724" lon="0.3837">
        <ele>151</ele>
        <time>2016-01-26T13:42:25Z</time>
      </trkpt>
      <trkpt lat="45.21727" lon="0.38372">
        <ele>153</ele>
        <time>2016-01-26T13:42:31Z</time>
      </trkpt>
      <trkpt lat="45.21728" lon="0.38371">
        <ele>153</ele>
        <time>2016-01-26T13:42:36Z</time>
      </trkpt>
      <trkpt lat="45.2173" lon="0.38363">
        <ele>152</ele>
        <time>2016-01-26T13:42:41Z</time>
      </trkpt>
      <trkpt lat="45.21734" lon="0.38359">
        <ele>151</ele>
        <time>2016-01-26T13:42:46Z</time>
      </trkpt>
      <trkpt lat="45.21738" lon="0.38357">
        <ele>147</ele>
        <time>2016-01-26T13:42:50Z</time>
      </trkpt>
      <trkpt lat="45.21742" lon="0.38356">
        <ele>147</ele>
        <time>2016-01-26T13:42:54Z</time>
      </trkpt>
      <trkpt lat="45.21747" lon="0.38352">
        <ele>146</ele>
        <time>2016-01-26T13:42:59Z</time>
      </trkpt>
      <trkpt lat="45.21751" lon="0.38351">
        <ele>150</ele>
        <time>2016-01-26T13:43:07Z</time>
      </trkpt>
      <trkpt lat="45.21754" lon="0.38346">
        <ele>152</ele>
        <time>2016-01-26T13:43:14Z</time>
      </trkpt>
      <trkpt lat="45.21756" lon="0.38342">
        <ele>152</ele>
        <time>2016-01-26T13:43:19Z</time>
      </trkpt>
      <trkpt lat="45.21759" lon="0.38338">
        <ele>153</ele>
        <time>2016-01-26T13:43:25Z</time>
      </trkpt>
      <trkpt lat="45.21763" lon="0.38341">
        <ele>155</ele>
        <time>2016-01-26T13:43:31Z</time>
      </trkpt>
      <trkpt lat="45.21766" lon="0.38338">
        <ele>160</ele>
        <time>2016-01-26T13:43:40Z</time>
      </trkpt>
      <trkpt lat="45.21771" lon="0.38337">
        <ele>163</ele>
        <time>2016-01-26T13:43:45Z</time>
      </trkpt>
      <trkpt lat="45.21771" lon="0.38328">
        <ele>161</ele>
        <time>2016-01-26T13:43:50Z</time>
      </trkpt>
      <trkpt lat="45.21773" lon="0.38323">
        <ele>160</ele>
        <time>2016-01-26T13:43:55Z</time>
      </trkpt>
      <trkpt lat="45.21776" lon="0.38321">
        <ele>160</ele>
        <time>2016-01-26T13:44:02Z</time>
      </trkpt>
      <trkpt lat="45.21779" lon="0.38317">
        <ele>164</ele>
        <time>2016-01-26T13:44:10Z</time>
      </trkpt>
      <trkpt lat="45.21781" lon="0.38315">
        <ele>163</ele>
        <time>2016-01-26T13:44:14Z</time>
      </trkpt>
      <trkpt lat="45.21785" lon="0.38315">
        <ele>162</ele>
        <time>2016-01-26T13:46:30Z</time>
      </trkpt>
      <trkpt lat="45.21789" lon="0.38314">
        <ele>163</ele>
        <time>2016-01-26T13:46:35Z</time>
      </trkpt>
      <trkpt lat="45.21792" lon="0.3831">
        <ele>161</ele>
        <time>2016-01-26T13:46:55Z</time>
      </trkpt>
      <trkpt lat="45.21796" lon="0.38307">
        <ele>162</ele>
        <time>2016-01-26T13:47:01Z</time>
      </trkpt>
      <trkpt lat="45.21799" lon="0.38304">
        <ele>162</ele>
        <time>2016-01-26T13:47:05Z</time>
      </trkpt>
      <trkpt lat="45.21803" lon="0.38302">
        <ele>162</ele>
        <time>2016-01-26T13:47:10Z</time>
      </trkpt>
      <trkpt lat="45.21806" lon="0.383">
        <ele>164</ele>
        <time>2016-01-26T13:47:15Z</time>
      </trkpt>
      <trkpt lat="45.2181" lon="0.38296">
        <ele>165</ele>
        <time>2016-01-26T13:47:19Z</time>
      </trkpt>
      <trkpt lat="45.21814" lon="0.38291">
        <ele>165</ele>
        <time>2016-01-26T13:47:24Z</time>
      </trkpt>
      <trkpt lat="45.21821" lon="0.38281">
        <ele>164</ele>
        <time>2016-01-26T13:47:29Z</time>
      </trkpt>
      <trkpt lat="45.21827" lon="0.38273">
        <ele>165</ele>
        <time>2016-01-26T13:47:34Z</time>
      </trkpt>
      <trkpt lat="45.21831" lon="0.38267">
        <ele>164</ele>
        <time>2016-01-26T13:47:38Z</time>
      </trkpt>
      <trkpt lat="45.21835" lon="0.38261">
        <ele>165</ele>
        <time>2016-01-26T13:47:42Z</time>
      </trkpt>
      <trkpt lat="45.21837" lon="0.38253">
        <ele>165</ele>
        <time>2016-01-26T13:47:46Z</time>
      </trkpt>
      <trkpt lat="45.21841" lon="0.38244">
        <ele>163</ele>
        <time>2016-01-26T13:47:51Z</time>
      </trkpt>
      <trkpt lat="45.21844" lon="0.38239">
        <ele>164</ele>
        <time>2016-01-26T13:47:56Z</time>
      </trkpt>
      <trkpt lat="45.21847" lon="0.38234">
        <ele>165</ele>
        <time>2016-01-26T13:48:01Z</time>
      </trkpt>
      <trkpt lat="45.2185" lon="0.38227">
        <ele>165</ele>
        <time>2016-01-26T13:48:06Z</time>
      </trkpt>
      <trkpt lat="45.21853" lon="0.38222">
        <ele>167</ele>
        <time>2016-01-26T13:48:10Z</time>
      </trkpt>
      <trkpt lat="45.21855" lon="0.38216">
        <ele>169</ele>
        <time>2016-01-26T13:48:14Z</time>
      </trkpt>
      <trkpt lat="45.21861" lon="0.38216">
        <ele>169</ele>
        <time>2016-01-26T13:48:18Z</time>
      </trkpt>
      <trkpt lat="45.21861" lon="0.38222">
        <ele>166</ele>
        <time>2016-01-26T13:48:24Z</time>
      </trkpt>
      <trkpt lat="45.21859" lon="0.38228">
        <ele>166</ele>
        <time>2016-01-26T13:48:29Z</time>
      </trkpt>
      <trkpt lat="45.21859" lon="0.38236">
        <ele>165</ele>
        <time>2016-01-26T13:48:34Z</time>
      </trkpt>
      <trkpt lat="45.2186" lon="0.38243">
        <ele>164</ele>
        <time>2016-01-26T13:48:38Z</time>
      </trkpt>
      <trkpt lat="45.21862" lon="0.3825">
        <ele>164</ele>
        <time>2016-01-26T13:48:42Z</time>
      </trkpt>
      <trkpt lat="45.21864" lon="0.38256">
        <ele>163</ele>
        <time>2016-01-26T13:48:46Z</time>
      </trkpt>
      <trkpt lat="45.21867" lon="0.38262">
        <ele>163</ele>
        <time>2016-01-26T13:48:50Z</time>
      </trkpt>
      <trkpt lat="45.2187" lon="0.3827">
        <ele>163</ele>
        <time>2016-01-26T13:48:54Z</time>
      </trkpt>
      <trkpt lat="45.21875" lon="0.38276">
        <ele>162</ele>
        <time>2016-01-26T13:48:59Z</time>
      </trkpt>
      <trkpt lat="45.21879" lon="0.38281">
        <ele>160</ele>
        <time>2016-01-26T13:49:03Z</time>
      </trkpt>
      <trkpt lat="45.21882" lon="0.38285">
        <ele>161</ele>
        <time>2016-01-26T13:49:07Z</time>
      </trkpt>
      <trkpt lat="45.21887" lon="0.38291">
        <ele>161</ele>
        <time>2016-01-26T13:49:12Z</time>
      </trkpt>
      <trkpt lat="45.21892" lon="0.38297">
        <ele>163</ele>
        <time>2016-01-26T13:49:17Z</time>
      </trkpt>
      <trkpt lat="45.21897" lon="0.38303">
        <ele>165</ele>
        <time>2016-01-26T13:49:22Z</time>
      </trkpt>
      <trkpt lat="45.21901" lon="0.38307">
        <ele>164</ele>
        <time>2016-01-26T13:49:26Z</time>
      </trkpt>
      <trkpt lat="45.21905" lon="0.3831">
        <ele>163</ele>
        <time>2016-01-26T13:49:30Z</time>
      </trkpt>
      <trkpt lat="45.2191" lon="0.38316">
        <ele>162</ele>
        <time>2016-01-26T13:49:35Z</time>
      </trkpt>
      <trkpt lat="45.21915" lon="0.38319">
        <ele>161</ele>
        <time>2016-01-26T13:49:39Z</time>
      </trkpt>
      <trkpt lat="45.2192" lon="0.38325">
        <ele>159</ele>
        <time>2016-01-26T13:49:44Z</time>
      </trkpt>
      <trkpt lat="45.21924" lon="0.3833">
        <ele>159</ele>
        <time>2016-01-26T13:49:48Z</time>
      </trkpt>
      <trkpt lat="45.21928" lon="0.38334">
        <ele>161</ele>
        <time>2016-01-26T13:49:52Z</time>
      </trkpt>
      <trkpt lat="45.21931" lon="0.38338">
        <ele>161</ele>
        <time>2016-01-26T13:49:56Z</time>
      </trkpt>
      <trkpt lat="45.21937" lon="0.38345">
        <ele>162</ele>
        <time>2016-01-26T13:50:01Z</time>
      </trkpt>
      <trkpt lat="45.21942" lon="0.38348">
        <ele>159</ele>
        <time>2016-01-26T13:50:05Z</time>
      </trkpt>
      <trkpt lat="45.21945" lon="0.38353">
        <ele>157</ele>
        <time>2016-01-26T13:50:09Z</time>
      </trkpt>
      <trkpt lat="45.2195" lon="0.3836">
        <ele>159</ele>
        <time>2016-01-26T13:50:14Z</time>
      </trkpt>
      <trkpt lat="45.21953" lon="0.38367">
        <ele>159</ele>
        <time>2016-01-26T13:50:19Z</time>
      </trkpt>
      <trkpt lat="45.21956" lon="0.38372">
        <ele>158</ele>
        <time>2016-01-26T13:50:23Z</time>
      </trkpt>
      <trkpt lat="45.2196" lon="0.38378">
        <ele>158</ele>
        <time>2016-01-26T13:50:27Z</time>
      </trkpt>
      <trkpt lat="45.21963" lon="0.38386">
        <ele>159</ele>
        <time>2016-01-26T13:50:32Z</time>
      </trkpt>
      <trkpt lat="45.21965" lon="0.38391">
        <ele>159</ele>
        <time>2016-01-26T13:50:36Z</time>
      </trkpt>
      <trkpt lat="45.21968" lon="0.38397">
        <ele>159</ele>
        <time>2016-01-26T13:50:40Z</time>
      </trkpt>
      <trkpt lat="45.2197" lon="0.38404">
        <ele>159</ele>
        <time>2016-01-26T13:50:45Z</time>
      </trkpt>
      <trkpt lat="45.21972" lon="0.38411">
        <ele>161</ele>
        <time>2016-01-26T13:50:49Z</time>
      </trkpt>
      <trkpt lat="45.21975" lon="0.38418">
        <ele>160</ele>
        <time>2016-01-26T13:50:54Z</time>
      </trkpt>
      <trkpt lat="45.21978" lon="0.38424">
        <ele>158</ele>
        <time>2016-01-26T13:50:58Z</time>
      </trkpt>
      <trkpt lat="45.2198" lon="0.3843">
        <ele>159</ele>
        <time>2016-01-26T13:51:02Z</time>
      </trkpt>
      <trkpt lat="45.21983" lon="0.38438">
        <ele>159</ele>
        <time>2016-01-26T13:51:07Z</time>
      </trkpt>
      <trkpt lat="45.21986" lon="0.38446">
        <ele>158</ele>
        <time>2016-01-26T13:51:12Z</time>
      </trkpt>
      <trkpt lat="45.21988" lon="0.38451">
        <ele>158</ele>
        <time>2016-01-26T13:51:16Z</time>
      </trkpt>
      <trkpt lat="45.2199" lon="0.38458">
        <ele>158</ele>
        <time>2016-01-26T13:51:21Z</time>
      </trkpt>
      <trkpt lat="45.21993" lon="0.38464">
        <ele>159</ele>
        <time>2016-01-26T13:51:25Z</time>
      </trkpt>
      <trkpt lat="45.21996" lon="0.3847">
        <ele>159</ele>
        <time>2016-01-26T13:51:29Z</time>
      </trkpt>
      <trkpt lat="45.21999" lon="0.38476">
        <ele>161</ele>
        <time>2016-01-26T13:51:34Z</time>
      </trkpt>
      <trkpt lat="45.22003" lon="0.38481">
        <ele>160</ele>
        <time>2016-01-26T13:51:38Z</time>
      </trkpt>
      <trkpt lat="45.22006" lon="0.38486">
        <ele>158</ele>
        <time>2016-01-26T13:51:42Z</time>
      </trkpt>
      <trkpt lat="45.2201" lon="0.38493">
        <ele>159</ele>
        <time>2016-01-26T13:51:47Z</time>
      </trkpt>
      <trkpt lat="45.22014" lon="0.38498">
        <ele>158</ele>
        <time>2016-01-26T13:51:51Z</time>
      </trkpt>
      <trkpt lat="45.22017" lon="0.38504">
        <ele>160</ele>
        <time>2016-01-26T13:51:56Z</time>
      </trkpt>
      <trkpt lat="45.22021" lon="0.38508">
        <ele>159</ele>
        <time>2016-01-26T13:52:00Z</time>
      </trkpt>
      <trkpt lat="45.22023" lon="0.38516">
        <ele>161</ele>
        <time>2016-01-26T13:52:05Z</time>
      </trkpt>
      <trkpt lat="45.22027" lon="0.38522">
        <ele>158</ele>
        <time>2016-01-26T13:52:09Z</time>
      </trkpt>
      <trkpt lat="45.22031" lon="0.38527">
        <ele>158</ele>
        <time>2016-01-26T13:52:13Z</time>
      </trkpt>
      <trkpt lat="45.22035" lon="0.38534">
        <ele>158</ele>
        <time>2016-01-26T13:52:17Z</time>
      </trkpt>
      <trkpt lat="45.22037" lon="0.38538">
        <ele>159</ele>
        <time>2016-01-26T13:52:21Z</time>
      </trkpt>
      <trkpt lat="45.2204" lon="0.38545">
        <ele>158</ele>
        <time>2016-01-26T13:52:26Z</time>
      </trkpt>
      <trkpt lat="45.22044" lon="0.38549">
        <ele>156</ele>
        <time>2016-01-26T13:52:30Z</time>
      </trkpt>
      <trkpt lat="45.22047" lon="0.38557">
        <ele>157</ele>
        <time>2016-01-26T13:52:35Z</time>
      </trkpt>
      <trkpt lat="45.22049" lon="0.38562">
        <ele>156</ele>
        <time>2016-01-26T13:52:39Z</time>
      </trkpt>
      <trkpt lat="45.22052" lon="0.38569">
        <ele>155</ele>
        <time>2016-01-26T13:52:43Z</time>
      </trkpt>
      <trkpt lat="45.22054" lon="0.38576">
        <ele>155</ele>
        <time>2016-01-26T13:52:47Z</time>
      </trkpt>
      <trkpt lat="45.22057" lon="0.3858">
        <ele>153</ele>
        <time>2016-01-26T13:52:51Z</time>
      </trkpt>
      <trkpt lat="45.22059" lon="0.38587">
        <ele>152</ele>
        <time>2016-01-26T13:52:56Z</time>
      </trkpt>
      <trkpt lat="45.22062" lon="0.38594">
        <ele>153</ele>
        <time>2016-01-26T13:53:01Z</time>
      </trkpt>
      <trkpt lat="45.22065" lon="0.38599">
        <ele>156</ele>
        <time>2016-01-26T13:53:05Z</time>
      </trkpt>
      <trkpt lat="45.22068" lon="0.38604">
        <ele>153</ele>
        <time>2016-01-26T13:53:09Z</time>
      </trkpt>
      <trkpt lat="45.22074" lon="0.38609">
        <ele>151</ele>
        <time>2016-01-26T13:53:14Z</time>
      </trkpt>
      <trkpt lat="45.22079" lon="0.38613">
        <ele>148</ele>
        <time>2016-01-26T13:53:18Z</time>
      </trkpt>
      <trkpt lat="45.22082" lon="0.3862">
        <ele>143</ele>
        <time>2016-01-26T13:53:22Z</time>
      </trkpt>
      <trkpt lat="45.22085" lon="0.38626">
        <ele>142</ele>
        <time>2016-01-26T13:53:26Z</time>
      </trkpt>
      <trkpt lat="45.22089" lon="0.38632">
        <ele>147</ele>
        <time>2016-01-26T13:53:31Z</time>
      </trkpt>
      <trkpt lat="45.22093" lon="0.38637">
        <ele>145</ele>
        <time>2016-01-26T13:53:35Z</time>
      </trkpt>
      <trkpt lat="45.22098" lon="0.38644">
        <ele>144</ele>
        <time>2016-01-26T13:53:40Z</time>
      </trkpt>
      <trkpt lat="45.22099" lon="0.3865">
        <ele>144</ele>
        <time>2016-01-26T13:53:44Z</time>
      </trkpt>
      <trkpt lat="45.22101" lon="0.38658">
        <ele>145</ele>
        <time>2016-01-26T13:53:49Z</time>
      </trkpt>
      <trkpt lat="45.22102" lon="0.38664">
        <ele>146</ele>
        <time>2016-01-26T13:53:54Z</time>
      </trkpt>
      <trkpt lat="45.22104" lon="0.3867">
        <ele>146</ele>
        <time>2016-01-26T13:53:58Z</time>
      </trkpt>
      <trkpt lat="45.22104" lon="0.38677">
        <ele>148</ele>
        <time>2016-01-26T13:54:02Z</time>
      </trkpt>
      <trkpt lat="45.22102" lon="0.38683">
        <ele>148</ele>
        <time>2016-01-26T13:54:06Z</time>
      </trkpt>
      <trkpt lat="45.22102" lon="0.3869">
        <ele>146</ele>
        <time>2016-01-26T13:54:10Z</time>
      </trkpt>
      <trkpt lat="45.22103" lon="0.38697">
        <ele>147</ele>
        <time>2016-01-26T13:54:14Z</time>
      </trkpt>
      <trkpt lat="45.22103" lon="0.38703">
        <ele>148</ele>
        <time>2016-01-26T13:54:19Z</time>
      </trkpt>
      <trkpt lat="45.22102" lon="0.38712">
        <ele>149</ele>
        <time>2016-01-26T13:54:23Z</time>
      </trkpt>
      <trkpt lat="45.22103" lon="0.38717">
        <ele>147</ele>
        <time>2016-01-26T13:54:27Z</time>
      </trkpt>
      <trkpt lat="45.22103" lon="0.38727">
        <ele>149</ele>
        <time>2016-01-26T13:54:32Z</time>
      </trkpt>
      <trkpt lat="45.22104" lon="0.38735">
        <ele>149</ele>
        <time>2016-01-26T13:54:36Z</time>
      </trkpt>
      <trkpt lat="45.22104" lon="0.38745">
        <ele>149</ele>
        <time>2016-01-26T13:54:41Z</time>
      </trkpt>
      <trkpt lat="45.22107" lon="0.38754">
        <ele>148</ele>
        <time>2016-01-26T13:54:46Z</time>
      </trkpt>
      <trkpt lat="45.2211" lon="0.38758">
        <ele>148</ele>
        <time>2016-01-26T13:54:50Z</time>
      </trkpt>
      <trkpt lat="45.22108" lon="0.38771">
        <ele>152</ele>
        <time>2016-01-26T13:54:55Z</time>
      </trkpt>
      <trkpt lat="45.22108" lon="0.38778">
        <ele>157</ele>
        <time>2016-01-26T13:55:01Z</time>
      </trkpt>
      <trkpt lat="45.22107" lon="0.38783">
        <ele>158</ele>
        <time>2016-01-26T13:55:05Z</time>
      </trkpt>
      <trkpt lat="45.22112" lon="0.38793">
        <ele>155</ele>
        <time>2016-01-26T13:55:10Z</time>
      </trkpt>
      <trkpt lat="45.22111" lon="0.38801">
        <ele>153</ele>
        <time>2016-01-26T13:55:14Z</time>
      </trkpt>
      <trkpt lat="45.22112" lon="0.38811">
        <ele>152</ele>
        <time>2016-01-26T13:55:19Z</time>
      </trkpt>
      <trkpt lat="45.22111" lon="0.38817">
        <ele>151</ele>
        <time>2016-01-26T13:55:23Z</time>
      </trkpt>
      <trkpt lat="45.2211" lon="0.38828">
        <ele>148</ele>
        <time>2016-01-26T13:55:28Z</time>
      </trkpt>
      <trkpt lat="45.22109" lon="0.38836">
        <ele>149</ele>
        <time>2016-01-26T13:55:32Z</time>
      </trkpt>
      <trkpt lat="45.22108" lon="0.38843">
        <ele>151</ele>
        <time>2016-01-26T13:55:37Z</time>
      </trkpt>
      <trkpt lat="45.22109" lon="0.38851">
        <ele>149</ele>
        <time>2016-01-26T13:55:42Z</time>
      </trkpt>
      <trkpt lat="45.22106" lon="0.38861">
        <ele>150</ele>
        <time>2016-01-26T13:55:47Z</time>
      </trkpt>
      <trkpt lat="45.22107" lon="0.38868">
        <ele>149</ele>
        <time>2016-01-26T13:55:51Z</time>
      </trkpt>
      <trkpt lat="45.22107" lon="0.38876">
        <ele>148</ele>
        <time>2016-01-26T13:55:55Z</time>
      </trkpt>
      <trkpt lat="45.22106" lon="0.38885">
        <ele>148</ele>
        <time>2016-01-26T13:56:00Z</time>
      </trkpt>
      <trkpt lat="45.22106" lon="0.38893">
        <ele>146</ele>
        <time>2016-01-26T13:56:04Z</time>
      </trkpt>
      <trkpt lat="45.22107" lon="0.38899">
        <ele>146</ele>
        <time>2016-01-26T13:56:08Z</time>
      </trkpt>
      <trkpt lat="45.22109" lon="0.38909">
        <ele>145</ele>
        <time>2016-01-26T13:56:13Z</time>
      </trkpt>
      <trkpt lat="45.2211" lon="0.38916">
        <ele>146</ele>
        <time>2016-01-26T13:56:17Z</time>
      </trkpt>
      <trkpt lat="45.22112" lon="0.38924">
        <ele>146</ele>
        <time>2016-01-26T13:56:22Z</time>
      </trkpt>
      <trkpt lat="45.22112" lon="0.38934">
        <ele>147</ele>
        <time>2016-01-26T13:56:27Z</time>
      </trkpt>
      <trkpt lat="45.22114" lon="0.38943">
        <ele>145</ele>
        <time>2016-01-26T13:56:31Z</time>
      </trkpt>
      <trkpt lat="45.22117" lon="0.38952">
        <ele>145</ele>
        <time>2016-01-26T13:56:36Z</time>
      </trkpt>
      <trkpt lat="45.22121" lon="0.38957">
        <ele>145</ele>
        <time>2016-01-26T13:56:40Z</time>
      </trkpt>
      <trkpt lat="45.22124" lon="0.38965">
        <ele>146</ele>
        <time>2016-01-26T13:56:45Z</time>
      </trkpt>
      <trkpt lat="45.22128" lon="0.38972">
        <ele>144</ele>
        <time>2016-01-26T13:56:49Z</time>
      </trkpt>
      <trkpt lat="45.22131" lon="0.3898">
        <ele>145</ele>
        <time>2016-01-26T13:56:54Z</time>
      </trkpt>
      <trkpt lat="45.22135" lon="0.38987">
        <ele>145</ele>
        <time>2016-01-26T13:56:59Z</time>
      </trkpt>
      <trkpt lat="45.22137" lon="0.38993">
        <ele>144</ele>
        <time>2016-01-26T13:57:03Z</time>
      </trkpt>
      <trkpt lat="45.22142" lon="0.39">
        <ele>143</ele>
        <time>2016-01-26T13:57:07Z</time>
      </trkpt>
      <trkpt lat="45.22146" lon="0.39007">
        <ele>141</ele>
        <time>2016-01-26T13:57:12Z</time>
      </trkpt>
      <trkpt lat="45.22151" lon="0.39015">
        <ele>140</ele>
        <time>2016-01-26T13:57:17Z</time>
      </trkpt>
      <trkpt lat="45.22154" lon="0.39021">
        <ele>141</ele>
        <time>2016-01-26T13:57:21Z</time>
      </trkpt>
      <trkpt lat="45.22157" lon="0.39029">
        <ele>141</ele>
        <time>2016-01-26T13:57:26Z</time>
      </trkpt>
      <trkpt lat="45.22161" lon="0.39034">
        <ele>141</ele>
        <time>2016-01-26T13:57:30Z</time>
      </trkpt>
      <trkpt lat="45.22164" lon="0.39039">
        <ele>141</ele>
        <time>2016-01-26T13:57:34Z</time>
      </trkpt>
      <trkpt lat="45.22168" lon="0.39046">
        <ele>140</ele>
        <time>2016-01-26T13:57:39Z</time>
      </trkpt>
      <trkpt lat="45.22173" lon="0.39051">
        <ele>140</ele>
        <time>2016-01-26T13:57:43Z</time>
      </trkpt>
      <trkpt lat="45.22176" lon="0.39057">
        <ele>140</ele>
        <time>2016-01-26T13:57:47Z</time>
      </trkpt>
      <trkpt lat="45.22179" lon="0.39067">
        <ele>141</ele>
        <time>2016-01-26T13:57:52Z</time>
      </trkpt>
      <trkpt lat="45.22183" lon="0.39074">
        <ele>141</ele>
        <time>2016-01-26T13:57:57Z</time>
      </trkpt>
      <trkpt lat="45.22186" lon="0.3908">
        <ele>144</ele>
        <time>2016-01-26T13:58:01Z</time>
      </trkpt>
      <trkpt lat="45.2219" lon="0.39087">
        <ele>145</ele>
        <time>2016-01-26T13:58:06Z</time>
      </trkpt>
      <trkpt lat="45.22193" lon="0.39093">
        <ele>146</ele>
        <time>2016-01-26T13:58:10Z</time>
      </trkpt>
      <trkpt lat="45.22198" lon="0.39102">
        <ele>146</ele>
        <time>2016-01-26T13:58:15Z</time>
      </trkpt>
      <trkpt lat="45.22202" lon="0.39109">
        <ele>145</ele>
        <time>2016-01-26T13:58:19Z</time>
      </trkpt>
      <trkpt lat="45.22204" lon="0.39115">
        <ele>148</ele>
        <time>2016-01-26T13:58:25Z</time>
      </trkpt>
      <trkpt lat="45.22207" lon="0.39121">
        <ele>148</ele>
        <time>2016-01-26T13:58:29Z</time>
      </trkpt>
      <trkpt lat="45.22216" lon="0.39125">
        <ele>144</ele>
        <time>2016-01-26T13:58:34Z</time>
      </trkpt>
      <trkpt lat="45.22219" lon="0.39132">
        <ele>146</ele>
        <time>2016-01-26T13:58:38Z</time>
      </trkpt>
      <trkpt lat="45.22223" lon="0.39138">
        <ele>147</ele>
        <time>2016-01-26T13:58:42Z</time>
      </trkpt>
      <trkpt lat="45.22226" lon="0.39144">
        <ele>147</ele>
        <time>2016-01-26T13:58:46Z</time>
      </trkpt>
      <trkpt lat="45.22231" lon="0.39151">
        <ele>146</ele>
        <time>2016-01-26T13:58:51Z</time>
      </trkpt>
      <trkpt lat="45.22235" lon="0.39157">
        <ele>143</ele>
        <time>2016-01-26T13:58:55Z</time>
      </trkpt>
      <trkpt lat="45.22239" lon="0.39161">
        <ele>142</ele>
        <time>2016-01-26T13:59:00Z</time>
      </trkpt>
      <trkpt lat="45.22245" lon="0.39169">
        <ele>141</ele>
        <time>2016-01-26T13:59:05Z</time>
      </trkpt>
      <trkpt lat="45.2225" lon="0.39174">
        <ele>142</ele>
        <time>2016-01-26T13:59:09Z</time>
      </trkpt>
      <trkpt lat="45.22255" lon="0.39181">
        <ele>141</ele>
        <time>2016-01-26T13:59:14Z</time>
      </trkpt>
      <trkpt lat="45.22259" lon="0.39186">
        <ele>140</ele>
        <time>2016-01-26T13:59:18Z</time>
      </trkpt>
      <trkpt lat="45.22264" lon="0.39192">
        <ele>138</ele>
        <time>2016-01-26T13:59:23Z</time>
      </trkpt>
      <trkpt lat="45.22269" lon="0.39196">
        <ele>138</ele>
        <time>2016-01-26T13:59:27Z</time>
      </trkpt>
      <trkpt lat="45.22276" lon="0.392">
        <ele>136</ele>
        <time>2016-01-26T13:59:32Z</time>
      </trkpt>
      <trkpt lat="45.22281" lon="0.39204">
        <ele>136</ele>
        <time>2016-01-26T13:59:37Z</time>
      </trkpt>
      <trkpt lat="45.22286" lon="0.39209">
        <ele>136</ele>
        <time>2016-01-26T13:59:41Z</time>
      </trkpt>
      <trkpt lat="45.22292" lon="0.39214">
        <ele>136</ele>
        <time>2016-01-26T13:59:46Z</time>
      </trkpt>
      <trkpt lat="45.22296" lon="0.39218">
        <ele>136</ele>
        <time>2016-01-26T13:59:50Z</time>
      </trkpt>
      <trkpt lat="45.22301" lon="0.39223">
        <ele>137</ele>
        <time>2016-01-26T13:59:55Z</time>
      </trkpt>
      <trkpt lat="45.22306" lon="0.39226">
        <ele>137</ele>
        <time>2016-01-26T13:59:59Z</time>
      </trkpt>
      <trkpt lat="45.2231" lon="0.39231">
        <ele>138</ele>
        <time>2016-01-26T14:00:03Z</time>
      </trkpt>
      <trkpt lat="45.22316" lon="0.39234">
        <ele>138</ele>
        <time>2016-01-26T14:00:08Z</time>
      </trkpt>
      <trkpt lat="45.22323" lon="0.39237">
        <ele>137</ele>
        <time>2016-01-26T14:00:13Z</time>
      </trkpt>
      <trkpt lat="45.22328" lon="0.39239">
        <ele>137</ele>
        <time>2016-01-26T14:00:17Z</time>
      </trkpt>
      <trkpt lat="45.22333" lon="0.39246">
        <ele>140</ele>
        <time>2016-01-26T14:00:21Z</time>
      </trkpt>
      <trkpt lat="45.22339" lon="0.39245">
        <ele>138</ele>
        <time>2016-01-26T14:00:25Z</time>
      </trkpt>
      <trkpt lat="45.22345" lon="0.39244">
        <ele>137</ele>
        <time>2016-01-26T14:00:29Z</time>
      </trkpt>
      <trkpt lat="45.22351" lon="0.39244">
        <ele>136</ele>
        <time>2016-01-26T14:00:34Z</time>
      </trkpt>
      <trkpt lat="45.22356" lon="0.39244">
        <ele>135</ele>
        <time>2016-01-26T14:00:38Z</time>
      </trkpt>
      <trkpt lat="45.22363" lon="0.39242">
        <ele>136</ele>
        <time>2016-01-26T14:00:43Z</time>
      </trkpt>
      <trkpt lat="45.22368" lon="0.39242">
        <ele>137</ele>
        <time>2016-01-26T14:00:47Z</time>
      </trkpt>
      <trkpt lat="45.22373" lon="0.39241">
        <ele>137</ele>
        <time>2016-01-26T14:00:51Z</time>
      </trkpt>
      <trkpt lat="45.22379" lon="0.39241">
        <ele>137</ele>
        <time>2016-01-26T14:00:56Z</time>
      </trkpt>
      <trkpt lat="45.22384" lon="0.3924">
        <ele>137</ele>
        <time>2016-01-26T14:01:01Z</time>
      </trkpt>
      <trkpt lat="45.22388" lon="0.3924">
        <ele>138</ele>
        <time>2016-01-26T14:01:05Z</time>
      </trkpt>
      <trkpt lat="45.22393" lon="0.3924">
        <ele>138</ele>
        <time>2016-01-26T14:01:09Z</time>
      </trkpt>
      <trkpt lat="45.22398" lon="0.39239">
        <ele>135</ele>
        <time>2016-01-26T14:01:13Z</time>
      </trkpt>
      <trkpt lat="45.22403" lon="0.39236">
        <ele>133</ele>
        <time>2016-01-26T14:01:18Z</time>
      </trkpt>
      <trkpt lat="45.2241" lon="0.39239">
        <ele>132</ele>
        <time>2016-01-26T14:01:22Z</time>
      </trkpt>
      <trkpt lat="45.22414" lon="0.3924">
        <ele>133</ele>
        <time>2016-01-26T14:01:26Z</time>
      </trkpt>
      <trkpt lat="45.22418" lon="0.39244">
        <ele>134</ele>
        <time>2016-01-26T14:01:31Z</time>
      </trkpt>
      <trkpt lat="45.22422" lon="0.3925">
        <ele>136</ele>
        <time>2016-01-26T14:01:35Z</time>
      </trkpt>
      <trkpt lat="45.22429" lon="0.39256">
        <ele>136</ele>
        <time>2016-01-26T14:01:40Z</time>
      </trkpt>
      <trkpt lat="45.22434" lon="0.39261">
        <ele>136</ele>
        <time>2016-01-26T14:01:45Z</time>
      </trkpt>
      <trkpt lat="45.22437" lon="0.39269">
        <ele>137</ele>
        <time>2016-01-26T14:01:49Z</time>
      </trkpt>
      <trkpt lat="45.2244" lon="0.39272">
        <ele>136</ele>
        <time>2016-01-26T14:01:53Z</time>
      </trkpt>
      <trkpt lat="45.22444" lon="0.39277">
        <ele>135</ele>
        <time>2016-01-26T14:01:57Z</time>
      </trkpt>
      <trkpt lat="45.22448" lon="0.39282">
        <ele>134</ele>
        <time>2016-01-26T14:02:02Z</time>
      </trkpt>
      <trkpt lat="45.22454" lon="0.39287">
        <ele>130</ele>
        <time>2016-01-26T14:02:07Z</time>
      </trkpt>
      <trkpt lat="45.22459" lon="0.39291">
        <ele>130</ele>
        <time>2016-01-26T14:02:11Z</time>
      </trkpt>
      <trkpt lat="45.22464" lon="0.39295">
        <ele>130</ele>
        <time>2016-01-26T14:02:16Z</time>
      </trkpt>
      <trkpt lat="45.22468" lon="0.39297">
        <ele>129</ele>
        <time>2016-01-26T14:02:20Z</time>
      </trkpt>
      <trkpt lat="45.22474" lon="0.39299">
        <ele>127</ele>
        <time>2016-01-26T14:02:24Z</time>
      </trkpt>
      <trkpt lat="45.22481" lon="0.39303">
        <ele>126</ele>
        <time>2016-01-26T14:02:29Z</time>
      </trkpt>
      <trkpt lat="45.22486" lon="0.39303">
        <ele>124</ele>
        <time>2016-01-26T14:02:33Z</time>
      </trkpt>
      <trkpt lat="45.22491" lon="0.39304">
        <ele>128</ele>
        <time>2016-01-26T14:02:38Z</time>
      </trkpt>
      <trkpt lat="45.22495" lon="0.39308">
        <ele>125</ele>
        <time>2016-01-26T14:02:43Z</time>
      </trkpt>
      <trkpt lat="45.225" lon="0.39311">
        <ele>125</ele>
        <time>2016-01-26T14:02:48Z</time>
      </trkpt>
      <trkpt lat="45.22505" lon="0.39313">
        <ele>124</ele>
        <time>2016-01-26T14:02:52Z</time>
      </trkpt>
      <trkpt lat="45.22509" lon="0.39315">
        <ele>127</ele>
        <time>2016-01-26T14:02:57Z</time>
      </trkpt>
      <trkpt lat="45.22515" lon="0.39317">
        <ele>127</ele>
        <time>2016-01-26T14:03:01Z</time>
      </trkpt>
      <trkpt lat="45.22519" lon="0.39323">
        <ele>125</ele>
        <time>2016-01-26T14:03:05Z</time>
      </trkpt>
      <trkpt lat="45.22524" lon="0.39329">
        <ele>124</ele>
        <time>2016-01-26T14:03:09Z</time>
      </trkpt>
      <trkpt lat="45.2253" lon="0.39335">
        <ele>123</ele>
        <time>2016-01-26T14:03:14Z</time>
      </trkpt>
      <trkpt lat="45.22535" lon="0.39341">
        <ele>126</ele>
        <time>2016-01-26T14:03:19Z</time>
      </trkpt>
      <trkpt lat="45.22538" lon="0.39344">
        <ele>129</ele>
        <time>2016-01-26T14:03:23Z</time>
      </trkpt>
      <trkpt lat="45.22543" lon="0.39349">
        <ele>128</ele>
        <time>2016-01-26T14:03:27Z</time>
      </trkpt>
      <trkpt lat="45.22549" lon="0.39355">
        <ele>126</ele>
        <time>2016-01-26T14:03:32Z</time>
      </trkpt>
      <trkpt lat="45.22556" lon="0.39356">
        <ele>124</ele>
        <time>2016-01-26T14:03:36Z</time>
      </trkpt>
      <trkpt lat="45.22567" lon="0.39358">
        <ele>118</ele>
        <time>2016-01-26T14:03:41Z</time>
      </trkpt>
      <trkpt lat="45.22575" lon="0.3936">
        <ele>112</ele>
        <time>2016-01-26T14:03:46Z</time>
      </trkpt>
      <trkpt lat="45.2258" lon="0.39364">
        <ele>110</ele>
        <time>2016-01-26T14:03:50Z</time>
      </trkpt>
      <trkpt lat="45.22587" lon="0.39369">
        <ele>107</ele>
        <time>2016-01-26T14:03:54Z</time>
      </trkpt>
      <trkpt lat="45.22591" lon="0.39374">
        <ele>106</ele>
        <time>2016-01-26T14:03:59Z</time>
      </trkpt>
      <trkpt lat="45.22597" lon="0.39376">
        <ele>106</ele>
        <time>2016-01-26T14:04:04Z</time>
      </trkpt>
      <trkpt lat="45.22602" lon="0.39379">
        <ele>106</ele>
        <time>2016-01-26T14:04:09Z</time>
      </trkpt>
      <trkpt lat="45.22606" lon="0.39382">
        <ele>106</ele>
        <time>2016-01-26T14:04:14Z</time>
      </trkpt>
      <trkpt lat="45.22611" lon="0.39386">
        <ele>107</ele>
        <time>2016-01-26T14:04:19Z</time>
      </trkpt>
      <trkpt lat="45.22617" lon="0.3939">
        <ele>104</ele>
        <time>2016-01-26T14:04:23Z</time>
      </trkpt>
      <trkpt lat="45.22621" lon="0.39395">
        <ele>105</ele>
        <time>2016-01-26T14:04:28Z</time>
      </trkpt>
      <trkpt lat="45.22624" lon="0.39401">
        <ele>109</ele>
        <time>2016-01-26T14:04:33Z</time>
      </trkpt>
      <trkpt lat="45.22627" lon="0.39406">
        <ele>110</ele>
        <time>2016-01-26T14:04:37Z</time>
      </trkpt>
      <trkpt lat="45.22628" lon="0.39413">
        <ele>112</ele>
        <time>2016-01-26T14:04:41Z</time>
      </trkpt>
      <trkpt lat="45.2263" lon="0.39421">
        <ele>115</ele>
        <time>2016-01-26T14:04:46Z</time>
      </trkpt>
      <trkpt lat="45.22631" lon="0.39434">
        <ele>115</ele>
        <time>2016-01-26T14:04:51Z</time>
      </trkpt>
      <trkpt lat="45.22631" lon="0.39442">
        <ele>115</ele>
        <time>2016-01-26T14:04:55Z</time>
      </trkpt>
      <trkpt lat="45.22634" lon="0.39454">
        <ele>116</ele>
        <time>2016-01-26T14:05:00Z</time>
      </trkpt>
      <trkpt lat="45.22635" lon="0.39463">
        <ele>116</ele>
        <time>2016-01-26T14:05:05Z</time>
      </trkpt>
      <trkpt lat="45.22638" lon="0.39475">
        <ele>117</ele>
        <time>2016-01-26T14:05:10Z</time>
      </trkpt>
      <trkpt lat="45.22642" lon="0.39481">
        <ele>113</ele>
        <time>2016-01-26T14:05:14Z</time>
      </trkpt>
      <trkpt lat="45.22646" lon="0.39484">
        <ele>110</ele>
        <time>2016-01-26T14:05:18Z</time>
      </trkpt>
      <trkpt lat="45.2265" lon="0.3949">
        <ele>109</ele>
        <time>2016-01-26T14:05:23Z</time>
      </trkpt>
      <trkpt lat="45.22653" lon="0.39497">
        <ele>112</ele>
        <time>2016-01-26T14:05:27Z</time>
      </trkpt>
      <trkpt lat="45.22654" lon="0.39503">
        <ele>111</ele>
        <time>2016-01-26T14:05:32Z</time>
      </trkpt>
      <trkpt lat="45.22655" lon="0.39509">
        <ele>112</ele>
        <time>2016-01-26T14:05:36Z</time>
      </trkpt>
      <trkpt lat="45.22657" lon="0.39516">
        <ele>110</ele>
        <time>2016-01-26T14:05:40Z</time>
      </trkpt>
      <trkpt lat="45.2266" lon="0.39524">
        <ele>109</ele>
        <time>2016-01-26T14:05:45Z</time>
      </trkpt>
      <trkpt lat="45.22663" lon="0.39531">
        <ele>109</ele>
        <time>2016-01-26T14:05:50Z</time>
      </trkpt>
      <trkpt lat="45.22667" lon="0.39541">
        <ele>109</ele>
        <time>2016-01-26T14:05:55Z</time>
      </trkpt>
      <trkpt lat="45.2267" lon="0.39546">
        <ele>108</ele>
        <time>2016-01-26T14:05:59Z</time>
      </trkpt>
      <trkpt lat="45.22672" lon="0.39554">
        <ele>106</ele>
        <time>2016-01-26T14:06:04Z</time>
      </trkpt>
      <trkpt lat="45.22675" lon="0.39562">
        <ele>106</ele>
        <time>2016-01-26T14:06:09Z</time>
      </trkpt>
      <trkpt lat="45.22677" lon="0.39567">
        <ele>108</ele>
        <time>2016-01-26T14:06:13Z</time>
      </trkpt>
      <trkpt lat="45.22681" lon="0.39574">
        <ele>107</ele>
        <time>2016-01-26T14:06:18Z</time>
      </trkpt>
      <trkpt lat="45.22684" lon="0.39579">
        <ele>108</ele>
        <time>2016-01-26T14:06:22Z</time>
      </trkpt>
      <trkpt lat="45.22686" lon="0.39582">
        <ele>109</ele>
        <time>2016-01-26T14:06:27Z</time>
      </trkpt>
      <trkpt lat="45.22694" lon="0.39582">
        <ele>101</ele>
        <time>2016-01-26T14:06:31Z</time>
      </trkpt>
      <trkpt lat="45.22696" lon="0.39591">
        <ele>99</ele>
        <time>2016-01-26T14:06:35Z</time>
      </trkpt>
      <trkpt lat="45.22696" lon="0.39599">
        <ele>99</ele>
        <time>2016-01-26T14:06:39Z</time>
      </trkpt>
      <trkpt lat="45.22699" lon="0.39605">
        <ele>97</ele>
        <time>2016-01-26T14:06:43Z</time>
      </trkpt>
      <trkpt lat="45.22699" lon="0.39613">
        <ele>96</ele>
        <time>2016-01-26T14:06:48Z</time>
      </trkpt>
      <trkpt lat="45.22699" lon="0.39619">
        <ele>95</ele>
        <time>2016-01-26T14:06:56Z</time>
      </trkpt>
      <trkpt lat="45.22702" lon="0.39613">
        <ele>92</ele>
        <time>2016-01-26T14:07:30Z</time>
      </trkpt>
      <trkpt lat="45.22704" lon="0.39609">
        <ele>91</ele>
        <time>2016-01-26T14:07:43Z</time>
      </trkpt>
      <trkpt lat="45.22705" lon="0.39604">
        <ele>90</ele>
        <time>2016-01-26T14:07:48Z</time>
      </trkpt>
      <trkpt lat="45.22707" lon="0.39599">
        <ele>89</ele>
        <time>2016-01-26T14:08:21Z</time>
      </trkpt>
      <trkpt lat="45.22703" lon="0.39595">
        <ele>86</ele>
        <time>2016-01-26T14:08:34Z</time>
      </trkpt>
      <trkpt lat="45.22699" lon="0.39594">
        <ele>91</ele>
        <time>2016-01-26T14:10:25Z</time>
      </trkpt>
      <trkpt lat="45.22695" lon="0.39594">
        <ele>95</ele>
        <time>2016-01-26T14:10:31Z</time>
      </trkpt>
      <trkpt lat="45.22691" lon="0.39595">
        <ele>94</ele>
        <time>2016-01-26T14:10:36Z</time>
      </trkpt>
      <trkpt lat="45.22687" lon="0.39597">
        <ele>94</ele>
        <time>2016-01-26T14:10:41Z</time>
      </trkpt>
      <trkpt lat="45.22685" lon="0.39601">
        <ele>94</ele>
        <time>2016-01-26T14:10:45Z</time>
      </trkpt>
      <trkpt lat="45.2268" lon="0.39603">
        <ele>94</ele>
        <time>2016-01-26T14:10:49Z</time>
      </trkpt>
      <trkpt lat="45.22676" lon="0.39604">
        <ele>95</ele>
        <time>2016-01-26T14:10:55Z</time>
      </trkpt>
      <trkpt lat="45.22672" lon="0.39607">
        <ele>96</ele>
        <time>2016-01-26T14:11:02Z</time>
      </trkpt>
      <trkpt lat="45.22668" lon="0.39608">
        <ele>97</ele>
        <time>2016-01-26T14:11:07Z</time>
      </trkpt>
      <trkpt lat="45.22664" lon="0.39609">
        <ele>98</ele>
        <time>2016-01-26T14:11:13Z</time>
      </trkpt>
      <trkpt lat="45.22659" lon="0.39614">
        <ele>99</ele>
        <time>2016-01-26T14:11:18Z</time>
      </trkpt>
      <trkpt lat="45.22654" lon="0.39616">
        <ele>98</ele>
        <time>2016-01-26T14:11:22Z</time>
      </trkpt>
      <trkpt lat="45.2265" lon="0.39619">
        <ele>98</ele>
        <time>2016-01-26T14:11:26Z</time>
      </trkpt>
      <trkpt lat="45.22644" lon="0.39621">
        <ele>96</ele>
        <time>2016-01-26T14:11:30Z</time>
      </trkpt>
      <trkpt lat="45.22639" lon="0.39624">
        <ele>96</ele>
        <time>2016-01-26T14:11:35Z</time>
      </trkpt>
      <trkpt lat="45.22636" lon="0.3963">
        <ele>96</ele>
        <time>2016-01-26T14:11:39Z</time>
      </trkpt>
      <trkpt lat="45.22631" lon="0.39633">
        <ele>95</ele>
        <time>2016-01-26T14:11:43Z</time>
      </trkpt>
      <trkpt lat="45.22627" lon="0.39634">
        <ele>95</ele>
        <time>2016-01-26T14:11:48Z</time>
      </trkpt>
      <trkpt lat="45.22623" lon="0.39636">
        <ele>97</ele>
        <time>2016-01-26T14:11:53Z</time>
      </trkpt>
      <trkpt lat="45.22617" lon="0.39638">
        <ele>98</ele>
        <time>2016-01-26T14:11:58Z</time>
      </trkpt>
      <trkpt lat="45.22611" lon="0.3964">
        <ele>99</ele>
        <time>2016-01-26T14:12:02Z</time>
      </trkpt>
      <trkpt lat="45.22608" lon="0.39643">
        <ele>101</ele>
        <time>2016-01-26T14:12:06Z</time>
      </trkpt>
      <trkpt lat="45.22601" lon="0.39644">
        <ele>98</ele>
        <time>2016-01-26T14:12:10Z</time>
      </trkpt>
      <trkpt lat="45.22597" lon="0.39646">
        <ele>98</ele>
        <time>2016-01-26T14:12:14Z</time>
      </trkpt>
      <trkpt lat="45.22591" lon="0.39651">
        <ele>97</ele>
        <time>2016-01-26T14:12:19Z</time>
      </trkpt>
      <trkpt lat="45.22588" lon="0.39657">
        <ele>95</ele>
        <time>2016-01-26T14:12:24Z</time>
      </trkpt>
      <trkpt lat="45.22585" lon="0.39659">
        <ele>96</ele>
        <time>2016-01-26T14:12:28Z</time>
      </trkpt>
      <trkpt lat="45.2258" lon="0.39665">
        <ele>95</ele>
        <time>2016-01-26T14:12:33Z</time>
      </trkpt>
      <trkpt lat="45.22576" lon="0.39666">
        <ele>95</ele>
        <time>2016-01-26T14:12:38Z</time>
      </trkpt>
      <trkpt lat="45.22572" lon="0.39668">
        <ele>95</ele>
        <time>2016-01-26T14:12:42Z</time>
      </trkpt>
      <trkpt lat="45.22567" lon="0.3967">
        <ele>94</ele>
        <time>2016-01-26T14:12:47Z</time>
      </trkpt>
      <trkpt lat="45.22563" lon="0.39672">
        <ele>97</ele>
        <time>2016-01-26T14:12:52Z</time>
      </trkpt>
      <trkpt lat="45.22558" lon="0.39674">
        <ele>98</ele>
        <time>2016-01-26T14:12:56Z</time>
      </trkpt>
      <trkpt lat="45.22553" lon="0.39676">
        <ele>97</ele>
        <time>2016-01-26T14:13:01Z</time>
      </trkpt>
      <trkpt lat="45.22548" lon="0.39677">
        <ele>99</ele>
        <time>2016-01-26T14:13:05Z</time>
      </trkpt>
      <trkpt lat="45.22546" lon="0.39678">
        <ele>99</ele>
        <time>2016-01-26T14:13:09Z</time>
      </trkpt>
      <trkpt lat="45.22542" lon="0.3968">
        <ele>99</ele>
        <time>2016-01-26T14:13:13Z</time>
      </trkpt>
      <trkpt lat="45.22536" lon="0.39681">
        <ele>98</ele>
        <time>2016-01-26T14:13:18Z</time>
      </trkpt>
      <trkpt lat="45.22532" lon="0.3968">
        <ele>97</ele>
        <time>2016-01-26T14:13:23Z</time>
      </trkpt>
      <trkpt lat="45.22525" lon="0.3968">
        <ele>96</ele>
        <time>2016-01-26T14:13:28Z</time>
      </trkpt>
      <trkpt lat="45.2252" lon="0.3968">
        <ele>97</ele>
        <time>2016-01-26T14:13:32Z</time>
      </trkpt>
      <trkpt lat="45.22516" lon="0.3968">
        <ele>95</ele>
        <time>2016-01-26T14:13:39Z</time>
      </trkpt>
      <trkpt lat="45.22508" lon="0.39678">
        <ele>96</ele>
        <time>2016-01-26T14:13:44Z</time>
      </trkpt>
      <trkpt lat="45.22502" lon="0.39678">
        <ele>95</ele>
        <time>2016-01-26T14:13:49Z</time>
      </trkpt>
      <trkpt lat="45.22494" lon="0.39679">
        <ele>94</ele>
        <time>2016-01-26T14:13:53Z</time>
      </trkpt>
      <trkpt lat="45.22489" lon="0.39677">
        <ele>94</ele>
        <time>2016-01-26T14:13:57Z</time>
      </trkpt>
      <trkpt lat="45.22485" lon="0.39677">
        <ele>96</ele>
        <time>2016-01-26T14:14:01Z</time>
      </trkpt>
      <trkpt lat="45.22477" lon="0.39677">
        <ele>93</ele>
        <time>2016-01-26T14:14:06Z</time>
      </trkpt>
      <trkpt lat="45.22474" lon="0.39674">
        <ele>94</ele>
        <time>2016-01-26T14:14:10Z</time>
      </trkpt>
      <trkpt lat="45.2247" lon="0.39672">
        <ele>93</ele>
        <time>2016-01-26T14:14:14Z</time>
      </trkpt>
      <trkpt lat="45.22467" lon="0.39669">
        <ele>93</ele>
        <time>2016-01-26T14:14:18Z</time>
      </trkpt>
      <trkpt lat="45.22462" lon="0.39668">
        <ele>91</ele>
        <time>2016-01-26T14:14:22Z</time>
      </trkpt>
      <trkpt lat="45.22459" lon="0.39665">
        <ele>91</ele>
        <time>2016-01-26T14:14:26Z</time>
      </trkpt>
      <trkpt lat="45.22455" lon="0.39662">
        <ele>92</ele>
        <time>2016-01-26T14:14:31Z</time>
      </trkpt>
      <trkpt lat="45.22451" lon="0.39659">
        <ele>93</ele>
        <time>2016-01-26T14:14:35Z</time>
      </trkpt>
      <trkpt lat="45.22447" lon="0.39656">
        <ele>93</ele>
        <time>2016-01-26T14:14:40Z</time>
      </trkpt>
      <trkpt lat="45.22443" lon="0.39654">
        <ele>93</ele>
        <time>2016-01-26T14:14:45Z</time>
      </trkpt>
      <trkpt lat="45.22438" lon="0.39653">
        <ele>94</ele>
        <time>2016-01-26T14:14:50Z</time>
      </trkpt>
      <trkpt lat="45.22432" lon="0.39651">
        <ele>95</ele>
        <time>2016-01-26T14:14:55Z</time>
      </trkpt>
      <trkpt lat="45.22428" lon="0.3965">
        <ele>95</ele>
        <time>2016-01-26T14:14:59Z</time>
      </trkpt>
      <trkpt lat="45.22424" lon="0.39649">
        <ele>92</ele>
        <time>2016-01-26T14:15:04Z</time>
      </trkpt>
      <trkpt lat="45.2242" lon="0.39647">
        <ele>93</ele>
        <time>2016-01-26T14:15:08Z</time>
      </trkpt>
      <trkpt lat="45.22416" lon="0.39645">
        <ele>94</ele>
        <time>2016-01-26T14:15:13Z</time>
      </trkpt>
      <trkpt lat="45.22411" lon="0.39645">
        <ele>95</ele>
        <time>2016-01-26T14:15:17Z</time>
      </trkpt>
      <trkpt lat="45.22405" lon="0.39643">
        <ele>95</ele>
        <time>2016-01-26T14:15:21Z</time>
      </trkpt>
      <trkpt lat="45.22401" lon="0.39642">
        <ele>96</ele>
        <time>2016-01-26T14:15:26Z</time>
      </trkpt>
      <trkpt lat="45.22398" lon="0.3964">
        <ele>98</ele>
        <time>2016-01-26T14:15:32Z</time>
      </trkpt>
      <trkpt lat="45.22392" lon="0.39638">
        <ele>95</ele>
        <time>2016-01-26T14:15:37Z</time>
      </trkpt>
      <trkpt lat="45.22385" lon="0.3964">
        <ele>90</ele>
        <time>2016-01-26T14:15:41Z</time>
      </trkpt>
      <trkpt lat="45.2238" lon="0.39642">
        <ele>93</ele>
        <time>2016-01-26T14:16:19Z</time>
      </trkpt>
      <trkpt lat="45.22378" lon="0.39647">
        <ele>94</ele>
        <time>2016-01-26T14:16:45Z</time>
      </trkpt>
      <trkpt lat="45.22382" lon="0.3965">
        <ele>92</ele>
        <time>2016-01-26T14:17:12Z</time>
      </trkpt>
      <trkpt lat="45.22379" lon="0.39654">
        <ele>94</ele>
        <time>2016-01-26T14:17:37Z</time>
      </trkpt>
      <trkpt lat="45.22377" lon="0.39658">
        <ele>93</ele>
        <time>2016-01-26T14:17:42Z</time>
      </trkpt>
      <trkpt lat="45.22375" lon="0.39662">
        <ele>92</ele>
        <time>2016-01-26T14:18:05Z</time>
      </trkpt>
      <trkpt lat="45.22371" lon="0.39665">
        <ele>92</ele>
        <time>2016-01-26T14:18:23Z</time>
      </trkpt>
      <trkpt lat="45.22369" lon="0.39669">
        <ele>91</ele>
        <time>2016-01-26T14:18:29Z</time>
      </trkpt>
      <trkpt lat="45.22366" lon="0.39678">
        <ele>93</ele>
        <time>2016-01-26T14:18:34Z</time>
      </trkpt>
      <trkpt lat="45.22362" lon="0.39681">
        <ele>97</ele>
        <time>2016-01-26T14:18:38Z</time>
      </trkpt>
      <trkpt lat="45.22358" lon="0.39685">
        <ele>102</ele>
        <time>2016-01-26T14:18:43Z</time>
      </trkpt>
      <trkpt lat="45.22355" lon="0.39687">
        <ele>105</ele>
        <time>2016-01-26T14:18:48Z</time>
      </trkpt>
      <trkpt lat="45.22352" lon="0.397">
        <ele>105</ele>
        <time>2016-01-26T14:18:53Z</time>
      </trkpt>
      <trkpt lat="45.22348" lon="0.39704">
        <ele>106</ele>
        <time>2016-01-26T14:18:57Z</time>
      </trkpt>
      <trkpt lat="45.22347" lon="0.39711">
        <ele>105</ele>
        <time>2016-01-26T14:19:01Z</time>
      </trkpt>
      <trkpt lat="45.22343" lon="0.39717">
        <ele>106</ele>
        <time>2016-01-26T14:19:06Z</time>
      </trkpt>
      <trkpt lat="45.2234" lon="0.3972">
        <ele>107</ele>
        <time>2016-01-26T14:19:10Z</time>
      </trkpt>
      <trkpt lat="45.22336" lon="0.39724">
        <ele>108</ele>
        <time>2016-01-26T14:19:15Z</time>
      </trkpt>
      <trkpt lat="45.22332" lon="0.39723">
        <ele>108</ele>
        <time>2016-01-26T14:19:19Z</time>
      </trkpt>
      <trkpt lat="45.22329" lon="0.39728">
        <ele>106</ele>
        <time>2016-01-26T14:19:23Z</time>
      </trkpt>
      <trkpt lat="45.22327" lon="0.39735">
        <ele>102</ele>
        <time>2016-01-26T14:19:27Z</time>
      </trkpt>
      <trkpt lat="45.22324" lon="0.39735">
        <ele>104</ele>
        <time>2016-01-26T14:19:32Z</time>
      </trkpt>
      <trkpt lat="45.22319" lon="0.39734">
        <ele>103</ele>
        <time>2016-01-26T14:19:36Z</time>
      </trkpt>
      <trkpt lat="45.22313" lon="0.39738">
        <ele>102</ele>
        <time>2016-01-26T14:19:40Z</time>
      </trkpt>
      <trkpt lat="45.22314" lon="0.39749">
        <ele>102</ele>
        <time>2016-01-26T14:19:44Z</time>
      </trkpt>
      <trkpt lat="45.22317" lon="0.39756">
        <ele>100</ele>
        <time>2016-01-26T14:19:49Z</time>
      </trkpt>
      <trkpt lat="45.22318" lon="0.39762">
        <ele>99</ele>
        <time>2016-01-26T14:19:54Z</time>
      </trkpt>
      <trkpt lat="45.22322" lon="0.39765">
        <ele>103</ele>
        <time>2016-01-26T14:20:02Z</time>
      </trkpt>
      <trkpt lat="45.22324" lon="0.39769">
        <ele>102</ele>
        <time>2016-01-26T14:20:14Z</time>
      </trkpt>
      <trkpt lat="45.22328" lon="0.39771">
        <ele>104</ele>
        <time>2016-01-26T14:20:33Z</time>
      </trkpt>
      <trkpt lat="45.22326" lon="0.39776">
        <ele>105</ele>
        <time>2016-01-26T14:20:43Z</time>
      </trkpt>
      <trkpt lat="45.22322" lon="0.39778">
        <ele>105</ele>
        <time>2016-01-26T14:20:48Z</time>
      </trkpt>
      <trkpt lat="45.22319" lon="0.3978">
        <ele>105</ele>
        <time>2016-01-26T14:20:52Z</time>
      </trkpt>
      <trkpt lat="45.22315" lon="0.39783">
        <ele>105</ele>
        <time>2016-01-26T14:20:57Z</time>
      </trkpt>
      <trkpt lat="45.22312" lon="0.39788">
        <ele>104</ele>
        <time>2016-01-26T14:21:02Z</time>
      </trkpt>
      <trkpt lat="45.22309" lon="0.39792">
        <ele>106</ele>
        <time>2016-01-26T14:21:08Z</time>
      </trkpt>
      <trkpt lat="45.22305" lon="0.39791">
        <ele>107</ele>
        <time>2016-01-26T14:21:13Z</time>
      </trkpt>
      <trkpt lat="45.22301" lon="0.39793">
        <ele>109</ele>
        <time>2016-01-26T14:21:21Z</time>
      </trkpt>
      <trkpt lat="45.22297" lon="0.39796">
        <ele>109</ele>
        <time>2016-01-26T14:21:26Z</time>
      </trkpt>
      <trkpt lat="45.22292" lon="0.39798">
        <ele>109</ele>
        <time>2016-01-26T14:21:30Z</time>
      </trkpt>
      <trkpt lat="45.22289" lon="0.39798">
        <ele>111</ele>
        <time>2016-01-26T14:21:35Z</time>
      </trkpt>
      <trkpt lat="45.22286" lon="0.39805">
        <ele>110</ele>
        <time>2016-01-26T14:21:39Z</time>
      </trkpt>
      <trkpt lat="45.22282" lon="0.39807">
        <ele>112</ele>
        <time>2016-01-26T14:21:44Z</time>
      </trkpt>
      <trkpt lat="45.22278" lon="0.39807">
        <ele>113</ele>
        <time>2016-01-26T14:21:50Z</time>
      </trkpt>
      <trkpt lat="45.22274" lon="0.39809">
        <ele>114</ele>
        <time>2016-01-26T14:21:55Z</time>
      </trkpt>
      <trkpt lat="45.2227" lon="0.39812">
        <ele>115</ele>
        <time>2016-01-26T14:22:00Z</time>
      </trkpt>
      <trkpt lat="45.22267" lon="0.39816">
        <ele>114</ele>
        <time>2016-01-26T14:22:04Z</time>
      </trkpt>
      <trkpt lat="45.22263" lon="0.39816">
        <ele>115</ele>
        <time>2016-01-26T14:22:09Z</time>
      </trkpt>
      <trkpt lat="45.22258" lon="0.39818">
        <ele>115</ele>
        <time>2016-01-26T14:22:14Z</time>
      </trkpt>
      <trkpt lat="45.22254" lon="0.39822">
        <ele>116</ele>
        <time>2016-01-26T14:22:18Z</time>
      </trkpt>
      <trkpt lat="45.22251" lon="0.3983">
        <ele>114</ele>
        <time>2016-01-26T14:22:22Z</time>
      </trkpt>
      <trkpt lat="45.22248" lon="0.39834">
        <ele>113</ele>
        <time>2016-01-26T14:22:26Z</time>
      </trkpt>
      <trkpt lat="45.22242" lon="0.39837">
        <ele>113</ele>
        <time>2016-01-26T14:22:31Z</time>
      </trkpt>
      <trkpt lat="45.22238" lon="0.39836">
        <ele>114</ele>
        <time>2016-01-26T14:22:35Z</time>
      </trkpt>
      <trkpt lat="45.22233" lon="0.39836">
        <ele>115</ele>
        <time>2016-01-26T14:22:40Z</time>
      </trkpt>
      <trkpt lat="45.22228" lon="0.39836">
        <ele>117</ele>
        <time>2016-01-26T14:22:45Z</time>
      </trkpt>
      <trkpt lat="45.22224" lon="0.39834">
        <ele>117</ele>
        <time>2016-01-26T14:22:49Z</time>
      </trkpt>
      <trkpt lat="45.2222" lon="0.39836">
        <ele>117</ele>
        <time>2016-01-26T14:22:53Z</time>
      </trkpt>
      <trkpt lat="45.22216" lon="0.39835">
        <ele>117</ele>
        <time>2016-01-26T14:22:59Z</time>
      </trkpt>
      <trkpt lat="45.2221" lon="0.39829">
        <ele>117</ele>
        <time>2016-01-26T14:23:04Z</time>
      </trkpt>
      <trkpt lat="45.22207" lon="0.39833">
        <ele>113</ele>
        <time>2016-01-26T14:23:09Z</time>
      </trkpt>
      <trkpt lat="45.22203" lon="0.39833">
        <ele>113</ele>
        <time>2016-01-26T14:23:14Z</time>
      </trkpt>
      <trkpt lat="45.22198" lon="0.39832">
        <ele>113</ele>
        <time>2016-01-26T14:23:18Z</time>
      </trkpt>
      <trkpt lat="45.22195" lon="0.39829">
        <ele>115</ele>
        <time>2016-01-26T14:23:23Z</time>
      </trkpt>
      <trkpt lat="45.22191" lon="0.39825">
        <ele>117</ele>
        <time>2016-01-26T14:23:28Z</time>
      </trkpt>
      <trkpt lat="45.22189" lon="0.39821">
        <ele>120</ele>
        <time>2016-01-26T14:23:33Z</time>
      </trkpt>
      <trkpt lat="45.22182" lon="0.39813">
        <ele>119</ele>
        <time>2016-01-26T14:23:38Z</time>
      </trkpt>
      <trkpt lat="45.22178" lon="0.39813">
        <ele>119</ele>
        <time>2016-01-26T14:23:42Z</time>
      </trkpt>
      <trkpt lat="45.22174" lon="0.39814">
        <ele>120</ele>
        <time>2016-01-26T14:23:49Z</time>
      </trkpt>
      <trkpt lat="45.2217" lon="0.39815">
        <ele>120</ele>
        <time>2016-01-26T14:23:54Z</time>
      </trkpt>
      <trkpt lat="45.22164" lon="0.39816">
        <ele>118</ele>
        <time>2016-01-26T14:23:59Z</time>
      </trkpt>
      <trkpt lat="45.2216" lon="0.39818">
        <ele>120</ele>
        <time>2016-01-26T14:24:06Z</time>
      </trkpt>
      <trkpt lat="45.22153" lon="0.39819">
        <ele>116</ele>
        <time>2016-01-26T14:24:11Z</time>
      </trkpt>
      <trkpt lat="45.22149" lon="0.39822">
        <ele>120</ele>
        <time>2016-01-26T14:24:17Z</time>
      </trkpt>
      <trkpt lat="45.22144" lon="0.39824">
        <ele>119</ele>
        <time>2016-01-26T14:24:21Z</time>
      </trkpt>
      <trkpt lat="45.22139" lon="0.39827">
        <ele>118</ele>
        <time>2016-01-26T14:24:25Z</time>
      </trkpt>
      <trkpt lat="45.22135" lon="0.39828">
        <ele>119</ele>
        <time>2016-01-26T14:24:29Z</time>
      </trkpt>
      <trkpt lat="45.2213" lon="0.3983">
        <ele>119</ele>
        <time>2016-01-26T14:24:34Z</time>
      </trkpt>
      <trkpt lat="45.22126" lon="0.39829">
        <ele>121</ele>
        <time>2016-01-26T14:24:38Z</time>
      </trkpt>
      <trkpt lat="45.22122" lon="0.39832">
        <ele>123</ele>
        <time>2016-01-26T14:24:43Z</time>
      </trkpt>
      <trkpt lat="45.22117" lon="0.39832">
        <ele>124</ele>
        <time>2016-01-26T14:24:48Z</time>
      </trkpt>
      <trkpt lat="45.22111" lon="0.39833">
        <ele>122</ele>
        <time>2016-01-26T14:24:53Z</time>
      </trkpt>
      <trkpt lat="45.22105" lon="0.39833">
        <ele>124</ele>
        <time>2016-01-26T14:24:57Z</time>
      </trkpt>
      <trkpt lat="45.22101" lon="0.39833">
        <ele>127</ele>
        <time>2016-01-26T14:25:02Z</time>
      </trkpt>
      <trkpt lat="45.22096" lon="0.39834">
        <ele>126</ele>
        <time>2016-01-26T14:25:07Z</time>
      </trkpt>
      <trkpt lat="45.22093" lon="0.3983">
        <ele>128</ele>
        <time>2016-01-26T14:25:12Z</time>
      </trkpt>
      <trkpt lat="45.22088" lon="0.39828">
        <ele>128</ele>
        <time>2016-01-26T14:25:16Z</time>
      </trkpt>
      <trkpt lat="45.22084" lon="0.39826">
        <ele>132</ele>
        <time>2016-01-26T14:25:25Z</time>
      </trkpt>
      <trkpt lat="45.22079" lon="0.39827">
        <ele>127</ele>
        <time>2016-01-26T14:25:33Z</time>
      </trkpt>
      <trkpt lat="45.22073" lon="0.39828">
        <ele>129</ele>
        <time>2016-01-26T14:25:38Z</time>
      </trkpt>
      <trkpt lat="45.22067" lon="0.39827">
        <ele>131</ele>
        <time>2016-01-26T14:25:43Z</time>
      </trkpt>
      <trkpt lat="45.22058" lon="0.39826">
        <ele>129</ele>
        <time>2016-01-26T14:25:47Z</time>
      </trkpt>
      <trkpt lat="45.22052" lon="0.39826">
        <ele>129</ele>
        <time>2016-01-26T14:25:52Z</time>
      </trkpt>
      <trkpt lat="45.22048" lon="0.39824">
        <ele>130</ele>
        <time>2016-01-26T14:25:58Z</time>
      </trkpt>
      <trkpt lat="45.22045" lon="0.39822">
        <ele>130</ele>
        <time>2016-01-26T14:26:03Z</time>
      </trkpt>
      <trkpt lat="45.22041" lon="0.39822">
        <ele>130</ele>
        <time>2016-01-26T14:26:07Z</time>
      </trkpt>
      <trkpt lat="45.22035" lon="0.39821">
        <ele>130</ele>
        <time>2016-01-26T14:26:12Z</time>
      </trkpt>
      <trkpt lat="45.2203" lon="0.39821">
        <ele>130</ele>
        <time>2016-01-26T14:26:16Z</time>
      </trkpt>
      <trkpt lat="45.22025" lon="0.39819">
        <ele>130</ele>
        <time>2016-01-26T14:26:21Z</time>
      </trkpt>
      <trkpt lat="45.22021" lon="0.3982">
        <ele>131</ele>
        <time>2016-01-26T14:26:25Z</time>
      </trkpt>
      <trkpt lat="45.22015" lon="0.3982">
        <ele>131</ele>
        <time>2016-01-26T14:26:30Z</time>
      </trkpt>
      <trkpt lat="45.22011" lon="0.39821">
        <ele>132</ele>
        <time>2016-01-26T14:26:34Z</time>
      </trkpt>
      <trkpt lat="45.22005" lon="0.39821">
        <ele>132</ele>
        <time>2016-01-26T14:26:39Z</time>
      </trkpt>
      <trkpt lat="45.22" lon="0.3982">
        <ele>132</ele>
        <time>2016-01-26T14:26:43Z</time>
      </trkpt>
      <trkpt lat="45.21995" lon="0.39819">
        <ele>134</ele>
        <time>2016-01-26T14:26:48Z</time>
      </trkpt>
      <trkpt lat="45.21989" lon="0.39819">
        <ele>135</ele>
        <time>2016-01-26T14:26:53Z</time>
      </trkpt>
      <trkpt lat="45.21985" lon="0.39818">
        <ele>135</ele>
        <time>2016-01-26T14:26:57Z</time>
      </trkpt>
      <trkpt lat="45.21979" lon="0.39819">
        <ele>136</ele>
        <time>2016-01-26T14:27:02Z</time>
      </trkpt>
      <trkpt lat="45.21975" lon="0.39819">
        <ele>136</ele>
        <time>2016-01-26T14:27:07Z</time>
      </trkpt>
      <trkpt lat="45.21969" lon="0.39819">
        <ele>136</ele>
        <time>2016-01-26T14:27:12Z</time>
      </trkpt>
      <trkpt lat="45.21965" lon="0.3982">
        <ele>135</ele>
        <time>2016-01-26T14:27:18Z</time>
      </trkpt>
      <trkpt lat="45.21961" lon="0.39818">
        <ele>134</ele>
        <time>2016-01-26T14:27:22Z</time>
      </trkpt>
      <trkpt lat="45.21955" lon="0.39818">
        <ele>134</ele>
        <time>2016-01-26T14:27:27Z</time>
      </trkpt>
      <trkpt lat="45.2195" lon="0.39817">
        <ele>134</ele>
        <time>2016-01-26T14:27:31Z</time>
      </trkpt>
      <trkpt lat="45.21945" lon="0.39817">
        <ele>134</ele>
        <time>2016-01-26T14:27:36Z</time>
      </trkpt>
      <trkpt lat="45.2194" lon="0.39817">
        <ele>134</ele>
        <time>2016-01-26T14:27:40Z</time>
      </trkpt>
      <trkpt lat="45.21935" lon="0.39816">
        <ele>136</ele>
        <time>2016-01-26T14:27:45Z</time>
      </trkpt>
      <trkpt lat="45.21931" lon="0.39815">
        <ele>137</ele>
        <time>2016-01-26T14:27:50Z</time>
      </trkpt>
      <trkpt lat="45.21926" lon="0.39815">
        <ele>137</ele>
        <time>2016-01-26T14:27:55Z</time>
      </trkpt>
      <trkpt lat="45.21922" lon="0.39815">
        <ele>138</ele>
        <time>2016-01-26T14:27:59Z</time>
      </trkpt>
      <trkpt lat="45.21917" lon="0.39817">
        <ele>139</ele>
        <time>2016-01-26T14:28:04Z</time>
      </trkpt>
      <trkpt lat="45.21912" lon="0.39818">
        <ele>139</ele>
        <time>2016-01-26T14:28:09Z</time>
      </trkpt>
      <trkpt lat="45.21907" lon="0.39818">
        <ele>140</ele>
        <time>2016-01-26T14:28:13Z</time>
      </trkpt>
      <trkpt lat="45.21903" lon="0.39819">
        <ele>140</ele>
        <time>2016-01-26T14:28:17Z</time>
      </trkpt>
      <trkpt lat="45.21897" lon="0.39819">
        <ele>140</ele>
        <time>2016-01-26T14:28:22Z</time>
      </trkpt>
      <trkpt lat="45.21894" lon="0.39823">
        <ele>139</ele>
        <time>2016-01-26T14:28:26Z</time>
      </trkpt>
      <trkpt lat="45.21889" lon="0.39825">
        <ele>138</ele>
        <time>2016-01-26T14:28:30Z</time>
      </trkpt>
      <trkpt lat="45.21883" lon="0.39822">
        <ele>139</ele>
        <time>2016-01-26T14:28:35Z</time>
      </trkpt>
      <trkpt lat="45.2188" lon="0.39822">
        <ele>139</ele>
        <time>2016-01-26T14:28:39Z</time>
      </trkpt>
      <trkpt lat="45.21874" lon="0.39821">
        <ele>138</ele>
        <time>2016-01-26T14:28:43Z</time>
      </trkpt>
      <trkpt lat="45.21871" lon="0.39823">
        <ele>139</ele>
        <time>2016-01-26T14:28:48Z</time>
      </trkpt>
      <trkpt lat="45.21867" lon="0.39823">
        <ele>138</ele>
        <time>2016-01-26T14:28:52Z</time>
      </trkpt>
      <trkpt lat="45.21863" lon="0.39823">
        <ele>141</ele>
        <time>2016-01-26T14:28:57Z</time>
      </trkpt>
      <trkpt lat="45.21859" lon="0.39824">
        <ele>142</ele>
        <time>2016-01-26T14:29:02Z</time>
      </trkpt>
      <trkpt lat="45.21854" lon="0.39823">
        <ele>143</ele>
        <time>2016-01-26T14:29:06Z</time>
      </trkpt>
      <trkpt lat="45.2185" lon="0.39824">
        <ele>145</ele>
        <time>2016-01-26T14:29:12Z</time>
      </trkpt>
      <trkpt lat="45.21846" lon="0.39825">
        <ele>146</ele>
        <time>2016-01-26T14:29:17Z</time>
      </trkpt>
      <trkpt lat="45.21842" lon="0.39826">
        <ele>147</ele>
        <time>2016-01-26T14:29:22Z</time>
      </trkpt>
      <trkpt lat="45.21836" lon="0.39826">
        <ele>147</ele>
        <time>2016-01-26T14:29:27Z</time>
      </trkpt>
      <trkpt lat="45.21831" lon="0.39827">
        <ele>148</ele>
        <time>2016-01-26T14:29:31Z</time>
      </trkpt>
      <trkpt lat="45.21827" lon="0.39827">
        <ele>148</ele>
        <time>2016-01-26T14:29:35Z</time>
      </trkpt>
      <trkpt lat="45.21822" lon="0.39828">
        <ele>147</ele>
        <time>2016-01-26T14:29:39Z</time>
      </trkpt>
      <trkpt lat="45.21818" lon="0.39828">
        <ele>146</ele>
        <time>2016-01-26T14:29:43Z</time>
      </trkpt>
      <trkpt lat="45.21813" lon="0.39828">
        <ele>145</ele>
        <time>2016-01-26T14:29:47Z</time>
      </trkpt>
      <trkpt lat="45.21809" lon="0.39829">
        <ele>146</ele>
        <time>2016-01-26T14:29:51Z</time>
      </trkpt>
      <trkpt lat="45.21803" lon="0.3983">
        <ele>145</ele>
        <time>2016-01-26T14:29:56Z</time>
      </trkpt>
      <trkpt lat="45.21799" lon="0.3983">
        <ele>145</ele>
        <time>2016-01-26T14:30:00Z</time>
      </trkpt>
      <trkpt lat="45.21795" lon="0.39831">
        <ele>146</ele>
        <time>2016-01-26T14:30:04Z</time>
      </trkpt>
      <trkpt lat="45.21791" lon="0.39833">
        <ele>145</ele>
        <time>2016-01-26T14:30:09Z</time>
      </trkpt>
      <trkpt lat="45.21786" lon="0.39833">
        <ele>145</ele>
        <time>2016-01-26T14:30:13Z</time>
      </trkpt>
      <trkpt lat="45.21782" lon="0.39834">
        <ele>145</ele>
        <time>2016-01-26T14:30:17Z</time>
      </trkpt>
      <trkpt lat="45.21778" lon="0.39834">
        <ele>144</ele>
        <time>2016-01-26T14:30:21Z</time>
      </trkpt>
      <trkpt lat="45.21775" lon="0.39835">
        <ele>144</ele>
        <time>2016-01-26T14:30:25Z</time>
      </trkpt>
      <trkpt lat="45.21771" lon="0.39835">
        <ele>144</ele>
        <time>2016-01-26T14:30:29Z</time>
      </trkpt>
      <trkpt lat="45.21766" lon="0.39833">
        <ele>144</ele>
        <time>2016-01-26T14:30:34Z</time>
      </trkpt>
      <trkpt lat="45.21762" lon="0.39833">
        <ele>145</ele>
        <time>2016-01-26T14:30:38Z</time>
      </trkpt>
      <trkpt lat="45.21758" lon="0.39833">
        <ele>146</ele>
        <time>2016-01-26T14:30:43Z</time>
      </trkpt>
      <trkpt lat="45.21753" lon="0.39833">
        <ele>145</ele>
        <time>2016-01-26T14:30:48Z</time>
      </trkpt>
      <trkpt lat="45.21747" lon="0.39832">
        <ele>145</ele>
        <time>2016-01-26T14:30:53Z</time>
      </trkpt>
      <trkpt lat="45.21743" lon="0.39831">
        <ele>145</ele>
        <time>2016-01-26T14:30:59Z</time>
      </trkpt>
      <trkpt lat="45.21737" lon="0.39836">
        <ele>142</ele>
        <time>2016-01-26T14:31:03Z</time>
      </trkpt>
      <trkpt lat="45.21732" lon="0.39835">
        <ele>142</ele>
        <time>2016-01-26T14:31:08Z</time>
      </trkpt>
      <trkpt lat="45.21728" lon="0.39835">
        <ele>143</ele>
        <time>2016-01-26T14:31:12Z</time>
      </trkpt>
      <trkpt lat="45.21723" lon="0.39837">
        <ele>143</ele>
        <time>2016-01-26T14:31:16Z</time>
      </trkpt>
      <trkpt lat="45.21717" lon="0.39837">
        <ele>143</ele>
        <time>2016-01-26T14:31:21Z</time>
      </trkpt>
      <trkpt lat="45.21713" lon="0.39839">
        <ele>143</ele>
        <time>2016-01-26T14:31:25Z</time>
      </trkpt>
      <trkpt lat="45.21709" lon="0.3984">
        <ele>144</ele>
        <time>2016-01-26T14:31:29Z</time>
      </trkpt>
      <trkpt lat="45.21704" lon="0.39839">
        <ele>145</ele>
        <time>2016-01-26T14:31:34Z</time>
      </trkpt>
      <trkpt lat="45.217" lon="0.39844">
        <ele>148</ele>
        <time>2016-01-26T14:31:40Z</time>
      </trkpt>
      <trkpt lat="45.21694" lon="0.39844">
        <ele>149</ele>
        <time>2016-01-26T14:31:45Z</time>
      </trkpt>
      <trkpt lat="45.21691" lon="0.39846">
        <ele>148</ele>
        <time>2016-01-26T14:31:49Z</time>
      </trkpt>
      <trkpt lat="45.21686" lon="0.39848">
        <ele>147</ele>
        <time>2016-01-26T14:31:54Z</time>
      </trkpt>
      <trkpt lat="45.21681" lon="0.3985">
        <ele>147</ele>
        <time>2016-01-26T14:31:58Z</time>
      </trkpt>
      <trkpt lat="45.21677" lon="0.39851">
        <ele>149</ele>
        <time>2016-01-26T14:32:03Z</time>
      </trkpt>
      <trkpt lat="45.21673" lon="0.39851">
        <ele>148</ele>
        <time>2016-01-26T14:32:07Z</time>
      </trkpt>
      <trkpt lat="45.21668" lon="0.3985">
        <ele>149</ele>
        <time>2016-01-26T14:32:11Z</time>
      </trkpt>
      <trkpt lat="45.21664" lon="0.39851">
        <ele>149</ele>
        <time>2016-01-26T14:32:15Z</time>
      </trkpt>
      <trkpt lat="45.2166" lon="0.39853">
        <ele>150</ele>
        <time>2016-01-26T14:32:19Z</time>
      </trkpt>
      <trkpt lat="45.21656" lon="0.39856">
        <ele>150</ele>
        <time>2016-01-26T14:32:23Z</time>
      </trkpt>
      <trkpt lat="45.21652" lon="0.39858">
        <ele>150</ele>
        <time>2016-01-26T14:32:27Z</time>
      </trkpt>
      <trkpt lat="45.21646" lon="0.39861">
        <ele>150</ele>
        <time>2016-01-26T14:32:32Z</time>
      </trkpt>
      <trkpt lat="45.21641" lon="0.39866">
        <ele>150</ele>
        <time>2016-01-26T14:32:37Z</time>
      </trkpt>
      <trkpt lat="45.21636" lon="0.39868">
        <ele>151</ele>
        <time>2016-01-26T14:32:41Z</time>
      </trkpt>
      <trkpt lat="45.21634" lon="0.39869">
        <ele>150</ele>
        <time>2016-01-26T14:32:45Z</time>
      </trkpt>
      <trkpt lat="45.21628" lon="0.39874">
        <ele>149</ele>
        <time>2016-01-26T14:32:50Z</time>
      </trkpt>
      <trkpt lat="45.21623" lon="0.39877">
        <ele>152</ele>
        <time>2016-01-26T14:32:54Z</time>
      </trkpt>
      <trkpt lat="45.21619" lon="0.3988">
        <ele>151</ele>
        <time>2016-01-26T14:32:58Z</time>
      </trkpt>
      <trkpt lat="45.21615" lon="0.39882">
        <ele>151</ele>
        <time>2016-01-26T14:33:02Z</time>
      </trkpt>
      <trkpt lat="45.21611" lon="0.39887">
        <ele>150</ele>
        <time>2016-01-26T14:33:06Z</time>
      </trkpt>
      <trkpt lat="45.21607" lon="0.39891">
        <ele>150</ele>
        <time>2016-01-26T14:33:11Z</time>
      </trkpt>
      <trkpt lat="45.21602" lon="0.39895">
        <ele>149</ele>
        <time>2016-01-26T14:33:16Z</time>
      </trkpt>
      <trkpt lat="45.21598" lon="0.39899">
        <ele>149</ele>
        <time>2016-01-26T14:33:20Z</time>
      </trkpt>
      <trkpt lat="45.21594" lon="0.39903">
        <ele>149</ele>
        <time>2016-01-26T14:33:24Z</time>
      </trkpt>
      <trkpt lat="45.2159" lon="0.39906">
        <ele>148</ele>
        <time>2016-01-26T14:33:28Z</time>
      </trkpt>
      <trkpt lat="45.21585" lon="0.39912">
        <ele>149</ele>
        <time>2016-01-26T14:33:33Z</time>
      </trkpt>
      <trkpt lat="45.21581" lon="0.39915">
        <ele>150</ele>
        <time>2016-01-26T14:33:37Z</time>
      </trkpt>
      <trkpt lat="45.21577" lon="0.3992">
        <ele>150</ele>
        <time>2016-01-26T14:33:41Z</time>
      </trkpt>
      <trkpt lat="45.21573" lon="0.39925">
        <ele>149</ele>
        <time>2016-01-26T14:33:45Z</time>
      </trkpt>
      <trkpt lat="45.2157" lon="0.3993">
        <ele>148</ele>
        <time>2016-01-26T14:33:50Z</time>
      </trkpt>
      <trkpt lat="45.21566" lon="0.39934">
        <ele>148</ele>
        <time>2016-01-26T14:33:54Z</time>
      </trkpt>
      <trkpt lat="45.21563" lon="0.39939">
        <ele>148</ele>
        <time>2016-01-26T14:33:58Z</time>
      </trkpt>
      <trkpt lat="45.21559" lon="0.39944">
        <ele>148</ele>
        <time>2016-01-26T14:34:02Z</time>
      </trkpt>
      <trkpt lat="45.21555" lon="0.39947">
        <ele>149</ele>
        <time>2016-01-26T14:34:06Z</time>
      </trkpt>
      <trkpt lat="45.2155" lon="0.39954">
        <ele>151</ele>
        <time>2016-01-26T14:34:11Z</time>
      </trkpt>
      <trkpt lat="45.21547" lon="0.39959">
        <ele>152</ele>
        <time>2016-01-26T14:34:15Z</time>
      </trkpt>
      <trkpt lat="45.21544" lon="0.39963">
        <ele>151</ele>
        <time>2016-01-26T14:34:19Z</time>
      </trkpt>
      <trkpt lat="45.21539" lon="0.39967">
        <ele>152</ele>
        <time>2016-01-26T14:34:23Z</time>
      </trkpt>
      <trkpt lat="45.21535" lon="0.39974">
        <ele>152</ele>
        <time>2016-01-26T14:34:28Z</time>
      </trkpt>
      <trkpt lat="45.21533" lon="0.39979">
        <ele>152</ele>
        <time>2016-01-26T14:34:32Z</time>
      </trkpt>
      <trkpt lat="45.21529" lon="0.39982">
        <ele>153</ele>
        <time>2016-01-26T14:34:37Z</time>
      </trkpt>
      <trkpt lat="45.21526" lon="0.39987">
        <ele>153</ele>
        <time>2016-01-26T14:34:42Z</time>
      </trkpt>
      <trkpt lat="45.21522" lon="0.39993">
        <ele>152</ele>
        <time>2016-01-26T14:34:46Z</time>
      </trkpt>
      <trkpt lat="45.21519" lon="0.39997">
        <ele>153</ele>
        <time>2016-01-26T14:34:50Z</time>
      </trkpt>
      <trkpt lat="45.21513" lon="0.40002">
        <ele>154</ele>
        <time>2016-01-26T14:34:55Z</time>
      </trkpt>
      <trkpt lat="45.21509" lon="0.40007">
        <ele>156</ele>
        <time>2016-01-26T14:34:59Z</time>
      </trkpt>
      <trkpt lat="45.21505" lon="0.40015">
        <ele>156</ele>
        <time>2016-01-26T14:35:04Z</time>
      </trkpt>
      <trkpt lat="45.21501" lon="0.40019">
        <ele>157</ele>
        <time>2016-01-26T14:35:08Z</time>
      </trkpt>
      <trkpt lat="45.21498" lon="0.40027">
        <ele>158</ele>
        <time>2016-01-26T14:35:13Z</time>
      </trkpt>
      <trkpt lat="45.21495" lon="0.40032">
        <ele>157</ele>
        <time>2016-01-26T14:35:17Z</time>
      </trkpt>
      <trkpt lat="45.21492" lon="0.40038">
        <ele>157</ele>
        <time>2016-01-26T14:35:21Z</time>
      </trkpt>
      <trkpt lat="45.21489" lon="0.40042">
        <ele>160</ele>
        <time>2016-01-26T14:35:26Z</time>
      </trkpt>
      <trkpt lat="45.21486" lon="0.40046">
        <ele>162</ele>
        <time>2016-01-26T14:35:31Z</time>
      </trkpt>
      <trkpt lat="45.21485" lon="0.40052">
        <ele>161</ele>
        <time>2016-01-26T14:35:36Z</time>
      </trkpt>
      <trkpt lat="45.21484" lon="0.40058">
        <ele>160</ele>
        <time>2016-01-26T14:36:05Z</time>
      </trkpt>
      <trkpt lat="45.21484" lon="0.40064">
        <ele>161</ele>
        <time>2016-01-26T14:37:10Z</time>
      </trkpt>
      <trkpt lat="45.21481" lon="0.40062">
        <ele>151</ele>
        <time>2016-01-26T14:38:47Z</time>
      </trkpt>
      <trkpt lat="45.21477" lon="0.40065">
        <ele>151</ele>
        <time>2016-01-26T14:38:51Z</time>
      </trkpt>
      <trkpt lat="45.21473" lon="0.40068">
        <ele>151</ele>
        <time>2016-01-26T14:38:57Z</time>
      </trkpt>
      <trkpt lat="45.2147" lon="0.4007">
        <ele>152</ele>
        <time>2016-01-26T14:39:01Z</time>
      </trkpt>
      <trkpt lat="45.21466" lon="0.40074">
        <ele>153</ele>
        <time>2016-01-26T14:39:05Z</time>
      </trkpt>
      <trkpt lat="45.21465" lon="0.4008">
        <ele>152</ele>
        <time>2016-01-26T14:39:10Z</time>
      </trkpt>
      <trkpt lat="45.21459" lon="0.40085">
        <ele>153</ele>
        <time>2016-01-26T14:39:15Z</time>
      </trkpt>
      <trkpt lat="45.21461" lon="0.40091">
        <ele>152</ele>
        <time>2016-01-26T14:39:19Z</time>
      </trkpt>
      <trkpt lat="45.2146" lon="0.40097">
        <ele>151</ele>
        <time>2016-01-26T14:39:26Z</time>
      </trkpt>
      <trkpt lat="45.21455" lon="0.401">
        <ele>153</ele>
        <time>2016-01-26T14:39:31Z</time>
      </trkpt>
      <trkpt lat="45.21451" lon="0.40105">
        <ele>154</ele>
        <time>2016-01-26T14:39:35Z</time>
      </trkpt>
      <trkpt lat="45.21447" lon="0.40109">
        <ele>153</ele>
        <time>2016-01-26T14:39:39Z</time>
      </trkpt>
      <trkpt lat="45.21442" lon="0.40116">
        <ele>152</ele>
        <time>2016-01-26T14:39:44Z</time>
      </trkpt>
      <trkpt lat="45.21439" lon="0.40121">
        <ele>151</ele>
        <time>2016-01-26T14:39:48Z</time>
      </trkpt>
      <trkpt lat="45.21435" lon="0.40124">
        <ele>150</ele>
        <time>2016-01-26T14:39:53Z</time>
      </trkpt>
      <trkpt lat="45.21431" lon="0.40127">
        <ele>148</ele>
        <time>2016-01-26T14:39:57Z</time>
      </trkpt>
      <trkpt lat="45.21424" lon="0.40129">
        <ele>147</ele>
        <time>2016-01-26T14:40:01Z</time>
      </trkpt>
      <trkpt lat="45.21419" lon="0.40132">
        <ele>146</ele>
        <time>2016-01-26T14:40:05Z</time>
      </trkpt>
      <trkpt lat="45.21416" lon="0.40136">
        <ele>147</ele>
        <time>2016-01-26T14:40:09Z</time>
      </trkpt>
      <trkpt lat="45.21412" lon="0.40138">
        <ele>147</ele>
        <time>2016-01-26T14:40:13Z</time>
      </trkpt>
      <trkpt lat="45.21408" lon="0.40142">
        <ele>148</ele>
        <time>2016-01-26T14:40:17Z</time>
      </trkpt>
      <trkpt lat="45.21403" lon="0.40147">
        <ele>148</ele>
        <time>2016-01-26T14:40:22Z</time>
      </trkpt>
      <trkpt lat="45.21399" lon="0.40151">
        <ele>148</ele>
        <time>2016-01-26T14:40:26Z</time>
      </trkpt>
      <trkpt lat="45.21394" lon="0.40157">
        <ele>149</ele>
        <time>2016-01-26T14:40:31Z</time>
      </trkpt>
      <trkpt lat="45.21388" lon="0.40161">
        <ele>151</ele>
        <time>2016-01-26T14:40:36Z</time>
      </trkpt>
      <trkpt lat="45.21383" lon="0.40167">
        <ele>152</ele>
        <time>2016-01-26T14:40:41Z</time>
      </trkpt>
      <trkpt lat="45.21378" lon="0.40171">
        <ele>153</ele>
        <time>2016-01-26T14:40:45Z</time>
      </trkpt>
      <trkpt lat="45.21372" lon="0.40174">
        <ele>155</ele>
        <time>2016-01-26T14:40:50Z</time>
      </trkpt>
      <trkpt lat="45.21367" lon="0.40175">
        <ele>157</ele>
        <time>2016-01-26T14:40:54Z</time>
      </trkpt>
      <trkpt lat="45.21364" lon="0.4018">
        <ele>156</ele>
        <time>2016-01-26T14:40:58Z</time>
      </trkpt>
      <trkpt lat="45.21361" lon="0.40185">
        <ele>157</ele>
        <time>2016-01-26T14:41:02Z</time>
      </trkpt>
      <trkpt lat="45.21357" lon="0.4019">
        <ele>158</ele>
        <time>2016-01-26T14:41:06Z</time>
      </trkpt>
      <trkpt lat="45.21353" lon="0.40193">
        <ele>158</ele>
        <time>2016-01-26T14:41:10Z</time>
      </trkpt>
      <trkpt lat="45.2135" lon="0.40202">
        <ele>155</ele>
        <time>2016-01-26T14:41:14Z</time>
      </trkpt>
      <trkpt lat="45.21345" lon="0.40206">
        <ele>154</ele>
        <time>2016-01-26T14:41:18Z</time>
      </trkpt>
      <trkpt lat="45.2134" lon="0.40214">
        <ele>152</ele>
        <time>2016-01-26T14:41:23Z</time>
      </trkpt>
      <trkpt lat="45.21334" lon="0.40221">
        <ele>152</ele>
        <time>2016-01-26T14:41:28Z</time>
      </trkpt>
      <trkpt lat="45.21333" lon="0.40229">
        <ele>151</ele>
        <time>2016-01-26T14:41:33Z</time>
      </trkpt>
      <trkpt lat="45.21329" lon="0.40233">
        <ele>151</ele>
        <time>2016-01-26T14:41:37Z</time>
      </trkpt>
      <trkpt lat="45.21325" lon="0.40236">
        <ele>150</ele>
        <time>2016-01-26T14:41:41Z</time>
      </trkpt>
      <trkpt lat="45.21321" lon="0.40242">
        <ele>151</ele>
        <time>2016-01-26T14:41:46Z</time>
      </trkpt>
      <trkpt lat="45.21318" lon="0.40247">
        <ele>153</ele>
        <time>2016-01-26T14:41:50Z</time>
      </trkpt>
      <trkpt lat="45.21314" lon="0.40252">
        <ele>154</ele>
        <time>2016-01-26T14:41:55Z</time>
      </trkpt>
      <trkpt lat="45.2131" lon="0.40255">
        <ele>153</ele>
        <time>2016-01-26T14:41:59Z</time>
      </trkpt>
      <trkpt lat="45.21308" lon="0.4026">
        <ele>153</ele>
        <time>2016-01-26T14:42:03Z</time>
      </trkpt>
      <trkpt lat="45.21304" lon="0.40265">
        <ele>153</ele>
        <time>2016-01-26T14:42:08Z</time>
      </trkpt>
      <trkpt lat="45.21302" lon="0.40274">
        <ele>154</ele>
        <time>2016-01-26T14:42:13Z</time>
      </trkpt>
      <trkpt lat="45.21299" lon="0.40278">
        <ele>153</ele>
        <time>2016-01-26T14:42:17Z</time>
      </trkpt>
      <trkpt lat="45.21296" lon="0.40285">
        <ele>154</ele>
        <time>2016-01-26T14:42:22Z</time>
      </trkpt>
      <trkpt lat="45.21294" lon="0.40288">
        <ele>155</ele>
        <time>2016-01-26T14:42:26Z</time>
      </trkpt>
      <trkpt lat="45.2129" lon="0.40296">
        <ele>155</ele>
        <time>2016-01-26T14:42:31Z</time>
      </trkpt>
      <trkpt lat="45.21287" lon="0.40303">
        <ele>155</ele>
        <time>2016-01-26T14:42:35Z</time>
      </trkpt>
      <trkpt lat="45.21284" lon="0.40309">
        <ele>156</ele>
        <time>2016-01-26T14:42:40Z</time>
      </trkpt>
      <trkpt lat="45.2128" lon="0.40315">
        <ele>157</ele>
        <time>2016-01-26T14:42:44Z</time>
      </trkpt>
      <trkpt lat="45.21277" lon="0.40321">
        <ele>157</ele>
        <time>2016-01-26T14:42:48Z</time>
      </trkpt>
      <trkpt lat="45.21275" lon="0.40328">
        <ele>155</ele>
        <time>2016-01-26T14:42:53Z</time>
      </trkpt>
      <trkpt lat="45.21272" lon="0.40332">
        <ele>155</ele>
        <time>2016-01-26T14:42:57Z</time>
      </trkpt>
      <trkpt lat="45.21268" lon="0.40336">
        <ele>154</ele>
        <time>2016-01-26T14:43:01Z</time>
      </trkpt>
      <trkpt lat="45.21267" lon="0.40343">
        <ele>155</ele>
        <time>2016-01-26T14:43:05Z</time>
      </trkpt>
      <trkpt lat="45.21265" lon="0.40349">
        <ele>156</ele>
        <time>2016-01-26T14:43:09Z</time>
      </trkpt>
      <trkpt lat="45.21263" lon="0.40354">
        <ele>157</ele>
        <time>2016-01-26T14:43:13Z</time>
      </trkpt>
      <trkpt lat="45.2126" lon="0.40359">
        <ele>155</ele>
        <time>2016-01-26T14:43:17Z</time>
      </trkpt>
      <trkpt lat="45.21256" lon="0.40366">
        <ele>155</ele>
        <time>2016-01-26T14:43:22Z</time>
      </trkpt>
      <trkpt lat="45.21254" lon="0.4037">
        <ele>155</ele>
        <time>2016-01-26T14:43:26Z</time>
      </trkpt>
      <trkpt lat="45.2125" lon="0.40377">
        <ele>156</ele>
        <time>2016-01-26T14:43:31Z</time>
      </trkpt>
      <trkpt lat="45.21249" lon="0.40383">
        <ele>156</ele>
        <time>2016-01-26T14:43:35Z</time>
      </trkpt>
      <trkpt lat="45.21247" lon="0.40389">
        <ele>156</ele>
        <time>2016-01-26T14:43:39Z</time>
      </trkpt>
      <trkpt lat="45.21243" lon="0.40395">
        <ele>155</ele>
        <time>2016-01-26T14:43:44Z</time>
      </trkpt>
      <trkpt lat="45.21239" lon="0.40401">
        <ele>156</ele>
        <time>2016-01-26T14:43:49Z</time>
      </trkpt>
      <trkpt lat="45.21235" lon="0.40405">
        <ele>155</ele>
        <time>2016-01-26T14:43:53Z</time>
      </trkpt>
      <trkpt lat="45.2123" lon="0.40412">
        <ele>155</ele>
        <time>2016-01-26T14:43:58Z</time>
      </trkpt>
      <trkpt lat="45.21228" lon="0.40416">
        <ele>155</ele>
        <time>2016-01-26T14:44:02Z</time>
      </trkpt>
      <trkpt lat="45.21224" lon="0.40421">
        <ele>155</ele>
        <time>2016-01-26T14:44:06Z</time>
      </trkpt>
      <trkpt lat="45.21222" lon="0.40427">
        <ele>156</ele>
        <time>2016-01-26T14:44:10Z</time>
      </trkpt>
      <trkpt lat="45.21219" lon="0.40434">
        <ele>156</ele>
        <time>2016-01-26T14:44:15Z</time>
      </trkpt>
      <trkpt lat="45.21216" lon="0.40439">
        <ele>156</ele>
        <time>2016-01-26T14:44:19Z</time>
      </trkpt>
      <trkpt lat="45.21213" lon="0.40446">
        <ele>155</ele>
        <time>2016-01-26T14:44:24Z</time>
      </trkpt>
      <trkpt lat="45.21212" lon="0.40451">
        <ele>156</ele>
        <time>2016-01-26T14:44:28Z</time>
      </trkpt>
      <trkpt lat="45.2121" lon="0.40456">
        <ele>155</ele>
        <time>2016-01-26T14:44:32Z</time>
      </trkpt>
      <trkpt lat="45.21205" lon="0.40464">
        <ele>154</ele>
        <time>2016-01-26T14:44:37Z</time>
      </trkpt>
      <trkpt lat="45.21204" lon="0.40471">
        <ele>154</ele>
        <time>2016-01-26T14:44:41Z</time>
      </trkpt>
      <trkpt lat="45.21202" lon="0.40476">
        <ele>153</ele>
        <time>2016-01-26T14:44:45Z</time>
      </trkpt>
      <trkpt lat="45.212" lon="0.40484">
        <ele>154</ele>
        <time>2016-01-26T14:44:49Z</time>
      </trkpt>
      <trkpt lat="45.21201" lon="0.40491">
        <ele>153</ele>
        <time>2016-01-26T14:44:53Z</time>
      </trkpt>
      <trkpt lat="45.21203" lon="0.40499">
        <ele>155</ele>
        <time>2016-01-26T14:44:57Z</time>
      </trkpt>
      <trkpt lat="45.21205" lon="0.40507">
        <ele>156</ele>
        <time>2016-01-26T14:45:02Z</time>
      </trkpt>
      <trkpt lat="45.21207" lon="0.40513">
        <ele>158</ele>
        <time>2016-01-26T14:45:06Z</time>
      </trkpt>
      <trkpt lat="45.2121" lon="0.40519">
        <ele>159</ele>
        <time>2016-01-26T14:45:10Z</time>
      </trkpt>
      <trkpt lat="45.21211" lon="0.40527">
        <ele>161</ele>
        <time>2016-01-26T14:45:14Z</time>
      </trkpt>
      <trkpt lat="45.21211" lon="0.40533">
        <ele>162</ele>
        <time>2016-01-26T14:45:18Z</time>
      </trkpt>
      <trkpt lat="45.2121" lon="0.4054">
        <ele>160</ele>
        <time>2016-01-26T14:45:23Z</time>
      </trkpt>
      <trkpt lat="45.21206" lon="0.40544">
        <ele>159</ele>
        <time>2016-01-26T14:45:27Z</time>
      </trkpt>
      <trkpt lat="45.21202" lon="0.40552">
        <ele>160</ele>
        <time>2016-01-26T14:45:32Z</time>
      </trkpt>
      <trkpt lat="45.21201" lon="0.40558">
        <ele>159</ele>
        <time>2016-01-26T14:45:36Z</time>
      </trkpt>
      <trkpt lat="45.21197" lon="0.40564">
        <ele>159</ele>
        <time>2016-01-26T14:45:41Z</time>
      </trkpt>
      <trkpt lat="45.21195" lon="0.40571">
        <ele>159</ele>
        <time>2016-01-26T14:45:45Z</time>
      </trkpt>
      <trkpt lat="45.21193" lon="0.40577">
        <ele>160</ele>
        <time>2016-01-26T14:45:49Z</time>
      </trkpt>
      <trkpt lat="45.2119" lon="0.40582">
        <ele>161</ele>
        <time>2016-01-26T14:45:54Z</time>
      </trkpt>
      <trkpt lat="45.21188" lon="0.40587">
        <ele>160</ele>
        <time>2016-01-26T14:45:58Z</time>
      </trkpt>
      <trkpt lat="45.21185" lon="0.40591">
        <ele>161</ele>
        <time>2016-01-26T14:46:02Z</time>
      </trkpt>
      <trkpt lat="45.21182" lon="0.40597">
        <ele>162</ele>
        <time>2016-01-26T14:46:07Z</time>
      </trkpt>
      <trkpt lat="45.21179" lon="0.40604">
        <ele>161</ele>
        <time>2016-01-26T14:46:12Z</time>
      </trkpt>
      <trkpt lat="45.21176" lon="0.4061">
        <ele>160</ele>
        <time>2016-01-26T14:46:16Z</time>
      </trkpt>
      <trkpt lat="45.21175" lon="0.40616">
        <ele>159</ele>
        <time>2016-01-26T14:46:20Z</time>
      </trkpt>
      <trkpt lat="45.21172" lon="0.40622">
        <ele>158</ele>
        <time>2016-01-26T14:46:24Z</time>
      </trkpt>
      <trkpt lat="45.21168" lon="0.4063">
        <ele>158</ele>
        <time>2016-01-26T14:46:29Z</time>
      </trkpt>
      <trkpt lat="45.21165" lon="0.40635">
        <ele>158</ele>
        <time>2016-01-26T14:46:33Z</time>
      </trkpt>
      <trkpt lat="45.21161" lon="0.40639">
        <ele>157</ele>
        <time>2016-01-26T14:46:37Z</time>
      </trkpt>
      <trkpt lat="45.21159" lon="0.40643">
        <ele>159</ele>
        <time>2016-01-26T14:46:42Z</time>
      </trkpt>
      <trkpt lat="45.21156" lon="0.40652">
        <ele>159</ele>
        <time>2016-01-26T14:46:47Z</time>
      </trkpt>
      <trkpt lat="45.21154" lon="0.40658">
        <ele>160</ele>
        <time>2016-01-26T14:46:51Z</time>
      </trkpt>
      <trkpt lat="45.21152" lon="0.40666">
        <ele>161</ele>
        <time>2016-01-26T14:46:56Z</time>
      </trkpt>
      <trkpt lat="45.21148" lon="0.40675">
        <ele>160</ele>
        <time>2016-01-26T14:47:01Z</time>
      </trkpt>
      <trkpt lat="45.21146" lon="0.40681">
        <ele>160</ele>
        <time>2016-01-26T14:47:05Z</time>
      </trkpt>
      <trkpt lat="45.21143" lon="0.40687">
        <ele>162</ele>
        <time>2016-01-26T14:47:10Z</time>
      </trkpt>
      <trkpt lat="45.21138" lon="0.40694">
        <ele>161</ele>
        <time>2016-01-26T14:47:15Z</time>
      </trkpt>
      <trkpt lat="45.21136" lon="0.40702">
        <ele>162</ele>
        <time>2016-01-26T14:47:19Z</time>
      </trkpt>
      <trkpt lat="45.21133" lon="0.40706">
        <ele>162</ele>
        <time>2016-01-26T14:47:23Z</time>
      </trkpt>
      <trkpt lat="45.21131" lon="0.40713">
        <ele>162</ele>
        <time>2016-01-26T14:47:27Z</time>
      </trkpt>
      <trkpt lat="45.21127" lon="0.40719">
        <ele>160</ele>
        <time>2016-01-26T14:47:32Z</time>
      </trkpt>
      <trkpt lat="45.21126" lon="0.40726">
        <ele>158</ele>
        <time>2016-01-26T14:47:36Z</time>
      </trkpt>
      <trkpt lat="45.21122" lon="0.40731">
        <ele>159</ele>
        <time>2016-01-26T14:47:40Z</time>
      </trkpt>
      <trkpt lat="45.2112" lon="0.40737">
        <ele>159</ele>
        <time>2016-01-26T14:47:44Z</time>
      </trkpt>
      <trkpt lat="45.21116" lon="0.40744">
        <ele>160</ele>
        <time>2016-01-26T14:47:49Z</time>
      </trkpt>
      <trkpt lat="45.21114" lon="0.40752">
        <ele>159</ele>
        <time>2016-01-26T14:47:54Z</time>
      </trkpt>
      <trkpt lat="45.21112" lon="0.40757">
        <ele>161</ele>
        <time>2016-01-26T14:47:58Z</time>
      </trkpt>
      <trkpt lat="45.21108" lon="0.40763">
        <ele>160</ele>
        <time>2016-01-26T14:48:03Z</time>
      </trkpt>
      <trkpt lat="45.21107" lon="0.4077">
        <ele>160</ele>
        <time>2016-01-26T14:48:07Z</time>
      </trkpt>
      <trkpt lat="45.21104" lon="0.40775">
        <ele>159</ele>
        <time>2016-01-26T14:48:11Z</time>
      </trkpt>
      <trkpt lat="45.211" lon="0.40781">
        <ele>159</ele>
        <time>2016-01-26T14:48:16Z</time>
      </trkpt>
      <trkpt lat="45.21096" lon="0.40786">
        <ele>159</ele>
        <time>2016-01-26T14:48:21Z</time>
      </trkpt>
      <trkpt lat="45.21094" lon="0.40792">
        <ele>160</ele>
        <time>2016-01-26T14:48:25Z</time>
      </trkpt>
      <trkpt lat="45.21093" lon="0.40799">
        <ele>160</ele>
        <time>2016-01-26T14:48:29Z</time>
      </trkpt>
      <trkpt lat="45.21091" lon="0.40804">
        <ele>159</ele>
        <time>2016-01-26T14:48:33Z</time>
      </trkpt>
      <trkpt lat="45.21089" lon="0.4081">
        <ele>159</ele>
        <time>2016-01-26T14:48:37Z</time>
      </trkpt>
      <trkpt lat="45.21085" lon="0.40814">
        <ele>159</ele>
        <time>2016-01-26T14:48:43Z</time>
      </trkpt>
      <trkpt lat="45.21083" lon="0.4082">
        <ele>159</ele>
        <time>2016-01-26T14:48:47Z</time>
      </trkpt>
      <trkpt lat="45.21082" lon="0.40825">
        <ele>161</ele>
        <time>2016-01-26T14:48:51Z</time>
      </trkpt>
      <trkpt lat="45.2108" lon="0.40832">
        <ele>160</ele>
        <time>2016-01-26T14:48:55Z</time>
      </trkpt>
      <trkpt lat="45.21077" lon="0.40838">
        <ele>161</ele>
        <time>2016-01-26T14:48:59Z</time>
      </trkpt>
      <trkpt lat="45.21075" lon="0.40845">
        <ele>163</ele>
        <time>2016-01-26T14:49:04Z</time>
      </trkpt>
      <trkpt lat="45.21073" lon="0.40851">
        <ele>163</ele>
        <time>2016-01-26T14:49:08Z</time>
      </trkpt>
      <trkpt lat="45.2107" lon="0.40858">
        <ele>165</ele>
        <time>2016-01-26T14:49:13Z</time>
      </trkpt>
      <trkpt lat="45.21069" lon="0.40863">
        <ele>165</ele>
        <time>2016-01-26T14:49:17Z</time>
      </trkpt>
      <trkpt lat="45.21067" lon="0.40872">
        <ele>164</ele>
        <time>2016-01-26T14:49:22Z</time>
      </trkpt>
      <trkpt lat="45.21064" lon="0.40878">
        <ele>166</ele>
        <time>2016-01-26T14:49:27Z</time>
      </trkpt>
      <trkpt lat="45.21061" lon="0.40884">
        <ele>165</ele>
        <time>2016-01-26T14:49:31Z</time>
      </trkpt>
      <trkpt lat="45.21057" lon="0.40892">
        <ele>165</ele>
        <time>2016-01-26T14:49:36Z</time>
      </trkpt>
      <trkpt lat="45.21055" lon="0.40898">
        <ele>166</ele>
        <time>2016-01-26T14:49:40Z</time>
      </trkpt>
      <trkpt lat="45.21052" lon="0.40905">
        <ele>165</ele>
        <time>2016-01-26T14:49:44Z</time>
      </trkpt>
      <trkpt lat="45.21051" lon="0.40911">
        <ele>166</ele>
        <time>2016-01-26T14:49:48Z</time>
      </trkpt>
      <trkpt lat="45.21048" lon="0.40918">
        <ele>167</ele>
        <time>2016-01-26T14:49:53Z</time>
      </trkpt>
      <trkpt lat="45.21046" lon="0.40925">
        <ele>167</ele>
        <time>2016-01-26T14:49:57Z</time>
      </trkpt>
      <trkpt lat="45.21043" lon="0.4093">
        <ele>168</ele>
        <time>2016-01-26T14:50:02Z</time>
      </trkpt>
      <trkpt lat="45.2104" lon="0.40936">
        <ele>168</ele>
        <time>2016-01-26T14:50:06Z</time>
      </trkpt>
      <trkpt lat="45.21036" lon="0.40943">
        <ele>168</ele>
        <time>2016-01-26T14:50:11Z</time>
      </trkpt>
      <trkpt lat="45.21034" lon="0.40951">
        <ele>168</ele>
        <time>2016-01-26T14:50:16Z</time>
      </trkpt>
      <trkpt lat="45.21033" lon="0.40957">
        <ele>169</ele>
        <time>2016-01-26T14:50:20Z</time>
      </trkpt>
      <trkpt lat="45.2103" lon="0.40965">
        <ele>168</ele>
        <time>2016-01-26T14:50:25Z</time>
      </trkpt>
      <trkpt lat="45.21028" lon="0.40973">
        <ele>168</ele>
        <time>2016-01-26T14:50:30Z</time>
      </trkpt>
      <trkpt lat="45.21025" lon="0.40979">
        <ele>168</ele>
        <time>2016-01-26T14:50:34Z</time>
      </trkpt>
      <trkpt lat="45.21024" lon="0.40985">
        <ele>168</ele>
        <time>2016-01-26T14:50:38Z</time>
      </trkpt>
      <trkpt lat="45.21021" lon="0.4099">
        <ele>168</ele>
        <time>2016-01-26T14:50:42Z</time>
      </trkpt>
      <trkpt lat="45.21019" lon="0.40998">
        <ele>168</ele>
        <time>2016-01-26T14:50:47Z</time>
      </trkpt>
      <trkpt lat="45.21018" lon="0.41005">
        <ele>168</ele>
        <time>2016-01-26T14:50:51Z</time>
      </trkpt>
      <trkpt lat="45.21016" lon="0.41009">
        <ele>167</ele>
        <time>2016-01-26T14:50:55Z</time>
      </trkpt>
      <trkpt lat="45.21014" lon="0.41015">
        <ele>167</ele>
        <time>2016-01-26T14:50:59Z</time>
      </trkpt>
      <trkpt lat="45.21013" lon="0.41021">
        <ele>168</ele>
        <time>2016-01-26T14:51:04Z</time>
      </trkpt>
      <trkpt lat="45.21011" lon="0.41029">
        <ele>168</ele>
        <time>2016-01-26T14:51:09Z</time>
      </trkpt>
      <trkpt lat="45.21009" lon="0.41034">
        <ele>169</ele>
        <time>2016-01-26T14:51:13Z</time>
      </trkpt>
      <trkpt lat="45.21009" lon="0.41039">
        <ele>170</ele>
        <time>2016-01-26T14:51:17Z</time>
      </trkpt>
      <trkpt lat="45.21008" lon="0.41046">
        <ele>171</ele>
        <time>2016-01-26T14:51:21Z</time>
      </trkpt>
      <trkpt lat="45.21008" lon="0.41052">
        <ele>172</ele>
        <time>2016-01-26T14:51:25Z</time>
      </trkpt>
      <trkpt lat="45.21008" lon="0.4106">
        <ele>174</ele>
        <time>2016-01-26T14:51:30Z</time>
      </trkpt>
      <trkpt lat="45.21007" lon="0.41066">
        <ele>173</ele>
        <time>2016-01-26T14:51:34Z</time>
      </trkpt>
      <trkpt lat="45.21006" lon="0.41071">
        <ele>173</ele>
        <time>2016-01-26T14:51:39Z</time>
      </trkpt>
      <trkpt lat="45.21005" lon="0.41078">
        <ele>173</ele>
        <time>2016-01-26T14:51:44Z</time>
      </trkpt>
      <trkpt lat="45.21005" lon="0.41087">
        <ele>173</ele>
        <time>2016-01-26T14:51:49Z</time>
      </trkpt>
      <trkpt lat="45.21004" lon="0.41092">
        <ele>172</ele>
        <time>2016-01-26T14:51:54Z</time>
      </trkpt>
      <trkpt lat="45.21003" lon="0.41097">
        <ele>174</ele>
        <time>2016-01-26T14:51:58Z</time>
      </trkpt>
      <trkpt lat="45.21" lon="0.41104">
        <ele>174</ele>
        <time>2016-01-26T14:52:03Z</time>
      </trkpt>
      <trkpt lat="45.21" lon="0.4111">
        <ele>175</ele>
        <time>2016-01-26T14:52:07Z</time>
      </trkpt>
      <trkpt lat="45.20999" lon="0.41116">
        <ele>175</ele>
        <time>2016-01-26T14:52:11Z</time>
      </trkpt>
      <trkpt lat="45.21001" lon="0.41127">
        <ele>175</ele>
        <time>2016-01-26T14:52:16Z</time>
      </trkpt>
      <trkpt lat="45.20999" lon="0.41132">
        <ele>176</ele>
        <time>2016-01-26T14:52:22Z</time>
      </trkpt>
      <trkpt lat="45.20999" lon="0.41139">
        <ele>177</ele>
        <time>2016-01-26T14:52:26Z</time>
      </trkpt>
      <trkpt lat="45.21001" lon="0.41144">
        <ele>179</ele>
        <time>2016-01-26T14:52:30Z</time>
      </trkpt>
      <trkpt lat="45.21" lon="0.41151">
        <ele>179</ele>
        <time>2016-01-26T14:52:34Z</time>
      </trkpt>
      <trkpt lat="45.21001" lon="0.41158">
        <ele>178</ele>
        <time>2016-01-26T14:52:38Z</time>
      </trkpt>
      <trkpt lat="45.21002" lon="0.41164">
        <ele>181</ele>
        <time>2016-01-26T14:52:43Z</time>
      </trkpt>
      <trkpt lat="45.21004" lon="0.41171">
        <ele>181</ele>
        <time>2016-01-26T14:52:47Z</time>
      </trkpt>
      <trkpt lat="45.21005" lon="0.41178">
        <ele>180</ele>
        <time>2016-01-26T14:52:52Z</time>
      </trkpt>
      <trkpt lat="45.21006" lon="0.41186">
        <ele>182</ele>
        <time>2016-01-26T14:52:57Z</time>
      </trkpt>
      <trkpt lat="45.21006" lon="0.41194">
        <ele>182</ele>
        <time>2016-01-26T14:53:01Z</time>
      </trkpt>
      <trkpt lat="45.21006" lon="0.41201">
        <ele>180</ele>
        <time>2016-01-26T14:53:06Z</time>
      </trkpt>
      <trkpt lat="45.21005" lon="0.41206">
        <ele>179</ele>
        <time>2016-01-26T14:53:10Z</time>
      </trkpt>
      <trkpt lat="45.21006" lon="0.41213">
        <ele>179</ele>
        <time>2016-01-26T14:53:14Z</time>
      </trkpt>
      <trkpt lat="45.21008" lon="0.41222">
        <ele>181</ele>
        <time>2016-01-26T14:53:19Z</time>
      </trkpt>
      <trkpt lat="45.21003" lon="0.41224">
        <ele>179</ele>
        <time>2016-01-26T14:53:23Z</time>
      </trkpt>
      <trkpt lat="45.21002" lon="0.4123">
        <ele>182</ele>
        <time>2016-01-26T14:53:31Z</time>
      </trkpt>
      <trkpt lat="45.21003" lon="0.41239">
        <ele>182</ele>
        <time>2016-01-26T14:53:35Z</time>
      </trkpt>
      <trkpt lat="45.21002" lon="0.41246">
        <ele>184</ele>
        <time>2016-01-26T14:53:40Z</time>
      </trkpt>
      <trkpt lat="45.21" lon="0.41255">
        <ele>185</ele>
        <time>2016-01-26T14:53:44Z</time>
      </trkpt>
      <trkpt lat="45.20997" lon="0.4126">
        <ele>186</ele>
        <time>2016-01-26T14:53:49Z</time>
      </trkpt>
      <trkpt lat="45.20994" lon="0.41265">
        <ele>187</ele>
        <time>2016-01-26T14:53:53Z</time>
      </trkpt>
      <trkpt lat="45.20992" lon="0.41274">
        <ele>186</ele>
        <time>2016-01-26T14:53:57Z</time>
      </trkpt>
      <trkpt lat="45.20989" lon="0.4128">
        <ele>187</ele>
        <time>2016-01-26T14:54:02Z</time>
      </trkpt>
      <trkpt lat="45.20986" lon="0.41289">
        <ele>186</ele>
        <time>2016-01-26T14:54:06Z</time>
      </trkpt>
      <trkpt lat="45.20983" lon="0.41296">
        <ele>186</ele>
        <time>2016-01-26T14:54:11Z</time>
      </trkpt>
      <trkpt lat="45.2098" lon="0.41302">
        <ele>185</ele>
        <time>2016-01-26T14:54:15Z</time>
      </trkpt>
      <trkpt lat="45.20976" lon="0.41309">
        <ele>185</ele>
        <time>2016-01-26T14:54:20Z</time>
      </trkpt>
      <trkpt lat="45.20972" lon="0.41317">
        <ele>186</ele>
        <time>2016-01-26T14:54:25Z</time>
      </trkpt>
      <trkpt lat="45.20968" lon="0.41319">
        <ele>184</ele>
        <time>2016-01-26T14:54:29Z</time>
      </trkpt>
      <trkpt lat="45.20967" lon="0.41329">
        <ele>185</ele>
        <time>2016-01-26T14:54:34Z</time>
      </trkpt>
      <trkpt lat="45.20965" lon="0.41336">
        <ele>184</ele>
        <time>2016-01-26T14:54:38Z</time>
      </trkpt>
      <trkpt lat="45.20962" lon="0.41342">
        <ele>185</ele>
        <time>2016-01-26T14:54:42Z</time>
      </trkpt>
      <trkpt lat="45.20961" lon="0.41349">
        <ele>185</ele>
        <time>2016-01-26T14:54:46Z</time>
      </trkpt>
      <trkpt lat="45.20959" lon="0.41358">
        <ele>181</ele>
        <time>2016-01-26T14:54:50Z</time>
      </trkpt>
      <trkpt lat="45.20957" lon="0.41362">
        <ele>182</ele>
        <time>2016-01-26T14:54:54Z</time>
      </trkpt>
      <trkpt lat="45.20954" lon="0.41368">
        <ele>181</ele>
        <time>2016-01-26T14:54:58Z</time>
      </trkpt>
      <trkpt lat="45.2095" lon="0.41371">
        <ele>177</ele>
        <time>2016-01-26T14:55:02Z</time>
      </trkpt>
      <trkpt lat="45.20947" lon="0.41375">
        <ele>178</ele>
        <time>2016-01-26T14:55:06Z</time>
      </trkpt>
      <trkpt lat="45.20945" lon="0.4138">
        <ele>182</ele>
        <time>2016-01-26T14:55:11Z</time>
      </trkpt>
      <trkpt lat="45.20946" lon="0.41392">
        <ele>181</ele>
        <time>2016-01-26T14:55:15Z</time>
      </trkpt>
      <trkpt lat="45.20945" lon="0.41398">
        <ele>183</ele>
        <time>2016-01-26T14:55:19Z</time>
      </trkpt>
      <trkpt lat="45.20944" lon="0.41405">
        <ele>184</ele>
        <time>2016-01-26T14:55:23Z</time>
      </trkpt>
      <trkpt lat="45.20944" lon="0.41411">
        <ele>185</ele>
        <time>2016-01-26T14:55:27Z</time>
      </trkpt>
      <trkpt lat="45.20943" lon="0.41418">
        <ele>185</ele>
        <time>2016-01-26T14:55:31Z</time>
      </trkpt>
      <trkpt lat="45.20943" lon="0.41427">
        <ele>184</ele>
        <time>2016-01-26T14:55:35Z</time>
      </trkpt>
      <trkpt lat="45.20944" lon="0.41434">
        <ele>183</ele>
        <time>2016-01-26T14:55:39Z</time>
      </trkpt>
      <trkpt lat="45.20944" lon="0.41441">
        <ele>184</ele>
        <time>2016-01-26T14:55:44Z</time>
      </trkpt>
      <trkpt lat="45.20943" lon="0.41448">
        <ele>185</ele>
        <time>2016-01-26T14:55:49Z</time>
      </trkpt>
      <trkpt lat="45.20942" lon="0.41453">
        <ele>187</ele>
        <time>2016-01-26T14:55:54Z</time>
      </trkpt>
      <trkpt lat="45.20942" lon="0.4146">
        <ele>187</ele>
        <time>2016-01-26T14:55:59Z</time>
      </trkpt>
      <trkpt lat="45.2094" lon="0.41467">
        <ele>185</ele>
        <time>2016-01-26T14:56:03Z</time>
      </trkpt>
      <trkpt lat="45.20941" lon="0.41473">
        <ele>186</ele>
        <time>2016-01-26T14:56:08Z</time>
      </trkpt>
      <trkpt lat="45.20941" lon="0.41479">
        <ele>186</ele>
        <time>2016-01-26T14:56:13Z</time>
      </trkpt>
      <trkpt lat="45.20943" lon="0.41485">
        <ele>185</ele>
        <time>2016-01-26T14:56:28Z</time>
      </trkpt>
      <trkpt lat="45.20944" lon="0.41491">
        <ele>181</ele>
        <time>2016-01-26T14:58:43Z</time>
      </trkpt>
      <trkpt lat="45.20941" lon="0.41495">
        <ele>181</ele>
        <time>2016-01-26T14:58:47Z</time>
      </trkpt>
      <trkpt lat="45.20938" lon="0.41499">
        <ele>181</ele>
        <time>2016-01-26T14:58:51Z</time>
      </trkpt>
      <trkpt lat="45.20934" lon="0.41501">
        <ele>180</ele>
        <time>2016-01-26T14:58:55Z</time>
      </trkpt>
      <trkpt lat="45.2093" lon="0.41504">
        <ele>181</ele>
        <time>2016-01-26T14:58:59Z</time>
      </trkpt>
      <trkpt lat="45.20926" lon="0.41507">
        <ele>183</ele>
        <time>2016-01-26T14:59:03Z</time>
      </trkpt>
      <trkpt lat="45.20922" lon="0.4151">
        <ele>183</ele>
        <time>2016-01-26T14:59:07Z</time>
      </trkpt>
      <trkpt lat="45.20917" lon="0.41513">
        <ele>184</ele>
        <time>2016-01-26T14:59:12Z</time>
      </trkpt>
      <trkpt lat="45.20913" lon="0.41516">
        <ele>184</ele>
        <time>2016-01-26T14:59:17Z</time>
      </trkpt>
      <trkpt lat="45.2091" lon="0.4152">
        <ele>185</ele>
        <time>2016-01-26T14:59:21Z</time>
      </trkpt>
      <trkpt lat="45.20909" lon="0.41526">
        <ele>185</ele>
        <time>2016-01-26T14:59:26Z</time>
      </trkpt>
      <trkpt lat="45.20908" lon="0.41532">
        <ele>186</ele>
        <time>2016-01-26T14:59:30Z</time>
      </trkpt>
      <trkpt lat="45.2091" lon="0.41541">
        <ele>187</ele>
        <time>2016-01-26T14:59:35Z</time>
      </trkpt>
      <trkpt lat="45.20909" lon="0.41547">
        <ele>186</ele>
        <time>2016-01-26T14:59:39Z</time>
      </trkpt>
      <trkpt lat="45.20909" lon="0.41554">
        <ele>188</ele>
        <time>2016-01-26T14:59:43Z</time>
      </trkpt>
      <trkpt lat="45.20908" lon="0.4156">
        <ele>187</ele>
        <time>2016-01-26T14:59:47Z</time>
      </trkpt>
      <trkpt lat="45.20905" lon="0.41569">
        <ele>187</ele>
        <time>2016-01-26T14:59:52Z</time>
      </trkpt>
      <trkpt lat="45.20904" lon="0.41576">
        <ele>187</ele>
        <time>2016-01-26T14:59:56Z</time>
      </trkpt>
      <trkpt lat="45.20903" lon="0.41585">
        <ele>186</ele>
        <time>2016-01-26T15:00:01Z</time>
      </trkpt>
      <trkpt lat="45.20899" lon="0.41592">
        <ele>185</ele>
        <time>2016-01-26T15:00:06Z</time>
      </trkpt>
      <trkpt lat="45.20898" lon="0.41599">
        <ele>185</ele>
        <time>2016-01-26T15:00:10Z</time>
      </trkpt>
      <trkpt lat="45.20897" lon="0.41606">
        <ele>185</ele>
        <time>2016-01-26T15:00:15Z</time>
      </trkpt>
      <trkpt lat="45.20895" lon="0.41611">
        <ele>186</ele>
        <time>2016-01-26T15:00:19Z</time>
      </trkpt>
      <trkpt lat="45.20893" lon="0.41618">
        <ele>186</ele>
        <time>2016-01-26T15:00:23Z</time>
      </trkpt>
      <trkpt lat="45.20892" lon="0.41627">
        <ele>187</ele>
        <time>2016-01-26T15:00:28Z</time>
      </trkpt>
      <trkpt lat="45.20891" lon="0.41632">
        <ele>189</ele>
        <time>2016-01-26T15:00:32Z</time>
      </trkpt>
      <trkpt lat="45.20892" lon="0.4164">
        <ele>190</ele>
        <time>2016-01-26T15:00:36Z</time>
      </trkpt>
      <trkpt lat="45.20891" lon="0.41646">
        <ele>190</ele>
        <time>2016-01-26T15:00:40Z</time>
      </trkpt>
      <trkpt lat="45.20889" lon="0.41652">
        <ele>191</ele>
        <time>2016-01-26T15:00:44Z</time>
      </trkpt>
      <trkpt lat="45.20889" lon="0.41661">
        <ele>192</ele>
        <time>2016-01-26T15:00:49Z</time>
      </trkpt>
      <trkpt lat="45.20889" lon="0.41669">
        <ele>190</ele>
        <time>2016-01-26T15:00:53Z</time>
      </trkpt>
      <trkpt lat="45.20888" lon="0.41675">
        <ele>193</ele>
        <time>2016-01-26T15:00:59Z</time>
      </trkpt>
      <trkpt lat="45.2089" lon="0.4168">
        <ele>196</ele>
        <time>2016-01-26T15:01:03Z</time>
      </trkpt>
      <trkpt lat="45.20889" lon="0.41688">
        <ele>197</ele>
        <time>2016-01-26T15:01:07Z</time>
      </trkpt>
      <trkpt lat="45.20881" lon="0.41692">
        <ele>195</ele>
        <time>2016-01-26T15:01:12Z</time>
      </trkpt>
      <trkpt lat="45.20879" lon="0.41697">
        <ele>196</ele>
        <time>2016-01-26T15:01:17Z</time>
      </trkpt>
      <trkpt lat="45.20875" lon="0.41701">
        <ele>195</ele>
        <time>2016-01-26T15:01:21Z</time>
      </trkpt>
      <trkpt lat="45.20874" lon="0.41709">
        <ele>196</ele>
        <time>2016-01-26T15:01:25Z</time>
      </trkpt>
      <trkpt lat="45.20875" lon="0.41717">
        <ele>195</ele>
        <time>2016-01-26T15:01:29Z</time>
      </trkpt>
      <trkpt lat="45.20876" lon="0.41723">
        <ele>197</ele>
        <time>2016-01-26T15:01:33Z</time>
      </trkpt>
      <trkpt lat="45.20879" lon="0.41731">
        <ele>194</ele>
        <time>2016-01-26T15:01:37Z</time>
      </trkpt>
      <trkpt lat="45.2088" lon="0.41738">
        <ele>193</ele>
        <time>2016-01-26T15:01:41Z</time>
      </trkpt>
      <trkpt lat="45.2088" lon="0.41746">
        <ele>190</ele>
        <time>2016-01-26T15:01:46Z</time>
      </trkpt>
      <trkpt lat="45.2088" lon="0.41753">
        <ele>189</ele>
        <time>2016-01-26T15:01:50Z</time>
      </trkpt>
      <trkpt lat="45.20881" lon="0.4176">
        <ele>190</ele>
        <time>2016-01-26T15:01:55Z</time>
      </trkpt>
      <trkpt lat="45.20883" lon="0.41767">
        <ele>190</ele>
        <time>2016-01-26T15:01:59Z</time>
      </trkpt>
      <trkpt lat="45.20883" lon="0.41773">
        <ele>190</ele>
        <time>2016-01-26T15:02:03Z</time>
      </trkpt>
      <trkpt lat="45.20884" lon="0.4178">
        <ele>190</ele>
        <time>2016-01-26T15:02:07Z</time>
      </trkpt>
      <trkpt lat="45.20886" lon="0.41788">
        <ele>189</ele>
        <time>2016-01-26T15:02:12Z</time>
      </trkpt>
      <trkpt lat="45.20886" lon="0.41797">
        <ele>190</ele>
        <time>2016-01-26T15:02:17Z</time>
      </trkpt>
      <trkpt lat="45.20887" lon="0.41803">
        <ele>189</ele>
        <time>2016-01-26T15:02:21Z</time>
      </trkpt>
      <trkpt lat="45.20886" lon="0.41809">
        <ele>189</ele>
        <time>2016-01-26T15:02:25Z</time>
      </trkpt>
      <trkpt lat="45.20885" lon="0.41817">
        <ele>190</ele>
        <time>2016-01-26T15:02:29Z</time>
      </trkpt>
      <trkpt lat="45.20886" lon="0.41825">
        <ele>189</ele>
        <time>2016-01-26T15:02:34Z</time>
      </trkpt>
      <trkpt lat="45.20886" lon="0.41832">
        <ele>189</ele>
        <time>2016-01-26T15:02:39Z</time>
      </trkpt>
      <trkpt lat="45.20887" lon="0.41841">
        <ele>187</ele>
        <time>2016-01-26T15:02:44Z</time>
      </trkpt>
      <trkpt lat="45.20885" lon="0.41845">
        <ele>187</ele>
        <time>2016-01-26T15:02:50Z</time>
      </trkpt>
      <trkpt lat="45.2088" lon="0.41844">
        <ele>187</ele>
        <time>2016-01-26T15:02:55Z</time>
      </trkpt>
      <trkpt lat="45.20875" lon="0.41843">
        <ele>184</ele>
        <time>2016-01-26T15:02:59Z</time>
      </trkpt>
      <trkpt lat="45.20871" lon="0.41841">
        <ele>183</ele>
        <time>2016-01-26T15:03:05Z</time>
      </trkpt>
      <trkpt lat="45.20868" lon="0.41839">
        <ele>184</ele>
        <time>2016-01-26T15:03:09Z</time>
      </trkpt>
      <trkpt lat="45.20865" lon="0.41837">
        <ele>185</ele>
        <time>2016-01-26T15:03:13Z</time>
      </trkpt>
      <trkpt lat="45.2086" lon="0.41835">
        <ele>184</ele>
        <time>2016-01-26T15:03:17Z</time>
      </trkpt>
      <trkpt lat="45.20855" lon="0.41833">
        <ele>183</ele>
        <time>2016-01-26T15:03:21Z</time>
      </trkpt>
      <trkpt lat="45.20852" lon="0.4183">
        <ele>184</ele>
        <time>2016-01-26T15:03:26Z</time>
      </trkpt>
      <trkpt lat="45.20842" lon="0.41828">
        <ele>182</ele>
        <time>2016-01-26T15:03:31Z</time>
      </trkpt>
      <trkpt lat="45.20836" lon="0.41827">
        <ele>182</ele>
        <time>2016-01-26T15:03:35Z</time>
      </trkpt>
      <trkpt lat="45.2083" lon="0.41825">
        <ele>182</ele>
        <time>2016-01-26T15:03:39Z</time>
      </trkpt>
      <trkpt lat="45.20825" lon="0.41823">
        <ele>182</ele>
        <time>2016-01-26T15:03:43Z</time>
      </trkpt>
      <trkpt lat="45.20821" lon="0.41821">
        <ele>182</ele>
        <time>2016-01-26T15:03:48Z</time>
      </trkpt>
      <trkpt lat="45.20818" lon="0.41819">
        <ele>183</ele>
        <time>2016-01-26T15:03:53Z</time>
      </trkpt>
      <trkpt lat="45.20809" lon="0.41816">
        <ele>182</ele>
        <time>2016-01-26T15:03:58Z</time>
      </trkpt>
      <trkpt lat="45.20804" lon="0.41815">
        <ele>182</ele>
        <time>2016-01-26T15:04:02Z</time>
      </trkpt>
      <trkpt lat="45.20799" lon="0.41813">
        <ele>182</ele>
        <time>2016-01-26T15:04:06Z</time>
      </trkpt>
      <trkpt lat="45.20793" lon="0.41812">
        <ele>183</ele>
        <time>2016-01-26T15:04:11Z</time>
      </trkpt>
      <trkpt lat="45.2079" lon="0.4181">
        <ele>182</ele>
        <time>2016-01-26T15:04:15Z</time>
      </trkpt>
      <trkpt lat="45.20785" lon="0.41809">
        <ele>182</ele>
        <time>2016-01-26T15:04:19Z</time>
      </trkpt>
      <trkpt lat="45.20781" lon="0.41808">
        <ele>182</ele>
        <time>2016-01-26T15:04:23Z</time>
      </trkpt>
      <trkpt lat="45.20777" lon="0.41809">
        <ele>184</ele>
        <time>2016-01-26T15:04:27Z</time>
      </trkpt>
      <trkpt lat="45.20773" lon="0.41807">
        <ele>183</ele>
        <time>2016-01-26T15:04:31Z</time>
      </trkpt>
      <trkpt lat="45.20766" lon="0.41806">
        <ele>184</ele>
        <time>2016-01-26T15:04:35Z</time>
      </trkpt>
      <trkpt lat="45.2076" lon="0.41804">
        <ele>185</ele>
        <time>2016-01-26T15:04:40Z</time>
      </trkpt>
      <trkpt lat="45.20755" lon="0.41803">
        <ele>184</ele>
        <time>2016-01-26T15:04:45Z</time>
      </trkpt>
      <trkpt lat="45.2075" lon="0.41802">
        <ele>184</ele>
        <time>2016-01-26T15:04:49Z</time>
      </trkpt>
      <trkpt lat="45.20744" lon="0.41802">
        <ele>184</ele>
        <time>2016-01-26T15:04:54Z</time>
      </trkpt>
      <trkpt lat="45.20738" lon="0.418">
        <ele>183</ele>
        <time>2016-01-26T15:04:58Z</time>
      </trkpt>
      <trkpt lat="45.20732" lon="0.41799">
        <ele>183</ele>
        <time>2016-01-26T15:05:03Z</time>
      </trkpt>
      <trkpt lat="45.20724" lon="0.41796">
        <ele>184</ele>
        <time>2016-01-26T15:05:08Z</time>
      </trkpt>
      <trkpt lat="45.20718" lon="0.41795">
        <ele>183</ele>
        <time>2016-01-26T15:05:12Z</time>
      </trkpt>
      <trkpt lat="45.20714" lon="0.41794">
        <ele>184</ele>
        <time>2016-01-26T15:05:16Z</time>
      </trkpt>
      <trkpt lat="45.2071" lon="0.41792">
        <ele>182</ele>
        <time>2016-01-26T15:05:20Z</time>
      </trkpt>
      <trkpt lat="45.20706" lon="0.4179">
        <ele>184</ele>
        <time>2016-01-26T15:05:24Z</time>
      </trkpt>
      <trkpt lat="45.20698" lon="0.41788">
        <ele>182</ele>
        <time>2016-01-26T15:05:29Z</time>
      </trkpt>
      <trkpt lat="45.20693" lon="0.41787">
        <ele>184</ele>
        <time>2016-01-26T15:05:34Z</time>
      </trkpt>
      <trkpt lat="45.20689" lon="0.41786">
        <ele>183</ele>
        <time>2016-01-26T15:05:38Z</time>
      </trkpt>
      <trkpt lat="45.20685" lon="0.41785">
        <ele>185</ele>
        <time>2016-01-26T15:05:43Z</time>
      </trkpt>
      <trkpt lat="45.20681" lon="0.41782">
        <ele>188</ele>
        <time>2016-01-26T15:05:50Z</time>
      </trkpt>
      <trkpt lat="45.20674" lon="0.41779">
        <ele>188</ele>
        <time>2016-01-26T15:05:54Z</time>
      </trkpt>
      <trkpt lat="45.2067" lon="0.41778">
        <ele>188</ele>
        <time>2016-01-26T15:05:58Z</time>
      </trkpt>
      <trkpt lat="45.20664" lon="0.41775">
        <ele>188</ele>
        <time>2016-01-26T15:06:03Z</time>
      </trkpt>
      <trkpt lat="45.20659" lon="0.41772">
        <ele>189</ele>
        <time>2016-01-26T15:06:07Z</time>
      </trkpt>
      <trkpt lat="45.20654" lon="0.4177">
        <ele>190</ele>
        <time>2016-01-26T15:06:11Z</time>
      </trkpt>
      <trkpt lat="45.2065" lon="0.41767">
        <ele>190</ele>
        <time>2016-01-26T15:06:15Z</time>
      </trkpt>
      <trkpt lat="45.20646" lon="0.41765">
        <ele>191</ele>
        <time>2016-01-26T15:06:19Z</time>
      </trkpt>
      <trkpt lat="45.20642" lon="0.41763">
        <ele>193</ele>
        <time>2016-01-26T15:06:23Z</time>
      </trkpt>
      <trkpt lat="45.20632" lon="0.41763">
        <ele>189</ele>
        <time>2016-01-26T15:06:28Z</time>
      </trkpt>
      <trkpt lat="45.20626" lon="0.41763">
        <ele>187</ele>
        <time>2016-01-26T15:06:32Z</time>
      </trkpt>
      <trkpt lat="45.20617" lon="0.41764">
        <ele>186</ele>
        <time>2016-01-26T15:06:37Z</time>
      </trkpt>
      <trkpt lat="45.20613" lon="0.41765">
        <ele>187</ele>
        <time>2016-01-26T15:06:41Z</time>
      </trkpt>
      <trkpt lat="45.20607" lon="0.41765">
        <ele>186</ele>
        <time>2016-01-26T15:06:45Z</time>
      </trkpt>
      <trkpt lat="45.20603" lon="0.41766">
        <ele>187</ele>
        <time>2016-01-26T15:06:49Z</time>
      </trkpt>
      <trkpt lat="45.20597" lon="0.41766">
        <ele>187</ele>
        <time>2016-01-26T15:06:53Z</time>
      </trkpt>
      <trkpt lat="45.20592" lon="0.41768">
        <ele>188</ele>
        <time>2016-01-26T15:06:57Z</time>
      </trkpt>
      <trkpt lat="45.20586" lon="0.41768">
        <ele>189</ele>
        <time>2016-01-26T15:07:02Z</time>
      </trkpt>
      <trkpt lat="45.2058" lon="0.41771">
        <ele>189</ele>
        <time>2016-01-26T15:07:07Z</time>
      </trkpt>
      <trkpt lat="45.2057" lon="0.41775">
        <ele>187</ele>
        <time>2016-01-26T15:07:12Z</time>
      </trkpt>
      <trkpt lat="45.20567" lon="0.41776">
        <ele>187</ele>
        <time>2016-01-26T15:07:17Z</time>
      </trkpt>
      <trkpt lat="45.20561" lon="0.41782">
        <ele>184</ele>
        <time>2016-01-26T15:07:21Z</time>
      </trkpt>
      <trkpt lat="45.20553" lon="0.41783">
        <ele>183</ele>
        <time>2016-01-26T15:07:26Z</time>
      </trkpt>
      <trkpt lat="45.20548" lon="0.41782">
        <ele>184</ele>
        <time>2016-01-26T15:07:30Z</time>
      </trkpt>
      <trkpt lat="45.20544" lon="0.41782">
        <ele>186</ele>
        <time>2016-01-26T15:07:34Z</time>
      </trkpt>
      <trkpt lat="45.20538" lon="0.41788">
        <ele>184</ele>
        <time>2016-01-26T15:07:39Z</time>
      </trkpt>
      <trkpt lat="45.20535" lon="0.41789">
        <ele>185</ele>
        <time>2016-01-26T15:07:45Z</time>
      </trkpt>
      <trkpt lat="45.20531" lon="0.41792">
        <ele>185</ele>
        <time>2016-01-26T15:07:49Z</time>
      </trkpt>
      <trkpt lat="45.20524" lon="0.41792">
        <ele>180</ele>
        <time>2016-01-26T15:07:53Z</time>
      </trkpt>
      <trkpt lat="45.20521" lon="0.41792">
        <ele>181</ele>
        <time>2016-01-26T15:07:57Z</time>
      </trkpt>
      <trkpt lat="45.20515" lon="0.41791">
        <ele>180</ele>
        <time>2016-01-26T15:08:01Z</time>
      </trkpt>
      <trkpt lat="45.20511" lon="0.41791">
        <ele>184</ele>
        <time>2016-01-26T15:08:07Z</time>
      </trkpt>
      <trkpt lat="45.20504" lon="0.4179">
        <ele>185</ele>
        <time>2016-01-26T15:08:12Z</time>
      </trkpt>
      <trkpt lat="45.20498" lon="0.41789">
        <ele>185</ele>
        <time>2016-01-26T15:08:16Z</time>
      </trkpt>
      <trkpt lat="45.20496" lon="0.41791">
        <ele>192</ele>
        <time>2016-01-26T15:08:22Z</time>
      </trkpt>
      <trkpt lat="45.20489" lon="0.41794">
        <ele>190</ele>
        <time>2016-01-26T15:08:26Z</time>
      </trkpt>
      <trkpt lat="45.20485" lon="0.41793">
        <ele>196</ele>
        <time>2016-01-26T15:08:31Z</time>
      </trkpt>
      <trkpt lat="45.2048" lon="0.41795">
        <ele>197</ele>
        <time>2016-01-26T15:08:35Z</time>
      </trkpt>
      <trkpt lat="45.20476" lon="0.41794">
        <ele>194</ele>
        <time>2016-01-26T15:08:42Z</time>
      </trkpt>
      <trkpt lat="45.2047" lon="0.41793">
        <ele>193</ele>
        <time>2016-01-26T15:08:46Z</time>
      </trkpt>
      <trkpt lat="45.20464" lon="0.41791">
        <ele>192</ele>
        <time>2016-01-26T15:08:50Z</time>
      </trkpt>
      <trkpt lat="45.20457" lon="0.4179">
        <ele>191</ele>
        <time>2016-01-26T15:08:54Z</time>
      </trkpt>
      <trkpt lat="45.2045" lon="0.41788">
        <ele>188</ele>
        <time>2016-01-26T15:08:59Z</time>
      </trkpt>
      <trkpt lat="45.20443" lon="0.41787">
        <ele>188</ele>
        <time>2016-01-26T15:09:04Z</time>
      </trkpt>
      <trkpt lat="45.20438" lon="0.41788">
        <ele>191</ele>
        <time>2016-01-26T15:09:08Z</time>
      </trkpt>
      <trkpt lat="45.20433" lon="0.41788">
        <ele>193</ele>
        <time>2016-01-26T15:09:13Z</time>
      </trkpt>
      <trkpt lat="45.20428" lon="0.41788">
        <ele>190</ele>
        <time>2016-01-26T15:09:17Z</time>
      </trkpt>
      <trkpt lat="45.20424" lon="0.41788">
        <ele>193</ele>
        <time>2016-01-26T15:09:22Z</time>
      </trkpt>
      <trkpt lat="45.2042" lon="0.4179">
        <ele>198</ele>
        <time>2016-01-26T15:09:30Z</time>
      </trkpt>
      <trkpt lat="45.20416" lon="0.41792">
        <ele>199</ele>
        <time>2016-01-26T15:09:36Z</time>
      </trkpt>
      <trkpt lat="45.20413" lon="0.41793">
        <ele>198</ele>
        <time>2016-01-26T15:09:42Z</time>
      </trkpt>
      <trkpt lat="45.20408" lon="0.41793">
        <ele>198</ele>
        <time>2016-01-26T15:09:47Z</time>
      </trkpt>
      <trkpt lat="45.20402" lon="0.41794">
        <ele>197</ele>
        <time>2016-01-26T15:09:52Z</time>
      </trkpt>
      <trkpt lat="45.20394" lon="0.4179">
        <ele>199</ele>
        <time>2016-01-26T15:09:56Z</time>
      </trkpt>
      <trkpt lat="45.2039" lon="0.41787">
        <ele>198</ele>
        <time>2016-01-26T15:10:00Z</time>
      </trkpt>
      <trkpt lat="45.20387" lon="0.41788">
        <ele>198</ele>
        <time>2016-01-26T15:10:04Z</time>
      </trkpt>
      <trkpt lat="45.20381" lon="0.41787">
        <ele>198</ele>
        <time>2016-01-26T15:10:08Z</time>
      </trkpt>
      <trkpt lat="45.20377" lon="0.41788">
        <ele>197</ele>
        <time>2016-01-26T15:10:13Z</time>
      </trkpt>
      <trkpt lat="45.20373" lon="0.41788">
        <ele>194</ele>
        <time>2016-01-26T15:10:18Z</time>
      </trkpt>
      <trkpt lat="45.20364" lon="0.41788">
        <ele>187</ele>
        <time>2016-01-26T15:10:22Z</time>
      </trkpt>
      <trkpt lat="45.20358" lon="0.41787">
        <ele>187</ele>
        <time>2016-01-26T15:10:26Z</time>
      </trkpt>
      <trkpt lat="45.20354" lon="0.41788">
        <ele>190</ele>
        <time>2016-01-26T15:10:30Z</time>
      </trkpt>
      <trkpt lat="45.20352" lon="0.41787">
        <ele>193</ele>
        <time>2016-01-26T15:10:35Z</time>
      </trkpt>
      <trkpt lat="45.20345" lon="0.41787">
        <ele>193</ele>
        <time>2016-01-26T15:10:40Z</time>
      </trkpt>
      <trkpt lat="45.20338" lon="0.41788">
        <ele>194</ele>
        <time>2016-01-26T15:10:44Z</time>
      </trkpt>
      <trkpt lat="45.20329" lon="0.41788">
        <ele>193</ele>
        <time>2016-01-26T15:10:49Z</time>
      </trkpt>
      <trkpt lat="45.20326" lon="0.41793">
        <ele>194</ele>
        <time>2016-01-26T15:10:54Z</time>
      </trkpt>
      <trkpt lat="45.20322" lon="0.41794">
        <ele>197</ele>
        <time>2016-01-26T15:11:00Z</time>
      </trkpt>
      <trkpt lat="45.2032" lon="0.41792">
        <ele>193</ele>
        <time>2016-01-26T15:11:06Z</time>
      </trkpt>
      <trkpt lat="45.20314" lon="0.4179">
        <ele>192</ele>
        <time>2016-01-26T15:11:10Z</time>
      </trkpt>
      <trkpt lat="45.20312" lon="0.41791">
        <ele>192</ele>
        <time>2016-01-26T15:11:26Z</time>
      </trkpt>
      <trkpt lat="45.203" lon="0.41786">
        <ele>190</ele>
        <time>2016-01-26T15:11:30Z</time>
      </trkpt>
      <trkpt lat="45.2029" lon="0.41783">
        <ele>187</ele>
        <time>2016-01-26T15:11:35Z</time>
      </trkpt>
      <trkpt lat="45.20277" lon="0.41777">
        <ele>182</ele>
        <time>2016-01-26T15:11:39Z</time>
      </trkpt>
      <trkpt lat="45.20273" lon="0.41774">
        <ele>179</ele>
        <time>2016-01-26T15:11:43Z</time>
      </trkpt>
      <trkpt lat="45.20269" lon="0.41771">
        <ele>181</ele>
        <time>2016-01-26T15:11:50Z</time>
      </trkpt>
      <trkpt lat="45.20266" lon="0.41767">
        <ele>182</ele>
        <time>2016-01-26T15:11:55Z</time>
      </trkpt>
      <trkpt lat="45.20263" lon="0.41763">
        <ele>182</ele>
        <time>2016-01-26T15:12:06Z</time>
      </trkpt>
      <trkpt lat="45.20255" lon="0.41759">
        <ele>181</ele>
        <time>2016-01-26T15:12:10Z</time>
      </trkpt>
      <trkpt lat="45.20247" lon="0.41758">
        <ele>182</ele>
        <time>2016-01-26T15:12:15Z</time>
      </trkpt>
      <trkpt lat="45.20245" lon="0.41757">
        <ele>182</ele>
        <time>2016-01-26T15:12:22Z</time>
      </trkpt>
      <trkpt lat="45.20234" lon="0.4176">
        <ele>177</ele>
        <time>2016-01-26T15:12:27Z</time>
      </trkpt>
      <trkpt lat="45.20228" lon="0.41756">
        <ele>177</ele>
        <time>2016-01-26T15:12:31Z</time>
      </trkpt>
      <trkpt lat="45.20224" lon="0.41754">
        <ele>177</ele>
        <time>2016-01-26T15:12:36Z</time>
      </trkpt>
      <trkpt lat="45.2022" lon="0.41751">
        <ele>177</ele>
        <time>2016-01-26T15:12:41Z</time>
      </trkpt>
      <trkpt lat="45.20217" lon="0.41751">
        <ele>177</ele>
        <time>2016-01-26T15:12:48Z</time>
      </trkpt>
      <trkpt lat="45.20207" lon="0.4175">
        <ele>177</ele>
        <time>2016-01-26T15:12:53Z</time>
      </trkpt>
      <trkpt lat="45.202" lon="0.41748">
        <ele>177</ele>
        <time>2016-01-26T15:12:58Z</time>
      </trkpt>
      <trkpt lat="45.20195" lon="0.41747">
        <ele>178</ele>
        <time>2016-01-26T15:13:02Z</time>
      </trkpt>
      <trkpt lat="45.20192" lon="0.41748">
        <ele>177</ele>
        <time>2016-01-26T15:13:16Z</time>
      </trkpt>
      <trkpt lat="45.20184" lon="0.41748">
        <ele>177</ele>
        <time>2016-01-26T15:13:21Z</time>
      </trkpt>
      <trkpt lat="45.2018" lon="0.41746">
        <ele>177</ele>
        <time>2016-01-26T15:13:27Z</time>
      </trkpt>
      <trkpt lat="45.20172" lon="0.41748">
        <ele>172</ele>
        <time>2016-01-26T15:13:32Z</time>
      </trkpt>
      <trkpt lat="45.20168" lon="0.41748">
        <ele>174</ele>
        <time>2016-01-26T15:13:37Z</time>
      </trkpt>
      <trkpt lat="45.20164" lon="0.41747">
        <ele>176</ele>
        <time>2016-01-26T15:13:47Z</time>
      </trkpt>
      <trkpt lat="45.20158" lon="0.41747">
        <ele>174</ele>
        <time>2016-01-26T15:13:51Z</time>
      </trkpt>
      <trkpt lat="45.20149" lon="0.4175">
        <ele>175</ele>
        <time>2016-01-26T15:13:56Z</time>
      </trkpt>
      <trkpt lat="45.20144" lon="0.41741">
        <ele>178</ele>
        <time>2016-01-26T15:14:00Z</time>
      </trkpt>
      <trkpt lat="45.20135" lon="0.41739">
        <ele>173</ele>
        <time>2016-01-26T15:14:05Z</time>
      </trkpt>
      <trkpt lat="45.20129" lon="0.41736">
        <ele>173</ele>
        <time>2016-01-26T15:14:09Z</time>
      </trkpt>
      <trkpt lat="45.20123" lon="0.41734">
        <ele>172</ele>
        <time>2016-01-26T15:14:14Z</time>
      </trkpt>
      <trkpt lat="45.20121" lon="0.41732">
        <ele>170</ele>
        <time>2016-01-26T15:14:18Z</time>
      </trkpt>
      <trkpt lat="45.20114" lon="0.41729">
        <ele>170</ele>
        <time>2016-01-26T15:14:23Z</time>
      </trkpt>
      <trkpt lat="45.2011" lon="0.41729">
        <ele>168</ele>
        <time>2016-01-26T15:14:27Z</time>
      </trkpt>
      <trkpt lat="45.20102" lon="0.41728">
        <ele>165</ele>
        <time>2016-01-26T15:14:32Z</time>
      </trkpt>
      <trkpt lat="45.20099" lon="0.41725">
        <ele>165</ele>
        <time>2016-01-26T15:14:37Z</time>
      </trkpt>
      <trkpt lat="45.20096" lon="0.41722">
        <ele>169</ele>
        <time>2016-01-26T15:14:48Z</time>
      </trkpt>
      <trkpt lat="45.20094" lon="0.41717">
        <ele>174</ele>
        <time>2016-01-26T15:14:58Z</time>
      </trkpt>
      <trkpt lat="45.20095" lon="0.41711">
        <ele>170</ele>
        <time>2016-01-26T15:15:03Z</time>
      </trkpt>
      <trkpt lat="45.20093" lon="0.41705">
        <ele>168</ele>
        <time>2016-01-26T15:15:08Z</time>
      </trkpt>
      <trkpt lat="45.2009" lon="0.41702">
        <ele>168</ele>
        <time>2016-01-26T15:15:13Z</time>
      </trkpt>
      <trkpt lat="45.20088" lon="0.41697">
        <ele>167</ele>
        <time>2016-01-26T15:15:25Z</time>
      </trkpt>
      <trkpt lat="45.20083" lon="0.41691">
        <ele>169</ele>
        <time>2016-01-26T15:15:29Z</time>
      </trkpt>
      <trkpt lat="45.20083" lon="0.41684">
        <ele>166</ele>
        <time>2016-01-26T15:15:35Z</time>
      </trkpt>
      <trkpt lat="45.20084" lon="0.41678">
        <ele>166</ele>
        <time>2016-01-26T15:15:40Z</time>
      </trkpt>
      <trkpt lat="45.20084" lon="0.41672">
        <ele>171</ele>
        <time>2016-01-26T15:15:46Z</time>
      </trkpt>
      <trkpt lat="45.20084" lon="0.41669">
        <ele>173</ele>
        <time>2016-01-26T15:15:53Z</time>
      </trkpt>
      <trkpt lat="45.20085" lon="0.41658">
        <ele>170</ele>
        <time>2016-01-26T15:15:57Z</time>
      </trkpt>
      <trkpt lat="45.20086" lon="0.41647">
        <ele>167</ele>
        <time>2016-01-26T15:16:02Z</time>
      </trkpt>
      <trkpt lat="45.20084" lon="0.41637">
        <ele>164</ele>
        <time>2016-01-26T15:16:06Z</time>
      </trkpt>
      <trkpt lat="45.20085" lon="0.41627">
        <ele>163</ele>
        <time>2016-01-26T15:16:11Z</time>
      </trkpt>
      <trkpt lat="45.20086" lon="0.41622">
        <ele>164</ele>
        <time>2016-01-26T15:16:15Z</time>
      </trkpt>
      <trkpt lat="45.20087" lon="0.41616">
        <ele>168</ele>
        <time>2016-01-26T15:16:20Z</time>
      </trkpt>
      <trkpt lat="45.20086" lon="0.41608">
        <ele>167</ele>
        <time>2016-01-26T15:16:25Z</time>
      </trkpt>
      <trkpt lat="45.20087" lon="0.41601">
        <ele>168</ele>
        <time>2016-01-26T15:16:30Z</time>
      </trkpt>
      <trkpt lat="45.20086" lon="0.41596">
        <ele>171</ele>
        <time>2016-01-26T15:16:35Z</time>
      </trkpt>
      <trkpt lat="45.20088" lon="0.4159">
        <ele>174</ele>
        <time>2016-01-26T15:16:40Z</time>
      </trkpt>
      <trkpt lat="45.20089" lon="0.41582">
        <ele>174</ele>
        <time>2016-01-26T15:16:45Z</time>
      </trkpt>
      <trkpt lat="45.20091" lon="0.41575">
        <ele>178</ele>
        <time>2016-01-26T15:16:50Z</time>
      </trkpt>
      <trkpt lat="45.20091" lon="0.4157">
        <ele>180</ele>
        <time>2016-01-26T15:16:55Z</time>
      </trkpt>
      <trkpt lat="45.20091" lon="0.41565">
        <ele>181</ele>
        <time>2016-01-26T15:17:03Z</time>
      </trkpt>
      <trkpt lat="45.20093" lon="0.41557">
        <ele>182</ele>
        <time>2016-01-26T15:17:08Z</time>
      </trkpt>
      <trkpt lat="45.20093" lon="0.41551">
        <ele>182</ele>
        <time>2016-01-26T15:17:13Z</time>
      </trkpt>
      <trkpt lat="45.20094" lon="0.41537">
        <ele>178</ele>
        <time>2016-01-26T15:17:18Z</time>
      </trkpt>
      <trkpt lat="45.20094" lon="0.4153">
        <ele>175</ele>
        <time>2016-01-26T15:17:22Z</time>
      </trkpt>
      <trkpt lat="45.20095" lon="0.41525">
        <ele>175</ele>
        <time>2016-01-26T15:17:26Z</time>
      </trkpt>
      <trkpt lat="45.20094" lon="0.41519">
        <ele>176</ele>
        <time>2016-01-26T15:17:31Z</time>
      </trkpt>
      <trkpt lat="45.20096" lon="0.41515">
        <ele>178</ele>
        <time>2016-01-26T15:17:36Z</time>
      </trkpt>
      <trkpt lat="45.20098" lon="0.41509">
        <ele>182</ele>
        <time>2016-01-26T15:17:42Z</time>
      </trkpt>
      <trkpt lat="45.20096" lon="0.41504">
        <ele>183</ele>
        <time>2016-01-26T15:17:49Z</time>
      </trkpt>
      <trkpt lat="45.20098" lon="0.41498">
        <ele>186</ele>
        <time>2016-01-26T15:17:56Z</time>
      </trkpt>
      <trkpt lat="45.20096" lon="0.41487">
        <ele>182</ele>
        <time>2016-01-26T15:18:01Z</time>
      </trkpt>
      <trkpt lat="45.20098" lon="0.4148">
        <ele>182</ele>
        <time>2016-01-26T15:18:05Z</time>
      </trkpt>
      <trkpt lat="45.20095" lon="0.41475">
        <ele>182</ele>
        <time>2016-01-26T15:18:09Z</time>
      </trkpt>
      <trkpt lat="45.20097" lon="0.41469">
        <ele>183</ele>
        <time>2016-01-26T15:18:13Z</time>
      </trkpt>
      <trkpt lat="45.20099" lon="0.41462">
        <ele>185</ele>
        <time>2016-01-26T15:18:18Z</time>
      </trkpt>
      <trkpt lat="45.201" lon="0.41456">
        <ele>190</ele>
        <time>2016-01-26T15:18:26Z</time>
      </trkpt>
      <trkpt lat="45.20102" lon="0.4145">
        <ele>194</ele>
        <time>2016-01-26T15:18:31Z</time>
      </trkpt>
      <trkpt lat="45.20102" lon="0.41443">
        <ele>193</ele>
        <time>2016-01-26T15:18:36Z</time>
      </trkpt>
      <trkpt lat="45.20104" lon="0.41423">
        <ele>189</ele>
        <time>2016-01-26T15:18:41Z</time>
      </trkpt>
      <trkpt lat="45.20106" lon="0.41415">
        <ele>187</ele>
        <time>2016-01-26T15:18:45Z</time>
      </trkpt>
      <trkpt lat="45.20109" lon="0.41413">
        <ele>189</ele>
        <time>2016-01-26T15:18:51Z</time>
      </trkpt>
      <trkpt lat="45.20113" lon="0.41405">
        <ele>192</ele>
        <time>2016-01-26T15:18:56Z</time>
      </trkpt>
      <trkpt lat="45.20116" lon="0.41397">
        <ele>193</ele>
        <time>2016-01-26T15:19:00Z</time>
      </trkpt>
      <trkpt lat="45.20115" lon="0.41389">
        <ele>195</ele>
        <time>2016-01-26T15:19:05Z</time>
      </trkpt>
      <trkpt lat="45.20114" lon="0.41383">
        <ele>197</ele>
        <time>2016-01-26T15:19:09Z</time>
      </trkpt>
      <trkpt lat="45.20116" lon="0.41375">
        <ele>196</ele>
        <time>2016-01-26T15:19:13Z</time>
      </trkpt>
      <trkpt lat="45.20118" lon="0.41366">
        <ele>195</ele>
        <time>2016-01-26T15:19:17Z</time>
      </trkpt>
      <trkpt lat="45.20121" lon="0.41359">
        <ele>195</ele>
        <time>2016-01-26T15:19:21Z</time>
      </trkpt>
      <trkpt lat="45.20121" lon="0.41352">
        <ele>193</ele>
        <time>2016-01-26T15:19:25Z</time>
      </trkpt>
      <trkpt lat="45.20122" lon="0.41346">
        <ele>192</ele>
        <time>2016-01-26T15:19:30Z</time>
      </trkpt>
      <trkpt lat="45.20123" lon="0.4134">
        <ele>191</ele>
        <time>2016-01-26T15:19:35Z</time>
      </trkpt>
      <trkpt lat="45.20123" lon="0.41333">
        <ele>188</ele>
        <time>2016-01-26T15:19:39Z</time>
      </trkpt>
      <trkpt lat="45.20124" lon="0.41326">
        <ele>184</ele>
        <time>2016-01-26T15:19:43Z</time>
      </trkpt>
      <trkpt lat="45.20125" lon="0.41321">
        <ele>183</ele>
        <time>2016-01-26T15:19:47Z</time>
      </trkpt>
      <trkpt lat="45.20124" lon="0.41315">
        <ele>184</ele>
        <time>2016-01-26T15:19:52Z</time>
      </trkpt>
      <trkpt lat="45.20125" lon="0.4131">
        <ele>184</ele>
        <time>2016-01-26T15:19:56Z</time>
      </trkpt>
      <trkpt lat="45.20125" lon="0.41302">
        <ele>184</ele>
        <time>2016-01-26T15:20:00Z</time>
      </trkpt>
      <trkpt lat="45.20128" lon="0.41296">
        <ele>183</ele>
        <time>2016-01-26T15:20:05Z</time>
      </trkpt>
      <trkpt lat="45.20129" lon="0.4129">
        <ele>181</ele>
        <time>2016-01-26T15:20:09Z</time>
      </trkpt>
      <trkpt lat="45.20132" lon="0.41282">
        <ele>182</ele>
        <time>2016-01-26T15:20:13Z</time>
      </trkpt>
      <trkpt lat="45.20133" lon="0.41277">
        <ele>183</ele>
        <time>2016-01-26T15:20:17Z</time>
      </trkpt>
      <trkpt lat="45.20136" lon="0.41267">
        <ele>186</ele>
        <time>2016-01-26T15:20:22Z</time>
      </trkpt>
      <trkpt lat="45.20138" lon="0.4126">
        <ele>185</ele>
        <time>2016-01-26T15:20:26Z</time>
      </trkpt>
      <trkpt lat="45.20139" lon="0.41253">
        <ele>184</ele>
        <time>2016-01-26T15:20:31Z</time>
      </trkpt>
      <trkpt lat="45.2014" lon="0.41248">
        <ele>181</ele>
        <time>2016-01-26T15:20:35Z</time>
      </trkpt>
      <trkpt lat="45.20142" lon="0.41242">
        <ele>182</ele>
        <time>2016-01-26T15:20:39Z</time>
      </trkpt>
      <trkpt lat="45.20145" lon="0.41235">
        <ele>183</ele>
        <time>2016-01-26T15:20:44Z</time>
      </trkpt>
      <trkpt lat="45.20145" lon="0.41229">
        <ele>184</ele>
        <time>2016-01-26T15:20:48Z</time>
      </trkpt>
      <trkpt lat="45.20148" lon="0.41223">
        <ele>184</ele>
        <time>2016-01-26T15:20:52Z</time>
      </trkpt>
      <trkpt lat="45.20149" lon="0.41218">
        <ele>184</ele>
        <time>2016-01-26T15:20:56Z</time>
      </trkpt>
      <trkpt lat="45.20151" lon="0.41212">
        <ele>184</ele>
        <time>2016-01-26T15:21:00Z</time>
      </trkpt>
      <trkpt lat="45.20153" lon="0.41203">
        <ele>183</ele>
        <time>2016-01-26T15:21:05Z</time>
      </trkpt>
      <trkpt lat="45.20154" lon="0.41196">
        <ele>183</ele>
        <time>2016-01-26T15:21:09Z</time>
      </trkpt>
      <trkpt lat="45.20156" lon="0.41187">
        <ele>183</ele>
        <time>2016-01-26T15:21:14Z</time>
      </trkpt>
      <trkpt lat="45.20157" lon="0.41178">
        <ele>184</ele>
        <time>2016-01-26T15:21:19Z</time>
      </trkpt>
      <trkpt lat="45.20157" lon="0.41172">
        <ele>183</ele>
        <time>2016-01-26T15:21:23Z</time>
      </trkpt>
      <trkpt lat="45.20157" lon="0.41164">
        <ele>186</ele>
        <time>2016-01-26T15:21:27Z</time>
      </trkpt>
      <trkpt lat="45.20159" lon="0.41156">
        <ele>186</ele>
        <time>2016-01-26T15:21:32Z</time>
      </trkpt>
      <trkpt lat="45.20158" lon="0.41149">
        <ele>185</ele>
        <time>2016-01-26T15:21:36Z</time>
      </trkpt>
      <trkpt lat="45.20156" lon="0.41144">
        <ele>184</ele>
        <time>2016-01-26T15:21:41Z</time>
      </trkpt>
      <trkpt lat="45.20151" lon="0.4114">
        <ele>185</ele>
        <time>2016-01-26T15:21:46Z</time>
      </trkpt>
      <trkpt lat="45.20145" lon="0.41137">
        <ele>184</ele>
        <time>2016-01-26T15:21:50Z</time>
      </trkpt>
      <trkpt lat="45.20141" lon="0.41139">
        <ele>180</ele>
        <time>2016-01-26T15:22:10Z</time>
      </trkpt>
      <trkpt lat="45.20136" lon="0.41139">
        <ele>178</ele>
        <time>2016-01-26T15:22:15Z</time>
      </trkpt>
      <trkpt lat="45.20133" lon="0.41142">
        <ele>181</ele>
        <time>2016-01-26T15:22:38Z</time>
      </trkpt>
      <trkpt lat="45.20129" lon="0.41146">
        <ele>181</ele>
        <time>2016-01-26T15:22:46Z</time>
      </trkpt>
      <trkpt lat="45.20125" lon="0.41149">
        <ele>181</ele>
        <time>2016-01-26T15:22:53Z</time>
      </trkpt>
      <trkpt lat="45.20122" lon="0.41152">
        <ele>180</ele>
        <time>2016-01-26T15:22:58Z</time>
      </trkpt>
      <trkpt lat="45.20118" lon="0.41151">
        <ele>181</ele>
        <time>2016-01-26T15:23:26Z</time>
      </trkpt>
      <trkpt lat="45.20113" lon="0.41154">
        <ele>180</ele>
        <time>2016-01-26T15:23:30Z</time>
      </trkpt>
      <trkpt lat="45.20109" lon="0.41154">
        <ele>181</ele>
        <time>2016-01-26T15:23:37Z</time>
      </trkpt>
      <trkpt lat="45.20106" lon="0.41157">
        <ele>183</ele>
        <time>2016-01-26T15:23:42Z</time>
      </trkpt>
      <trkpt lat="45.20102" lon="0.41158">
        <ele>185</ele>
        <time>2016-01-26T15:23:47Z</time>
      </trkpt>
      <trkpt lat="45.20099" lon="0.41156">
        <ele>183</ele>
        <time>2016-01-26T15:23:51Z</time>
      </trkpt>
      <trkpt lat="45.20095" lon="0.41154">
        <ele>184</ele>
        <time>2016-01-26T15:23:58Z</time>
      </trkpt>
      <trkpt lat="45.20092" lon="0.4115">
        <ele>183</ele>
        <time>2016-01-26T15:24:02Z</time>
      </trkpt>
      <trkpt lat="45.20091" lon="0.41145">
        <ele>183</ele>
        <time>2016-01-26T15:24:09Z</time>
      </trkpt>
      <trkpt lat="45.20093" lon="0.41136">
        <ele>182</ele>
        <time>2016-01-26T15:24:13Z</time>
      </trkpt>
      <trkpt lat="45.20095" lon="0.4113">
        <ele>184</ele>
        <time>2016-01-26T15:24:18Z</time>
      </trkpt>
      <trkpt lat="45.20094" lon="0.41123">
        <ele>188</ele>
        <time>2016-01-26T15:24:23Z</time>
      </trkpt>
      <trkpt lat="45.20096" lon="0.41117">
        <ele>187</ele>
        <time>2016-01-26T15:24:27Z</time>
      </trkpt>
      <trkpt lat="45.20097" lon="0.41112">
        <ele>187</ele>
        <time>2016-01-26T15:24:35Z</time>
      </trkpt>
      <trkpt lat="45.20099" lon="0.41107">
        <ele>194</ele>
        <time>2016-01-26T15:24:39Z</time>
      </trkpt>
      <trkpt lat="45.20098" lon="0.41101">
        <ele>193</ele>
        <time>2016-01-26T15:24:46Z</time>
      </trkpt>
      <trkpt lat="45.20097" lon="0.41096">
        <ele>193</ele>
        <time>2016-01-26T15:24:50Z</time>
      </trkpt>
      <trkpt lat="45.20096" lon="0.41089">
        <ele>192</ele>
        <time>2016-01-26T15:24:56Z</time>
      </trkpt>
      <trkpt lat="45.20096" lon="0.41084">
        <ele>191</ele>
        <time>2016-01-26T15:25:02Z</time>
      </trkpt>
      <trkpt lat="45.20089" lon="0.41077">
        <ele>185</ele>
        <time>2016-01-26T15:25:07Z</time>
      </trkpt>
      <trkpt lat="45.20086" lon="0.41072">
        <ele>184</ele>
        <time>2016-01-26T15:25:11Z</time>
      </trkpt>
      <trkpt lat="45.20081" lon="0.41066">
        <ele>183</ele>
        <time>2016-01-26T15:25:15Z</time>
      </trkpt>
      <trkpt lat="45.20076" lon="0.41061">
        <ele>180</ele>
        <time>2016-01-26T15:25:20Z</time>
      </trkpt>
      <trkpt lat="45.20072" lon="0.41058">
        <ele>180</ele>
        <time>2016-01-26T15:25:24Z</time>
      </trkpt>
      <trkpt lat="45.20067" lon="0.41056">
        <ele>179</ele>
        <time>2016-01-26T15:25:28Z</time>
      </trkpt>
      <trkpt lat="45.20064" lon="0.41055">
        <ele>179</ele>
        <time>2016-01-26T15:25:32Z</time>
      </trkpt>
      <trkpt lat="45.20058" lon="0.41052">
        <ele>179</ele>
        <time>2016-01-26T15:25:37Z</time>
      </trkpt>
      <trkpt lat="45.20054" lon="0.4105">
        <ele>180</ele>
        <time>2016-01-26T15:25:41Z</time>
      </trkpt>
      <trkpt lat="45.20049" lon="0.4105">
        <ele>180</ele>
        <time>2016-01-26T15:25:45Z</time>
      </trkpt>
      <trkpt lat="45.20044" lon="0.41049">
        <ele>179</ele>
        <time>2016-01-26T15:25:50Z</time>
      </trkpt>
      <trkpt lat="45.2004" lon="0.41046">
        <ele>179</ele>
        <time>2016-01-26T15:25:54Z</time>
      </trkpt>
      <trkpt lat="45.20035" lon="0.41046">
        <ele>179</ele>
        <time>2016-01-26T15:25:58Z</time>
      </trkpt>
      <trkpt lat="45.2003" lon="0.41045">
        <ele>179</ele>
        <time>2016-01-26T15:26:02Z</time>
      </trkpt>
      <trkpt lat="45.20025" lon="0.41046">
        <ele>180</ele>
        <time>2016-01-26T15:26:07Z</time>
      </trkpt>
      <trkpt lat="45.20021" lon="0.41045">
        <ele>181</ele>
        <time>2016-01-26T15:26:11Z</time>
      </trkpt>
      <trkpt lat="45.20016" lon="0.41044">
        <ele>181</ele>
        <time>2016-01-26T15:26:15Z</time>
      </trkpt>
      <trkpt lat="45.20011" lon="0.41047">
        <ele>180</ele>
        <time>2016-01-26T15:26:19Z</time>
      </trkpt>
      <trkpt lat="45.20007" lon="0.41048">
        <ele>179</ele>
        <time>2016-01-26T15:26:23Z</time>
      </trkpt>
      <trkpt lat="45.20003" lon="0.41048">
        <ele>180</ele>
        <time>2016-01-26T15:26:27Z</time>
      </trkpt>
      <trkpt lat="45.19997" lon="0.41051">
        <ele>180</ele>
        <time>2016-01-26T15:26:32Z</time>
      </trkpt>
      <trkpt lat="45.19993" lon="0.41055">
        <ele>179</ele>
        <time>2016-01-26T15:26:36Z</time>
      </trkpt>
      <trkpt lat="45.19989" lon="0.41055">
        <ele>178</ele>
        <time>2016-01-26T15:26:40Z</time>
      </trkpt>
      <trkpt lat="45.19983" lon="0.41052">
        <ele>178</ele>
        <time>2016-01-26T15:26:44Z</time>
      </trkpt>
      <trkpt lat="45.1998" lon="0.41053">
        <ele>179</ele>
        <time>2016-01-26T15:26:49Z</time>
      </trkpt>
      <trkpt lat="45.19973" lon="0.41053">
        <ele>180</ele>
        <time>2016-01-26T15:26:54Z</time>
      </trkpt>
      <trkpt lat="45.19968" lon="0.41055">
        <ele>178</ele>
        <time>2016-01-26T15:26:58Z</time>
      </trkpt>
      <trkpt lat="45.19962" lon="0.41055">
        <ele>180</ele>
        <time>2016-01-26T15:27:03Z</time>
      </trkpt>
      <trkpt lat="45.19957" lon="0.41057">
        <ele>180</ele>
        <time>2016-01-26T15:27:08Z</time>
      </trkpt>
      <trkpt lat="45.19952" lon="0.41055">
        <ele>178</ele>
        <time>2016-01-26T15:27:12Z</time>
      </trkpt>
      <trkpt lat="45.19945" lon="0.4106">
        <ele>176</ele>
        <time>2016-01-26T15:27:17Z</time>
      </trkpt>
      <trkpt lat="45.1994" lon="0.41061">
        <ele>177</ele>
        <time>2016-01-26T15:27:21Z</time>
      </trkpt>
      <trkpt lat="45.19935" lon="0.41066">
        <ele>177</ele>
        <time>2016-01-26T15:27:26Z</time>
      </trkpt>
      <trkpt lat="45.19932" lon="0.41071">
        <ele>178</ele>
        <time>2016-01-26T15:27:30Z</time>
      </trkpt>
      <trkpt lat="45.19928" lon="0.41075">
        <ele>176</ele>
        <time>2016-01-26T15:27:34Z</time>
      </trkpt>
      <trkpt lat="45.19924" lon="0.4108">
        <ele>176</ele>
        <time>2016-01-26T15:27:38Z</time>
      </trkpt>
      <trkpt lat="45.1992" lon="0.41081">
        <ele>176</ele>
        <time>2016-01-26T15:27:42Z</time>
      </trkpt>
      <trkpt lat="45.19916" lon="0.41082">
        <ele>175</ele>
        <time>2016-01-26T15:27:47Z</time>
      </trkpt>
      <trkpt lat="45.19912" lon="0.4108">
        <ele>176</ele>
        <time>2016-01-26T15:27:51Z</time>
      </trkpt>
      <trkpt lat="45.19909" lon="0.41083">
        <ele>175</ele>
        <time>2016-01-26T15:27:55Z</time>
      </trkpt>
      <trkpt lat="45.19904" lon="0.41088">
        <ele>174</ele>
        <time>2016-01-26T15:28:00Z</time>
      </trkpt>
      <trkpt lat="45.19898" lon="0.41087">
        <ele>173</ele>
        <time>2016-01-26T15:28:04Z</time>
      </trkpt>
      <trkpt lat="45.19893" lon="0.4109">
        <ele>172</ele>
        <time>2016-01-26T15:28:08Z</time>
      </trkpt>
      <trkpt lat="45.19888" lon="0.41089">
        <ele>171</ele>
        <time>2016-01-26T15:28:12Z</time>
      </trkpt>
      <trkpt lat="45.19884" lon="0.41092">
        <ele>171</ele>
        <time>2016-01-26T15:28:16Z</time>
      </trkpt>
      <trkpt lat="45.19879" lon="0.41091">
        <ele>171</ele>
        <time>2016-01-26T15:28:20Z</time>
      </trkpt>
      <trkpt lat="45.19875" lon="0.41088">
        <ele>172</ele>
        <time>2016-01-26T15:28:24Z</time>
      </trkpt>
      <trkpt lat="45.19871" lon="0.4109">
        <ele>172</ele>
        <time>2016-01-26T15:28:28Z</time>
      </trkpt>
      <trkpt lat="45.19868" lon="0.41086">
        <ele>173</ele>
        <time>2016-01-26T15:28:32Z</time>
      </trkpt>
      <trkpt lat="45.19862" lon="0.41089">
        <ele>173</ele>
        <time>2016-01-26T15:28:37Z</time>
      </trkpt>
      <trkpt lat="45.19858" lon="0.41087">
        <ele>172</ele>
        <time>2016-01-26T15:28:41Z</time>
      </trkpt>
      <trkpt lat="45.19852" lon="0.41086">
        <ele>171</ele>
        <time>2016-01-26T15:28:45Z</time>
      </trkpt>
      <trkpt lat="45.19847" lon="0.41083">
        <ele>172</ele>
        <time>2016-01-26T15:28:50Z</time>
      </trkpt>
      <trkpt lat="45.19844" lon="0.4108">
        <ele>173</ele>
        <time>2016-01-26T15:28:54Z</time>
      </trkpt>
      <trkpt lat="45.1984" lon="0.41077">
        <ele>174</ele>
        <time>2016-01-26T15:28:59Z</time>
      </trkpt>
      <trkpt lat="45.19835" lon="0.41078">
        <ele>173</ele>
        <time>2016-01-26T15:29:03Z</time>
      </trkpt>
      <trkpt lat="45.1983" lon="0.41078">
        <ele>177</ele>
        <time>2016-01-26T15:29:08Z</time>
      </trkpt>
      <trkpt lat="45.19827" lon="0.41073">
        <ele>176</ele>
        <time>2016-01-26T15:29:13Z</time>
      </trkpt>
      <trkpt lat="45.1982" lon="0.41075">
        <ele>175</ele>
        <time>2016-01-26T15:29:18Z</time>
      </trkpt>
      <trkpt lat="45.19816" lon="0.41081">
        <ele>172</ele>
        <time>2016-01-26T15:29:22Z</time>
      </trkpt>
      <trkpt lat="45.19812" lon="0.4108">
        <ele>174</ele>
        <time>2016-01-26T15:29:26Z</time>
      </trkpt>
      <trkpt lat="45.19805" lon="0.41083">
        <ele>169</ele>
        <time>2016-01-26T15:29:31Z</time>
      </trkpt>
      <trkpt lat="45.19801" lon="0.41085">
        <ele>167</ele>
        <time>2016-01-26T15:29:39Z</time>
      </trkpt>
      <trkpt lat="45.19796" lon="0.41084">
        <ele>168</ele>
        <time>2016-01-26T15:29:43Z</time>
      </trkpt>
      <trkpt lat="45.19792" lon="0.41082">
        <ele>169</ele>
        <time>2016-01-26T15:29:47Z</time>
      </trkpt>
      <trkpt lat="45.19787" lon="0.4108">
        <ele>168</ele>
        <time>2016-01-26T15:29:52Z</time>
      </trkpt>
      <trkpt lat="45.19781" lon="0.41076">
        <ele>167</ele>
        <time>2016-01-26T15:29:57Z</time>
      </trkpt>
      <trkpt lat="45.19778" lon="0.41076">
        <ele>166</ele>
        <time>2016-01-26T15:30:03Z</time>
      </trkpt>
      <trkpt lat="45.19775" lon="0.41071">
        <ele>164</ele>
        <time>2016-01-26T15:30:10Z</time>
      </trkpt>
      <trkpt lat="45.19773" lon="0.41066">
        <ele>165</ele>
        <time>2016-01-26T15:30:15Z</time>
      </trkpt>
      <trkpt lat="45.19772" lon="0.41062">
        <ele>165</ele>
        <time>2016-01-26T15:30:19Z</time>
      </trkpt>
      <trkpt lat="45.19769" lon="0.41058">
        <ele>165</ele>
        <time>2016-01-26T15:30:25Z</time>
      </trkpt>
      <trkpt lat="45.19762" lon="0.41055">
        <ele>165</ele>
        <time>2016-01-26T15:30:30Z</time>
      </trkpt>
      <trkpt lat="45.19759" lon="0.41051">
        <ele>165</ele>
        <time>2016-01-26T15:30:34Z</time>
      </trkpt>
      <trkpt lat="45.19757" lon="0.41045">
        <ele>166</ele>
        <time>2016-01-26T15:30:39Z</time>
      </trkpt>
      <trkpt lat="45.19753" lon="0.41045">
        <ele>164</ele>
        <time>2016-01-26T15:30:45Z</time>
      </trkpt>
      <trkpt lat="45.19753" lon="0.41039">
        <ele>163</ele>
        <time>2016-01-26T15:30:55Z</time>
      </trkpt>
      <trkpt lat="45.19751" lon="0.41031">
        <ele>165</ele>
        <time>2016-01-26T15:31:00Z</time>
      </trkpt>
      <trkpt lat="45.19755" lon="0.41024">
        <ele>164</ele>
        <time>2016-01-26T15:31:04Z</time>
      </trkpt>
      <trkpt lat="45.19757" lon="0.41017">
        <ele>162</ele>
        <time>2016-01-26T15:31:08Z</time>
      </trkpt>
      <trkpt lat="45.19759" lon="0.4101">
        <ele>164</ele>
        <time>2016-01-26T15:31:13Z</time>
      </trkpt>
      <trkpt lat="45.19763" lon="0.41004">
        <ele>169</ele>
        <time>2016-01-26T15:31:17Z</time>
      </trkpt>
      <trkpt lat="45.19764" lon="0.40998">
        <ele>168</ele>
        <time>2016-01-26T15:31:21Z</time>
      </trkpt>
      <trkpt lat="45.19766" lon="0.40992">
        <ele>171</ele>
        <time>2016-01-26T15:31:26Z</time>
      </trkpt>
      <trkpt lat="45.19766" lon="0.40986">
        <ele>169</ele>
        <time>2016-01-26T15:31:31Z</time>
      </trkpt>
      <trkpt lat="45.19765" lon="0.4098">
        <ele>173</ele>
        <time>2016-01-26T15:31:35Z</time>
      </trkpt>
      <trkpt lat="45.19764" lon="0.40974">
        <ele>173</ele>
        <time>2016-01-26T15:31:39Z</time>
      </trkpt>
      <trkpt lat="45.19765" lon="0.40968">
        <ele>177</ele>
        <time>2016-01-26T15:31:44Z</time>
      </trkpt>
      <trkpt lat="45.19765" lon="0.40962">
        <ele>177</ele>
        <time>2016-01-26T15:31:48Z</time>
      </trkpt>
      <trkpt lat="45.19759" lon="0.40959">
        <ele>173</ele>
        <time>2016-01-26T15:31:53Z</time>
      </trkpt>
      <trkpt lat="45.19758" lon="0.40953">
        <ele>171</ele>
        <time>2016-01-26T15:32:03Z</time>
      </trkpt>
      <trkpt lat="45.19761" lon="0.40948">
        <ele>176</ele>
        <time>2016-01-26T15:32:08Z</time>
      </trkpt>
      <trkpt lat="45.19762" lon="0.40943">
        <ele>177</ele>
        <time>2016-01-26T15:32:17Z</time>
      </trkpt>
      <trkpt lat="45.19761" lon="0.40938">
        <ele>176</ele>
        <time>2016-01-26T15:32:25Z</time>
      </trkpt>
      <trkpt lat="45.19756" lon="0.40936">
        <ele>172</ele>
        <time>2016-01-26T15:32:29Z</time>
      </trkpt>
      <trkpt lat="45.19756" lon="0.40931">
        <ele>178</ele>
        <time>2016-01-26T15:33:39Z</time>
      </trkpt>
      <trkpt lat="45.19759" lon="0.40926">
        <ele>173</ele>
        <time>2016-01-26T15:34:27Z</time>
      </trkpt>
      <trkpt lat="45.19763" lon="0.40922">
        <ele>176</ele>
        <time>2016-01-26T15:34:50Z</time>
      </trkpt>
      <trkpt lat="45.19763" lon="0.40916">
        <ele>176</ele>
        <time>2016-01-26T15:34:57Z</time>
      </trkpt>
      <trkpt lat="45.19763" lon="0.40909">
        <ele>175</ele>
        <time>2016-01-26T15:35:01Z</time>
      </trkpt>
      <trkpt lat="45.19762" lon="0.40905">
        <ele>177</ele>
        <time>2016-01-26T15:35:10Z</time>
      </trkpt>
      <trkpt lat="45.19754" lon="0.40899">
        <ele>177</ele>
        <time>2016-01-26T15:35:14Z</time>
      </trkpt>
      <trkpt lat="45.19752" lon="0.40893">
        <ele>182</ele>
        <time>2016-01-26T15:35:18Z</time>
      </trkpt>
      <trkpt lat="45.19753" lon="0.40887">
        <ele>181</ele>
        <time>2016-01-26T15:35:23Z</time>
      </trkpt>
      <trkpt lat="45.19751" lon="0.40881">
        <ele>182</ele>
        <time>2016-01-26T15:35:28Z</time>
      </trkpt>
      <trkpt lat="45.1975" lon="0.40874">
        <ele>181</ele>
        <time>2016-01-26T15:35:32Z</time>
      </trkpt>
      <trkpt lat="45.19748" lon="0.40869">
        <ele>182</ele>
        <time>2016-01-26T15:35:36Z</time>
      </trkpt>
      <trkpt lat="45.19746" lon="0.40861">
        <ele>185</ele>
        <time>2016-01-26T15:35:41Z</time>
      </trkpt>
      <trkpt lat="45.19744" lon="0.40856">
        <ele>187</ele>
        <time>2016-01-26T15:35:45Z</time>
      </trkpt>
      <trkpt lat="45.19745" lon="0.40851">
        <ele>191</ele>
        <time>2016-01-26T15:35:49Z</time>
      </trkpt>
      <trkpt lat="45.19742" lon="0.40846">
        <ele>190</ele>
        <time>2016-01-26T15:35:54Z</time>
      </trkpt>
      <trkpt lat="45.19739" lon="0.40841">
        <ele>189</ele>
        <time>2016-01-26T15:35:58Z</time>
      </trkpt>
      <trkpt lat="45.19736" lon="0.40837">
        <ele>189</ele>
        <time>2016-01-26T15:36:02Z</time>
      </trkpt>
      <trkpt lat="45.19736" lon="0.4083">
        <ele>191</ele>
        <time>2016-01-26T15:36:07Z</time>
      </trkpt>
      <trkpt lat="45.19734" lon="0.40823">
        <ele>191</ele>
        <time>2016-01-26T15:36:11Z</time>
      </trkpt>
      <trkpt lat="45.19734" lon="0.40816">
        <ele>193</ele>
        <time>2016-01-26T15:36:15Z</time>
      </trkpt>
      <trkpt lat="45.19723" lon="0.40812">
        <ele>189</ele>
        <time>2016-01-26T15:36:19Z</time>
      </trkpt>
      <trkpt lat="45.19722" lon="0.40806">
        <ele>190</ele>
        <time>2016-01-26T15:36:23Z</time>
      </trkpt>
      <trkpt lat="45.19723" lon="0.408">
        <ele>193</ele>
        <time>2016-01-26T15:36:27Z</time>
      </trkpt>
      <trkpt lat="45.19722" lon="0.40794">
        <ele>195</ele>
        <time>2016-01-26T15:36:32Z</time>
      </trkpt>
      <trkpt lat="45.19723" lon="0.40789">
        <ele>197</ele>
        <time>2016-01-26T15:36:36Z</time>
      </trkpt>
      <trkpt lat="45.19721" lon="0.40782">
        <ele>194</ele>
        <time>2016-01-26T15:36:40Z</time>
      </trkpt>
      <trkpt lat="45.19717" lon="0.40777">
        <ele>193</ele>
        <time>2016-01-26T15:36:44Z</time>
      </trkpt>
      <trkpt lat="45.19712" lon="0.40772">
        <ele>192</ele>
        <time>2016-01-26T15:36:49Z</time>
      </trkpt>
      <trkpt lat="45.1971" lon="0.40767">
        <ele>191</ele>
        <time>2016-01-26T15:36:53Z</time>
      </trkpt>
      <trkpt lat="45.19707" lon="0.40761">
        <ele>190</ele>
        <time>2016-01-26T15:36:58Z</time>
      </trkpt>
      <trkpt lat="45.19701" lon="0.40754">
        <ele>187</ele>
        <time>2016-01-26T15:37:02Z</time>
      </trkpt>
      <trkpt lat="45.19699" lon="0.40747">
        <ele>187</ele>
        <time>2016-01-26T15:37:07Z</time>
      </trkpt>
      <trkpt lat="45.19693" lon="0.40739">
        <ele>185</ele>
        <time>2016-01-26T15:37:12Z</time>
      </trkpt>
      <trkpt lat="45.19692" lon="0.40735">
        <ele>187</ele>
        <time>2016-01-26T15:37:17Z</time>
      </trkpt>
      <trkpt lat="45.19693" lon="0.40729">
        <ele>192</ele>
        <time>2016-01-26T15:37:23Z</time>
      </trkpt>
      <trkpt lat="45.19692" lon="0.40725">
        <ele>193</ele>
        <time>2016-01-26T15:37:31Z</time>
      </trkpt>
      <trkpt lat="45.19692" lon="0.40718">
        <ele>193</ele>
        <time>2016-01-26T15:37:35Z</time>
      </trkpt>
      <trkpt lat="45.19692" lon="0.40713">
        <ele>194</ele>
        <time>2016-01-26T15:37:42Z</time>
      </trkpt>
      <trkpt lat="45.19694" lon="0.40701">
        <ele>194</ele>
        <time>2016-01-26T15:37:46Z</time>
      </trkpt>
      <trkpt lat="45.19695" lon="0.40693">
        <ele>195</ele>
        <time>2016-01-26T15:37:51Z</time>
      </trkpt>
      <trkpt lat="45.19695" lon="0.40685">
        <ele>195</ele>
        <time>2016-01-26T15:37:55Z</time>
      </trkpt>
      <trkpt lat="45.19694" lon="0.40679">
        <ele>196</ele>
        <time>2016-01-26T15:37:59Z</time>
      </trkpt>
      <trkpt lat="45.19694" lon="0.40674">
        <ele>196</ele>
        <time>2016-01-26T15:38:10Z</time>
      </trkpt>
      <trkpt lat="45.19699" lon="0.40663">
        <ele>193</ele>
        <time>2016-01-26T15:38:14Z</time>
      </trkpt>
      <trkpt lat="45.19702" lon="0.40655">
        <ele>191</ele>
        <time>2016-01-26T15:38:19Z</time>
      </trkpt>
      <trkpt lat="45.19705" lon="0.40645">
        <ele>193</ele>
        <time>2016-01-26T15:38:24Z</time>
      </trkpt>
      <trkpt lat="45.19709" lon="0.4064">
        <ele>192</ele>
        <time>2016-01-26T15:38:29Z</time>
      </trkpt>
      <trkpt lat="45.1971" lon="0.40634">
        <ele>195</ele>
        <time>2016-01-26T15:38:33Z</time>
      </trkpt>
      <trkpt lat="45.19712" lon="0.40627">
        <ele>195</ele>
        <time>2016-01-26T15:38:37Z</time>
      </trkpt>
      <trkpt lat="45.19717" lon="0.4062">
        <ele>196</ele>
        <time>2016-01-26T15:38:41Z</time>
      </trkpt>
      <trkpt lat="45.19717" lon="0.40611">
        <ele>194</ele>
        <time>2016-01-26T15:38:46Z</time>
      </trkpt>
      <trkpt lat="45.19717" lon="0.40605">
        <ele>193</ele>
        <time>2016-01-26T15:38:51Z</time>
      </trkpt>
      <trkpt lat="45.19717" lon="0.40597">
        <ele>191</ele>
        <time>2016-01-26T15:38:56Z</time>
      </trkpt>
      <trkpt lat="45.19719" lon="0.40589">
        <ele>192</ele>
        <time>2016-01-26T15:39:01Z</time>
      </trkpt>
      <trkpt lat="45.19719" lon="0.40584">
        <ele>191</ele>
        <time>2016-01-26T15:39:05Z</time>
      </trkpt>
      <trkpt lat="45.19719" lon="0.40578">
        <ele>190</ele>
        <time>2016-01-26T15:39:10Z</time>
      </trkpt>
      <trkpt lat="45.19721" lon="0.40572">
        <ele>191</ele>
        <time>2016-01-26T15:39:14Z</time>
      </trkpt>
      <trkpt lat="45.19719" lon="0.40564">
        <ele>192</ele>
        <time>2016-01-26T15:39:19Z</time>
      </trkpt>
      <trkpt lat="45.19721" lon="0.40558">
        <ele>189</ele>
        <time>2016-01-26T15:39:26Z</time>
      </trkpt>
      <trkpt lat="45.19723" lon="0.40553">
        <ele>189</ele>
        <time>2016-01-26T15:39:32Z</time>
      </trkpt>
      <trkpt lat="45.19728" lon="0.40548">
        <ele>190</ele>
        <time>2016-01-26T15:39:37Z</time>
      </trkpt>
      <trkpt lat="45.19731" lon="0.40544">
        <ele>191</ele>
        <time>2016-01-26T15:39:41Z</time>
      </trkpt>
      <trkpt lat="45.19735" lon="0.4054">
        <ele>188</ele>
        <time>2016-01-26T15:39:48Z</time>
      </trkpt>
      <trkpt lat="45.19738" lon="0.40536">
        <ele>186</ele>
        <time>2016-01-26T15:40:02Z</time>
      </trkpt>
      <trkpt lat="45.19742" lon="0.40535">
        <ele>187</ele>
        <time>2016-01-26T15:40:16Z</time>
      </trkpt>
      <trkpt lat="45.19745" lon="0.40532">
        <ele>187</ele>
        <time>2016-01-26T15:40:21Z</time>
      </trkpt>
      <trkpt lat="45.1975" lon="0.40534">
        <ele>186</ele>
        <time>2016-01-26T15:40:26Z</time>
      </trkpt>
      <trkpt lat="45.19754" lon="0.40534">
        <ele>188</ele>
        <time>2016-01-26T15:40:31Z</time>
      </trkpt>
      <trkpt lat="45.19759" lon="0.40535">
        <ele>188</ele>
        <time>2016-01-26T15:40:36Z</time>
      </trkpt>
      <trkpt lat="45.19764" lon="0.40535">
        <ele>188</ele>
        <time>2016-01-26T15:40:41Z</time>
      </trkpt>
      <trkpt lat="45.1977" lon="0.40537">
        <ele>190</ele>
        <time>2016-01-26T15:40:46Z</time>
      </trkpt>
      <trkpt lat="45.19774" lon="0.40536">
        <ele>192</ele>
        <time>2016-01-26T15:40:51Z</time>
      </trkpt>
      <trkpt lat="45.19779" lon="0.40536">
        <ele>191</ele>
        <time>2016-01-26T15:40:55Z</time>
      </trkpt>
      <trkpt lat="45.19786" lon="0.40531">
        <ele>190</ele>
        <time>2016-01-26T15:41:00Z</time>
      </trkpt>
      <trkpt lat="45.1979" lon="0.40529">
        <ele>189</ele>
        <time>2016-01-26T15:41:05Z</time>
      </trkpt>
      <trkpt lat="45.19797" lon="0.40526">
        <ele>189</ele>
        <time>2016-01-26T15:41:10Z</time>
      </trkpt>
      <trkpt lat="45.19803" lon="0.40525">
        <ele>188</ele>
        <time>2016-01-26T15:41:14Z</time>
      </trkpt>
      <trkpt lat="45.19807" lon="0.40524">
        <ele>188</ele>
        <time>2016-01-26T15:41:18Z</time>
      </trkpt>
      <trkpt lat="45.19814" lon="0.4052">
        <ele>188</ele>
        <time>2016-01-26T15:41:23Z</time>
      </trkpt>
      <trkpt lat="45.1982" lon="0.40521">
        <ele>189</ele>
        <time>2016-01-26T15:41:28Z</time>
      </trkpt>
      <trkpt lat="45.19828" lon="0.40518">
        <ele>191</ele>
        <time>2016-01-26T15:41:33Z</time>
      </trkpt>
      <trkpt lat="45.19833" lon="0.40518">
        <ele>192</ele>
        <time>2016-01-26T15:41:37Z</time>
      </trkpt>
      <trkpt lat="45.1984" lon="0.40517">
        <ele>192</ele>
        <time>2016-01-26T15:41:42Z</time>
      </trkpt>
      <trkpt lat="45.19844" lon="0.40515">
        <ele>192</ele>
        <time>2016-01-26T15:41:48Z</time>
      </trkpt>
      <trkpt lat="45.19849" lon="0.40515">
        <ele>190</ele>
        <time>2016-01-26T15:41:53Z</time>
      </trkpt>
      <trkpt lat="45.19852" lon="0.40512">
        <ele>192</ele>
        <time>2016-01-26T15:41:57Z</time>
      </trkpt>
      <trkpt lat="45.1986" lon="0.4051">
        <ele>192</ele>
        <time>2016-01-26T15:42:02Z</time>
      </trkpt>
      <trkpt lat="45.19862" lon="0.40506">
        <ele>193</ele>
        <time>2016-01-26T15:42:08Z</time>
      </trkpt>
      <trkpt lat="45.19868" lon="0.40505">
        <ele>193</ele>
        <time>2016-01-26T15:42:13Z</time>
      </trkpt>
      <trkpt lat="45.19873" lon="0.40503">
        <ele>192</ele>
        <time>2016-01-26T15:42:19Z</time>
      </trkpt>
      <trkpt lat="45.19878" lon="0.40501">
        <ele>193</ele>
        <time>2016-01-26T15:42:24Z</time>
      </trkpt>
      <trkpt lat="45.19885" lon="0.405">
        <ele>194</ele>
        <time>2016-01-26T15:42:28Z</time>
      </trkpt>
      <trkpt lat="45.1989" lon="0.405">
        <ele>196</ele>
        <time>2016-01-26T15:42:33Z</time>
      </trkpt>
      <trkpt lat="45.19896" lon="0.40499">
        <ele>198</ele>
        <time>2016-01-26T15:42:37Z</time>
      </trkpt>
      <trkpt lat="45.199" lon="0.40497">
        <ele>197</ele>
        <time>2016-01-26T15:42:51Z</time>
      </trkpt>
      <trkpt lat="45.19896" lon="0.40495">
        <ele>189</ele>
        <time>2016-01-26T15:43:22Z</time>
      </trkpt>
      <trkpt lat="45.19892" lon="0.40494">
        <ele>189</ele>
        <time>2016-01-26T15:43:26Z</time>
      </trkpt>
      <trkpt lat="45.19888" lon="0.40495">
        <ele>192</ele>
        <time>2016-01-26T15:43:30Z</time>
      </trkpt>
      <trkpt lat="45.19884" lon="0.40493">
        <ele>191</ele>
        <time>2016-01-26T15:43:35Z</time>
      </trkpt>
      <trkpt lat="45.19879" lon="0.40495">
        <ele>192</ele>
        <time>2016-01-26T15:43:39Z</time>
      </trkpt>
      <trkpt lat="45.19874" lon="0.405">
        <ele>191</ele>
        <time>2016-01-26T15:43:44Z</time>
      </trkpt>
      <trkpt lat="45.19871" lon="0.40496">
        <ele>190</ele>
        <time>2016-01-26T15:43:50Z</time>
      </trkpt>
      <trkpt lat="45.19867" lon="0.40495">
        <ele>192</ele>
        <time>2016-01-26T15:43:55Z</time>
      </trkpt>
      <trkpt lat="45.19862" lon="0.40496">
        <ele>195</ele>
        <time>2016-01-26T15:43:59Z</time>
      </trkpt>
      <trkpt lat="45.19857" lon="0.40498">
        <ele>194</ele>
        <time>2016-01-26T15:44:03Z</time>
      </trkpt>
      <trkpt lat="45.19854" lon="0.40497">
        <ele>195</ele>
        <time>2016-01-26T15:44:07Z</time>
      </trkpt>
      <trkpt lat="45.19848" lon="0.40498">
        <ele>195</ele>
        <time>2016-01-26T15:44:11Z</time>
      </trkpt>
      <trkpt lat="45.19843" lon="0.405">
        <ele>195</ele>
        <time>2016-01-26T15:44:15Z</time>
      </trkpt>
      <trkpt lat="45.19838" lon="0.40501">
        <ele>195</ele>
        <time>2016-01-26T15:44:19Z</time>
      </trkpt>
      <trkpt lat="45.19832" lon="0.40506">
        <ele>194</ele>
        <time>2016-01-26T15:44:24Z</time>
      </trkpt>
      <trkpt lat="45.19829" lon="0.40508">
        <ele>193</ele>
        <time>2016-01-26T15:44:28Z</time>
      </trkpt>
      <trkpt lat="45.19824" lon="0.40511">
        <ele>193</ele>
        <time>2016-01-26T15:44:32Z</time>
      </trkpt>
      <trkpt lat="45.19818" lon="0.40512">
        <ele>193</ele>
        <time>2016-01-26T15:44:36Z</time>
      </trkpt>
      <trkpt lat="45.19813" lon="0.40518">
        <ele>191</ele>
        <time>2016-01-26T15:44:41Z</time>
      </trkpt>
      <trkpt lat="45.1981" lon="0.40524">
        <ele>190</ele>
        <time>2016-01-26T15:44:45Z</time>
      </trkpt>
      <trkpt lat="45.19804" lon="0.40524">
        <ele>188</ele>
        <time>2016-01-26T15:44:49Z</time>
      </trkpt>
      <trkpt lat="45.19799" lon="0.40527">
        <ele>188</ele>
        <time>2016-01-26T15:44:53Z</time>
      </trkpt>
      <trkpt lat="45.19793" lon="0.40528">
        <ele>188</ele>
        <time>2016-01-26T15:44:58Z</time>
      </trkpt>
      <trkpt lat="45.19788" lon="0.40528">
        <ele>189</ele>
        <time>2016-01-26T15:45:02Z</time>
      </trkpt>
      <trkpt lat="45.19783" lon="0.40528">
        <ele>189</ele>
        <time>2016-01-26T15:45:06Z</time>
      </trkpt>
      <trkpt lat="45.19779" lon="0.40531">
        <ele>190</ele>
        <time>2016-01-26T15:45:11Z</time>
      </trkpt>
      <trkpt lat="45.19771" lon="0.40528">
        <ele>189</ele>
        <time>2016-01-26T15:45:15Z</time>
      </trkpt>
      <trkpt lat="45.19764" lon="0.40527">
        <ele>189</ele>
        <time>2016-01-26T15:45:20Z</time>
      </trkpt>
      <trkpt lat="45.19757" lon="0.40528">
        <ele>188</ele>
        <time>2016-01-26T15:45:25Z</time>
      </trkpt>
      <trkpt lat="45.19752" lon="0.40527">
        <ele>188</ele>
        <time>2016-01-26T15:45:29Z</time>
      </trkpt>
      <trkpt lat="45.19748" lon="0.40525">
        <ele>187</ele>
        <time>2016-01-26T15:45:33Z</time>
      </trkpt>
      <trkpt lat="45.19746" lon="0.40519">
        <ele>187</ele>
        <time>2016-01-26T15:45:37Z</time>
      </trkpt>
      <trkpt lat="45.19747" lon="0.40512">
        <ele>186</ele>
        <time>2016-01-26T15:45:41Z</time>
      </trkpt>
      <trkpt lat="45.19751" lon="0.40504">
        <ele>187</ele>
        <time>2016-01-26T15:45:46Z</time>
      </trkpt>
      <trkpt lat="45.19752" lon="0.40499">
        <ele>186</ele>
        <time>2016-01-26T15:45:51Z</time>
      </trkpt>
      <trkpt lat="45.19753" lon="0.40491">
        <ele>186</ele>
        <time>2016-01-26T15:45:55Z</time>
      </trkpt>
      <trkpt lat="45.19754" lon="0.40483">
        <ele>187</ele>
        <time>2016-01-26T15:45:59Z</time>
      </trkpt>
      <trkpt lat="45.19755" lon="0.40477">
        <ele>186</ele>
        <time>2016-01-26T15:46:03Z</time>
      </trkpt>
      <trkpt lat="45.19755" lon="0.4047">
        <ele>186</ele>
        <time>2016-01-26T15:46:08Z</time>
      </trkpt>
      <trkpt lat="45.19758" lon="0.4046">
        <ele>188</ele>
        <time>2016-01-26T15:46:13Z</time>
      </trkpt>
      <trkpt lat="45.1976" lon="0.40453">
        <ele>189</ele>
        <time>2016-01-26T15:46:17Z</time>
      </trkpt>
      <trkpt lat="45.19762" lon="0.40443">
        <ele>190</ele>
        <time>2016-01-26T15:46:22Z</time>
      </trkpt>
      <trkpt lat="45.19763" lon="0.40434">
        <ele>189</ele>
        <time>2016-01-26T15:46:26Z</time>
      </trkpt>
      <trkpt lat="45.19765" lon="0.40427">
        <ele>190</ele>
        <time>2016-01-26T15:46:30Z</time>
      </trkpt>
      <trkpt lat="45.19766" lon="0.4042">
        <ele>191</ele>
        <time>2016-01-26T15:46:35Z</time>
      </trkpt>
      <trkpt lat="45.19766" lon="0.40414">
        <ele>191</ele>
        <time>2016-01-26T15:46:40Z</time>
      </trkpt>
      <trkpt lat="45.19767" lon="0.40404">
        <ele>190</ele>
        <time>2016-01-26T15:46:45Z</time>
      </trkpt>
      <trkpt lat="45.19769" lon="0.40396">
        <ele>191</ele>
        <time>2016-01-26T15:46:49Z</time>
      </trkpt>
      <trkpt lat="45.1977" lon="0.40386">
        <ele>190</ele>
        <time>2016-01-26T15:46:54Z</time>
      </trkpt>
      <trkpt lat="45.19771" lon="0.40376">
        <ele>189</ele>
        <time>2016-01-26T15:46:59Z</time>
      </trkpt>
      <trkpt lat="45.19772" lon="0.40368">
        <ele>190</ele>
        <time>2016-01-26T15:47:03Z</time>
      </trkpt>
      <trkpt lat="45.19771" lon="0.40361">
        <ele>189</ele>
        <time>2016-01-26T15:47:07Z</time>
      </trkpt>
      <trkpt lat="45.19773" lon="0.40352">
        <ele>189</ele>
        <time>2016-01-26T15:47:12Z</time>
      </trkpt>
      <trkpt lat="45.19775" lon="0.40346">
        <ele>188</ele>
        <time>2016-01-26T15:47:16Z</time>
      </trkpt>
      <trkpt lat="45.19776" lon="0.40335">
        <ele>189</ele>
        <time>2016-01-26T15:47:21Z</time>
      </trkpt>
      <trkpt lat="45.1978" lon="0.40325">
        <ele>193</ele>
        <time>2016-01-26T15:47:26Z</time>
      </trkpt>
      <trkpt lat="45.1978" lon="0.40318">
        <ele>193</ele>
        <time>2016-01-26T15:47:30Z</time>
      </trkpt>
      <trkpt lat="45.19782" lon="0.4031">
        <ele>192</ele>
        <time>2016-01-26T15:47:34Z</time>
      </trkpt>
      <trkpt lat="45.19783" lon="0.40303">
        <ele>192</ele>
        <time>2016-01-26T15:47:38Z</time>
      </trkpt>
      <trkpt lat="45.19782" lon="0.40294">
        <ele>191</ele>
        <time>2016-01-26T15:47:43Z</time>
      </trkpt>
      <trkpt lat="45.19783" lon="0.40287">
        <ele>191</ele>
        <time>2016-01-26T15:47:47Z</time>
      </trkpt>
      <trkpt lat="45.19785" lon="0.40279">
        <ele>192</ele>
        <time>2016-01-26T15:47:52Z</time>
      </trkpt>
      <trkpt lat="45.19786" lon="0.40271">
        <ele>192</ele>
        <time>2016-01-26T15:47:56Z</time>
      </trkpt>
      <trkpt lat="45.19788" lon="0.40262">
        <ele>192</ele>
        <time>2016-01-26T15:48:01Z</time>
      </trkpt>
      <trkpt lat="45.19789" lon="0.40251">
        <ele>193</ele>
        <time>2016-01-26T15:48:06Z</time>
      </trkpt>
      <trkpt lat="45.19788" lon="0.40244">
        <ele>191</ele>
        <time>2016-01-26T15:48:10Z</time>
      </trkpt>
      <trkpt lat="45.19787" lon="0.40238">
        <ele>189</ele>
        <time>2016-01-26T15:48:14Z</time>
      </trkpt>
      <trkpt lat="45.19787" lon="0.40227">
        <ele>190</ele>
        <time>2016-01-26T15:48:19Z</time>
      </trkpt>
      <trkpt lat="45.19788" lon="0.40222">
        <ele>192</ele>
        <time>2016-01-26T15:48:23Z</time>
      </trkpt>
      <trkpt lat="45.19789" lon="0.40216">
        <ele>192</ele>
        <time>2016-01-26T15:48:27Z</time>
      </trkpt>
      <trkpt lat="45.19788" lon="0.40209">
        <ele>191</ele>
        <time>2016-01-26T15:48:32Z</time>
      </trkpt>
      <trkpt lat="45.19789" lon="0.40202">
        <ele>191</ele>
        <time>2016-01-26T15:48:36Z</time>
      </trkpt>
      <trkpt lat="45.1979" lon="0.40195">
        <ele>190</ele>
        <time>2016-01-26T15:48:40Z</time>
      </trkpt>
      <trkpt lat="45.19791" lon="0.40187">
        <ele>189</ele>
        <time>2016-01-26T15:48:45Z</time>
      </trkpt>
      <trkpt lat="45.19788" lon="0.40181">
        <ele>188</ele>
        <time>2016-01-26T15:48:49Z</time>
      </trkpt>
      <trkpt lat="45.19789" lon="0.40171">
        <ele>188</ele>
        <time>2016-01-26T15:48:53Z</time>
      </trkpt>
      <trkpt lat="45.19789" lon="0.40163">
        <ele>189</ele>
        <time>2016-01-26T15:48:58Z</time>
      </trkpt>
      <trkpt lat="45.19787" lon="0.40156">
        <ele>189</ele>
        <time>2016-01-26T15:49:02Z</time>
      </trkpt>
      <trkpt lat="45.19785" lon="0.40149">
        <ele>190</ele>
        <time>2016-01-26T15:49:06Z</time>
      </trkpt>
      <trkpt lat="45.19785" lon="0.40142">
        <ele>190</ele>
        <time>2016-01-26T15:49:10Z</time>
      </trkpt>
      <trkpt lat="45.19783" lon="0.40134">
        <ele>188</ele>
        <time>2016-01-26T15:49:14Z</time>
      </trkpt>
      <trkpt lat="45.19782" lon="0.40126">
        <ele>188</ele>
        <time>2016-01-26T15:49:19Z</time>
      </trkpt>
      <trkpt lat="45.19781" lon="0.40118">
        <ele>189</ele>
        <time>2016-01-26T15:49:23Z</time>
      </trkpt>
      <trkpt lat="45.19778" lon="0.40111">
        <ele>188</ele>
        <time>2016-01-26T15:49:27Z</time>
      </trkpt>
      <trkpt lat="45.19779" lon="0.40103">
        <ele>189</ele>
        <time>2016-01-26T15:49:31Z</time>
      </trkpt>
      <trkpt lat="45.19779" lon="0.40096">
        <ele>189</ele>
        <time>2016-01-26T15:49:36Z</time>
      </trkpt>
      <trkpt lat="45.19782" lon="0.40092">
        <ele>188</ele>
        <time>2016-01-26T15:49:41Z</time>
      </trkpt>
      <trkpt lat="45.19786" lon="0.40091">
        <ele>189</ele>
        <time>2016-01-26T15:49:47Z</time>
      </trkpt>
      <trkpt lat="45.1979" lon="0.40093">
        <ele>190</ele>
        <time>2016-01-26T15:49:51Z</time>
      </trkpt>
      <trkpt lat="45.19795" lon="0.40092">
        <ele>192</ele>
        <time>2016-01-26T15:49:55Z</time>
      </trkpt>
      <trkpt lat="45.19801" lon="0.4009">
        <ele>191</ele>
        <time>2016-01-26T15:50:00Z</time>
      </trkpt>
      <trkpt lat="45.19806" lon="0.4009">
        <ele>192</ele>
        <time>2016-01-26T15:50:04Z</time>
      </trkpt>
      <trkpt lat="45.19812" lon="0.40087">
        <ele>195</ele>
        <time>2016-01-26T15:50:09Z</time>
      </trkpt>
      <trkpt lat="45.19816" lon="0.4009">
        <ele>196</ele>
        <time>2016-01-26T15:50:13Z</time>
      </trkpt>
      <trkpt lat="45.19821" lon="0.40087">
        <ele>195</ele>
        <time>2016-01-26T15:50:17Z</time>
      </trkpt>
      <trkpt lat="45.19827" lon="0.40081">
        <ele>193</ele>
        <time>2016-01-26T15:50:21Z</time>
      </trkpt>
      <trkpt lat="45.19829" lon="0.40073">
        <ele>190</ele>
        <time>2016-01-26T15:50:25Z</time>
      </trkpt>
      <trkpt lat="45.1983" lon="0.40066">
        <ele>189</ele>
        <time>2016-01-26T15:50:30Z</time>
      </trkpt>
      <trkpt lat="45.19831" lon="0.40061">
        <ele>187</ele>
        <time>2016-01-26T15:50:38Z</time>
      </trkpt>
      <trkpt lat="45.19833" lon="0.40055">
        <ele>187</ele>
        <time>2016-01-26T15:50:43Z</time>
      </trkpt>
      <trkpt lat="45.19834" lon="0.4005">
        <ele>185</ele>
        <time>2016-01-26T15:50:47Z</time>
      </trkpt>
      <trkpt lat="45.19836" lon="0.40041">
        <ele>184</ele>
        <time>2016-01-26T15:50:52Z</time>
      </trkpt>
      <trkpt lat="45.19838" lon="0.40034">
        <ele>184</ele>
        <time>2016-01-26T15:50:57Z</time>
      </trkpt>
      <trkpt lat="45.1984" lon="0.40026">
        <ele>184</ele>
        <time>2016-01-26T15:51:01Z</time>
      </trkpt>
      <trkpt lat="45.19842" lon="0.4002">
        <ele>185</ele>
        <time>2016-01-26T15:51:05Z</time>
      </trkpt>
      <trkpt lat="45.19843" lon="0.40013">
        <ele>187</ele>
        <time>2016-01-26T15:51:09Z</time>
      </trkpt>
      <trkpt lat="45.19839" lon="0.40005">
        <ele>185</ele>
        <time>2016-01-26T15:51:14Z</time>
      </trkpt>
      <trkpt lat="45.19841" lon="0.39998">
        <ele>185</ele>
        <time>2016-01-26T15:51:18Z</time>
      </trkpt>
      <trkpt lat="45.19843" lon="0.39991">
        <ele>185</ele>
        <time>2016-01-26T15:51:22Z</time>
      </trkpt>
      <trkpt lat="45.19843" lon="0.39985">
        <ele>184</ele>
        <time>2016-01-26T15:51:26Z</time>
      </trkpt>
      <trkpt lat="45.19845" lon="0.39979">
        <ele>185</ele>
        <time>2016-01-26T15:51:30Z</time>
      </trkpt>
      <trkpt lat="45.19849" lon="0.39973">
        <ele>185</ele>
        <time>2016-01-26T15:51:34Z</time>
      </trkpt>
      <trkpt lat="45.1985" lon="0.39966">
        <ele>184</ele>
        <time>2016-01-26T15:51:38Z</time>
      </trkpt>
      <trkpt lat="45.1985" lon="0.3996">
        <ele>184</ele>
        <time>2016-01-26T15:51:43Z</time>
      </trkpt>
      <trkpt lat="45.19852" lon="0.39954">
        <ele>184</ele>
        <time>2016-01-26T15:51:47Z</time>
      </trkpt>
      <trkpt lat="45.19852" lon="0.39946">
        <ele>185</ele>
        <time>2016-01-26T15:51:52Z</time>
      </trkpt>
      <trkpt lat="45.19849" lon="0.3994">
        <ele>182</ele>
        <time>2016-01-26T15:51:57Z</time>
      </trkpt>
      <trkpt lat="45.1985" lon="0.39934">
        <ele>182</ele>
        <time>2016-01-26T15:52:01Z</time>
      </trkpt>
      <trkpt lat="45.19853" lon="0.39927">
        <ele>185</ele>
        <time>2016-01-26T15:52:06Z</time>
      </trkpt>
      <trkpt lat="45.19854" lon="0.39921">
        <ele>185</ele>
        <time>2016-01-26T15:52:10Z</time>
      </trkpt>
      <trkpt lat="45.19856" lon="0.39917">
        <ele>188</ele>
        <time>2016-01-26T15:52:15Z</time>
      </trkpt>
      <trkpt lat="45.19859" lon="0.39913">
        <ele>189</ele>
        <time>2016-01-26T15:52:19Z</time>
      </trkpt>
      <trkpt lat="45.19862" lon="0.39903">
        <ele>191</ele>
        <time>2016-01-26T15:52:24Z</time>
      </trkpt>
      <trkpt lat="45.1986" lon="0.39894">
        <ele>187</ele>
        <time>2016-01-26T15:52:28Z</time>
      </trkpt>
      <trkpt lat="45.19858" lon="0.39889">
        <ele>187</ele>
        <time>2016-01-26T15:52:36Z</time>
      </trkpt>
      <trkpt lat="45.19856" lon="0.39882">
        <ele>183</ele>
        <time>2016-01-26T15:52:40Z</time>
      </trkpt>
      <trkpt lat="45.19858" lon="0.39876">
        <ele>184</ele>
        <time>2016-01-26T15:52:47Z</time>
      </trkpt>
      <trkpt lat="45.19855" lon="0.39867">
        <ele>183</ele>
        <time>2016-01-26T15:52:52Z</time>
      </trkpt>
      <trkpt lat="45.1986" lon="0.39859">
        <ele>185</ele>
        <time>2016-01-26T15:52:57Z</time>
      </trkpt>
      <trkpt lat="45.19862" lon="0.3985">
        <ele>186</ele>
        <time>2016-01-26T15:53:01Z</time>
      </trkpt>
      <trkpt lat="45.19865" lon="0.39841">
        <ele>187</ele>
        <time>2016-01-26T15:53:06Z</time>
      </trkpt>
      <trkpt lat="45.19867" lon="0.39832">
        <ele>186</ele>
        <time>2016-01-26T15:53:10Z</time>
      </trkpt>
      <trkpt lat="45.19871" lon="0.39828">
        <ele>188</ele>
        <time>2016-01-26T15:53:22Z</time>
      </trkpt>
      <trkpt lat="45.19872" lon="0.39824">
        <ele>189</ele>
        <time>2016-01-26T15:53:32Z</time>
      </trkpt>
      <trkpt lat="45.19871" lon="0.39817">
        <ele>190</ele>
        <time>2016-01-26T15:53:37Z</time>
      </trkpt>
      <trkpt lat="45.1987" lon="0.39808">
        <ele>190</ele>
        <time>2016-01-26T15:53:41Z</time>
      </trkpt>
      <trkpt lat="45.1987" lon="0.39803">
        <ele>190</ele>
        <time>2016-01-26T15:53:51Z</time>
      </trkpt>
      <trkpt lat="45.19872" lon="0.39794">
        <ele>190</ele>
        <time>2016-01-26T15:53:55Z</time>
      </trkpt>
      <trkpt lat="45.19877" lon="0.39789">
        <ele>192</ele>
        <time>2016-01-26T15:54:00Z</time>
      </trkpt>
      <trkpt lat="45.19878" lon="0.39784">
        <ele>191</ele>
        <time>2016-01-26T15:54:04Z</time>
      </trkpt>
      <trkpt lat="45.19875" lon="0.39776">
        <ele>192</ele>
        <time>2016-01-26T15:54:09Z</time>
      </trkpt>
      <trkpt lat="45.19876" lon="0.3977">
        <ele>191</ele>
        <time>2016-01-26T15:54:13Z</time>
      </trkpt>
      <trkpt lat="45.19879" lon="0.39766">
        <ele>194</ele>
        <time>2016-01-26T15:54:18Z</time>
      </trkpt>
      <trkpt lat="45.19884" lon="0.3976">
        <ele>195</ele>
        <time>2016-01-26T15:54:22Z</time>
      </trkpt>
      <trkpt lat="45.19883" lon="0.39754">
        <ele>192</ele>
        <time>2016-01-26T15:54:31Z</time>
      </trkpt>
      <trkpt lat="45.19884" lon="0.39749">
        <ele>193</ele>
        <time>2016-01-26T15:54:36Z</time>
      </trkpt>
      <trkpt lat="45.19884" lon="0.39744">
        <ele>191</ele>
        <time>2016-01-26T15:54:42Z</time>
      </trkpt>
      <trkpt lat="45.19886" lon="0.39737">
        <ele>192</ele>
        <time>2016-01-26T15:54:46Z</time>
      </trkpt>
      <trkpt lat="45.19891" lon="0.39731">
        <ele>197</ele>
        <time>2016-01-26T15:54:50Z</time>
      </trkpt>
      <trkpt lat="45.19893" lon="0.39725">
        <ele>202</ele>
        <time>2016-01-26T15:54:55Z</time>
      </trkpt>
      <trkpt lat="45.19894" lon="0.3972">
        <ele>202</ele>
        <time>2016-01-26T15:54:59Z</time>
      </trkpt>
      <trkpt lat="45.19899" lon="0.39717">
        <ele>205</ele>
        <time>2016-01-26T15:55:04Z</time>
      </trkpt>
      <trkpt lat="45.19898" lon="0.39709">
        <ele>201</ele>
        <time>2016-01-26T15:55:08Z</time>
      </trkpt>
      <trkpt lat="45.19901" lon="0.39701">
        <ele>203</ele>
        <time>2016-01-26T15:55:13Z</time>
      </trkpt>
      <trkpt lat="45.19903" lon="0.39694">
        <ele>203</ele>
        <time>2016-01-26T15:55:17Z</time>
      </trkpt>
      <trkpt lat="45.19898" lon="0.3969">
        <ele>198</ele>
        <time>2016-01-26T15:55:21Z</time>
      </trkpt>
      <trkpt lat="45.19897" lon="0.39686">
        <ele>200</ele>
        <time>2016-01-26T15:55:25Z</time>
      </trkpt>
      <trkpt lat="45.19899" lon="0.39679">
        <ele>198</ele>
        <time>2016-01-26T15:55:30Z</time>
      </trkpt>
      <trkpt lat="45.19899" lon="0.39672">
        <ele>198</ele>
        <time>2016-01-26T15:55:34Z</time>
      </trkpt>
      <trkpt lat="45.19901" lon="0.39665">
        <ele>198</ele>
        <time>2016-01-26T15:55:39Z</time>
      </trkpt>
      <trkpt lat="45.19903" lon="0.39661">
        <ele>197</ele>
        <time>2016-01-26T15:55:47Z</time>
      </trkpt>
      <trkpt lat="45.19909" lon="0.39652">
        <ele>197</ele>
        <time>2016-01-26T15:55:51Z</time>
      </trkpt>
      <trkpt lat="45.19914" lon="0.39641">
        <ele>199</ele>
        <time>2016-01-26T15:55:56Z</time>
      </trkpt>
      <trkpt lat="45.19913" lon="0.39635">
        <ele>199</ele>
        <time>2016-01-26T15:56:01Z</time>
      </trkpt>
      <trkpt lat="45.19915" lon="0.39629">
        <ele>203</ele>
        <time>2016-01-26T15:56:05Z</time>
      </trkpt>
      <trkpt lat="45.19917" lon="0.39622">
        <ele>204</ele>
        <time>2016-01-26T15:56:10Z</time>
      </trkpt>
      <trkpt lat="45.19918" lon="0.3961">
        <ele>199</ele>
        <time>2016-01-26T15:56:15Z</time>
      </trkpt>
      <trkpt lat="45.19921" lon="0.39603">
        <ele>199</ele>
        <time>2016-01-26T15:56:19Z</time>
      </trkpt>
      <trkpt lat="45.19922" lon="0.39598">
        <ele>197</ele>
        <time>2016-01-26T15:56:36Z</time>
      </trkpt>
      <trkpt lat="45.19927" lon="0.39579">
        <ele>192</ele>
        <time>2016-01-26T15:56:41Z</time>
      </trkpt>
      <trkpt lat="45.19934" lon="0.39566">
        <ele>185</ele>
        <time>2016-01-26T15:56:46Z</time>
      </trkpt>
      <trkpt lat="45.19936" lon="0.39558">
        <ele>183</ele>
        <time>2016-01-26T15:56:50Z</time>
      </trkpt>
      <trkpt lat="45.1994" lon="0.3955">
        <ele>179</ele>
        <time>2016-01-26T15:56:55Z</time>
      </trkpt>
      <trkpt lat="45.19944" lon="0.39539">
        <ele>172</ele>
        <time>2016-01-26T15:56:59Z</time>
      </trkpt>
      <trkpt lat="45.19943" lon="0.39528">
        <ele>172</ele>
        <time>2016-01-26T15:57:03Z</time>
      </trkpt>
      <trkpt lat="45.19946" lon="0.39524">
        <ele>172</ele>
        <time>2016-01-26T15:57:07Z</time>
      </trkpt>
      <trkpt lat="45.19953" lon="0.39518">
        <ele>176</ele>
        <time>2016-01-26T15:57:11Z</time>
      </trkpt>
      <trkpt lat="45.19955" lon="0.39511">
        <ele>179</ele>
        <time>2016-01-26T15:57:15Z</time>
      </trkpt>
      <trkpt lat="45.19955" lon="0.395">
        <ele>182</ele>
        <time>2016-01-26T15:57:20Z</time>
      </trkpt>
      <trkpt lat="45.19958" lon="0.39494">
        <ele>185</ele>
        <time>2016-01-26T15:57:24Z</time>
      </trkpt>
      <trkpt lat="45.19959" lon="0.39486">
        <ele>187</ele>
        <time>2016-01-26T15:57:28Z</time>
      </trkpt>
      <trkpt lat="45.19961" lon="0.39482">
        <ele>187</ele>
        <time>2016-01-26T15:57:32Z</time>
      </trkpt>
      <trkpt lat="45.19966" lon="0.39478">
        <ele>188</ele>
        <time>2016-01-26T15:57:36Z</time>
      </trkpt>
      <trkpt lat="45.19969" lon="0.39472">
        <ele>190</ele>
        <time>2016-01-26T15:57:41Z</time>
      </trkpt>
      <trkpt lat="45.19967" lon="0.39467">
        <ele>191</ele>
        <time>2016-01-26T15:57:45Z</time>
      </trkpt>
      <trkpt lat="45.19967" lon="0.3946">
        <ele>191</ele>
        <time>2016-01-26T15:57:50Z</time>
      </trkpt>
      <trkpt lat="45.19972" lon="0.39456">
        <ele>193</ele>
        <time>2016-01-26T15:57:54Z</time>
      </trkpt>
      <trkpt lat="45.19977" lon="0.39448">
        <ele>193</ele>
        <time>2016-01-26T15:57:59Z</time>
      </trkpt>
      <trkpt lat="45.19978" lon="0.39443">
        <ele>193</ele>
        <time>2016-01-26T15:58:03Z</time>
      </trkpt>
      <trkpt lat="45.19977" lon="0.39434">
        <ele>189</ele>
        <time>2016-01-26T15:58:08Z</time>
      </trkpt>
      <trkpt lat="45.19979" lon="0.39429">
        <ele>190</ele>
        <time>2016-01-26T15:58:12Z</time>
      </trkpt>
      <trkpt lat="45.19983" lon="0.3942">
        <ele>191</ele>
        <time>2016-01-26T15:58:17Z</time>
      </trkpt>
      <trkpt lat="45.19984" lon="0.39414">
        <ele>190</ele>
        <time>2016-01-26T15:58:21Z</time>
      </trkpt>
      <trkpt lat="45.19984" lon="0.39405">
        <ele>191</ele>
        <time>2016-01-26T15:58:26Z</time>
      </trkpt>
      <trkpt lat="45.19979" lon="0.39396">
        <ele>185</ele>
        <time>2016-01-26T15:58:31Z</time>
      </trkpt>
      <trkpt lat="45.19981" lon="0.39391">
        <ele>188</ele>
        <time>2016-01-26T15:58:35Z</time>
      </trkpt>
      <trkpt lat="45.19987" lon="0.39386">
        <ele>190</ele>
        <time>2016-01-26T15:58:39Z</time>
      </trkpt>
      <trkpt lat="45.1999" lon="0.39385">
        <ele>183</ele>
        <time>2016-01-26T15:58:53Z</time>
      </trkpt>
      <trkpt lat="45.19994" lon="0.39389">
        <ele>185</ele>
        <time>2016-01-26T15:58:58Z</time>
      </trkpt>
      <trkpt lat="45.19999" lon="0.3939">
        <ele>184</ele>
        <time>2016-01-26T15:59:02Z</time>
      </trkpt>
      <trkpt lat="45.20003" lon="0.39392">
        <ele>184</ele>
        <time>2016-01-26T15:59:06Z</time>
      </trkpt>
      <trkpt lat="45.20009" lon="0.39393">
        <ele>182</ele>
        <time>2016-01-26T15:59:11Z</time>
      </trkpt>
      <trkpt lat="45.20014" lon="0.39395">
        <ele>182</ele>
        <time>2016-01-26T15:59:15Z</time>
      </trkpt>
      <trkpt lat="45.20019" lon="0.39397">
        <ele>183</ele>
        <time>2016-01-26T15:59:19Z</time>
      </trkpt>
      <trkpt lat="45.20025" lon="0.39397">
        <ele>182</ele>
        <time>2016-01-26T15:59:24Z</time>
      </trkpt>
      <trkpt lat="45.2003" lon="0.39394">
        <ele>180</ele>
        <time>2016-01-26T15:59:29Z</time>
      </trkpt>
      <trkpt lat="45.20033" lon="0.39397">
        <ele>179</ele>
        <time>2016-01-26T15:59:44Z</time>
      </trkpt>
      <trkpt lat="45.20038" lon="0.39398">
        <ele>179</ele>
        <time>2016-01-26T15:59:48Z</time>
      </trkpt>
      <trkpt lat="45.20043" lon="0.39404">
        <ele>181</ele>
        <time>2016-01-26T15:59:53Z</time>
      </trkpt>
      <trkpt lat="45.2005" lon="0.39402">
        <ele>180</ele>
        <time>2016-01-26T15:59:58Z</time>
      </trkpt>
      <trkpt lat="45.20053" lon="0.39406">
        <ele>182</ele>
        <time>2016-01-26T16:00:03Z</time>
      </trkpt>
      <trkpt lat="45.20056" lon="0.39408">
        <ele>182</ele>
        <time>2016-01-26T16:00:08Z</time>
      </trkpt>
      <trkpt lat="45.20062" lon="0.39413">
        <ele>183</ele>
        <time>2016-01-26T16:00:13Z</time>
      </trkpt>
      <trkpt lat="45.20067" lon="0.39415">
        <ele>183</ele>
        <time>2016-01-26T16:00:17Z</time>
      </trkpt>
      <trkpt lat="45.20073" lon="0.39414">
        <ele>182</ele>
        <time>2016-01-26T16:00:21Z</time>
      </trkpt>
      <trkpt lat="45.20079" lon="0.39415">
        <ele>181</ele>
        <time>2016-01-26T16:00:26Z</time>
      </trkpt>
      <trkpt lat="45.20084" lon="0.39419">
        <ele>181</ele>
        <time>2016-01-26T16:00:31Z</time>
      </trkpt>
      <trkpt lat="45.20089" lon="0.39417">
        <ele>183</ele>
        <time>2016-01-26T16:00:36Z</time>
      </trkpt>
      <trkpt lat="45.20093" lon="0.39419">
        <ele>183</ele>
        <time>2016-01-26T16:00:40Z</time>
      </trkpt>
      <trkpt lat="45.20097" lon="0.39421">
        <ele>185</ele>
        <time>2016-01-26T16:00:44Z</time>
      </trkpt>
      <trkpt lat="45.20104" lon="0.39422">
        <ele>185</ele>
        <time>2016-01-26T16:00:49Z</time>
      </trkpt>
      <trkpt lat="45.20108" lon="0.39424">
        <ele>185</ele>
        <time>2016-01-26T16:00:53Z</time>
      </trkpt>
      <trkpt lat="45.20113" lon="0.39426">
        <ele>187</ele>
        <time>2016-01-26T16:00:58Z</time>
      </trkpt>
      <trkpt lat="45.20117" lon="0.39429">
        <ele>188</ele>
        <time>2016-01-26T16:01:05Z</time>
      </trkpt>
      <trkpt lat="45.20123" lon="0.39429">
        <ele>187</ele>
        <time>2016-01-26T16:01:09Z</time>
      </trkpt>
      <trkpt lat="45.20129" lon="0.39428">
        <ele>186</ele>
        <time>2016-01-26T16:01:14Z</time>
      </trkpt>
      <trkpt lat="45.20135" lon="0.39428">
        <ele>183</ele>
        <time>2016-01-26T16:01:18Z</time>
      </trkpt>
      <trkpt lat="45.20138" lon="0.39426">
        <ele>185</ele>
        <time>2016-01-26T16:01:22Z</time>
      </trkpt>
      <trkpt lat="45.20145" lon="0.39425">
        <ele>180</ele>
        <time>2016-01-26T16:01:26Z</time>
      </trkpt>
      <trkpt lat="45.20149" lon="0.39426">
        <ele>180</ele>
        <time>2016-01-26T16:01:30Z</time>
      </trkpt>
      <trkpt lat="45.20152" lon="0.3943">
        <ele>185</ele>
        <time>2016-01-26T16:01:37Z</time>
      </trkpt>
      <trkpt lat="45.20156" lon="0.39433">
        <ele>183</ele>
        <time>2016-01-26T16:01:42Z</time>
      </trkpt>
      <trkpt lat="45.20161" lon="0.39432">
        <ele>181</ele>
        <time>2016-01-26T16:01:46Z</time>
      </trkpt>
      <trkpt lat="45.20164" lon="0.39433">
        <ele>183</ele>
        <time>2016-01-26T16:01:51Z</time>
      </trkpt>
      <trkpt lat="45.20168" lon="0.39435">
        <ele>185</ele>
        <time>2016-01-26T16:01:55Z</time>
      </trkpt>
      <trkpt lat="45.20172" lon="0.39435">
        <ele>186</ele>
        <time>2016-01-26T16:01:59Z</time>
      </trkpt>
      <trkpt lat="45.20178" lon="0.39433">
        <ele>183</ele>
        <time>2016-01-26T16:02:03Z</time>
      </trkpt>
      <trkpt lat="45.20182" lon="0.39435">
        <ele>182</ele>
        <time>2016-01-26T16:02:08Z</time>
      </trkpt>
      <trkpt lat="45.20189" lon="0.39431">
        <ele>179</ele>
        <time>2016-01-26T16:02:12Z</time>
      </trkpt>
      <trkpt lat="45.20194" lon="0.39432">
        <ele>179</ele>
        <time>2016-01-26T16:02:17Z</time>
      </trkpt>
      <trkpt lat="45.20199" lon="0.39434">
        <ele>181</ele>
        <time>2016-01-26T16:02:22Z</time>
      </trkpt>
      <trkpt lat="45.20204" lon="0.39436">
        <ele>182</ele>
        <time>2016-01-26T16:02:26Z</time>
      </trkpt>
      <trkpt lat="45.20209" lon="0.39435">
        <ele>181</ele>
        <time>2016-01-26T16:02:30Z</time>
      </trkpt>
      <trkpt lat="45.20214" lon="0.39435">
        <ele>181</ele>
        <time>2016-01-26T16:02:34Z</time>
      </trkpt>
      <trkpt lat="45.20217" lon="0.39436">
        <ele>183</ele>
        <time>2016-01-26T16:02:39Z</time>
      </trkpt>
      <trkpt lat="45.20222" lon="0.39436">
        <ele>183</ele>
        <time>2016-01-26T16:02:43Z</time>
      </trkpt>
      <trkpt lat="45.20228" lon="0.39439">
        <ele>183</ele>
        <time>2016-01-26T16:02:48Z</time>
      </trkpt>
      <trkpt lat="45.20232" lon="0.39443">
        <ele>185</ele>
        <time>2016-01-26T16:02:53Z</time>
      </trkpt>
    </trkseg>
  </trk>
</gpx>